<?xml version="1.0" encoding="UTF-8" standalone="no" ?><gpx xmlns="http://www.topografix.com/GPX/1/1" xmlns:gpxx="http://www.garmin.com/xmlschemas/GpxExtensions/v3" xmlns:wptx1="http://www.garmin.com/xmlschemas/WaypointExtension/v1" xmlns:gpxtpx="http://www.garmin.com/xmlschemas/TrackPointExtension/v1" creator="GuideVTT.com" version="1.1" xmlns:xsi="http://www.w3.org/2001/XMLSchema-instance" xsi:schemaLocation="http://www.topografix.com/GPX/1/1 http://www.topografix.com/GPX/1/1/gpx.xsd http://www.garmin.com/xmlschemas/GpxExtensions/v3 http://www8.garmin.com/xmlschemas/GpxExtensionsv3.xsd http://www.garmin.com/xmlschemas/WaypointExtension/v1 http://www8.garmin.com/xmlschemas/WaypointExtensionv1.xsd http://www.garmin.com/xmlschemas/TrackPointExtension/v1 http://www.garmin.com/xmlschemas/TrackPointExtensionv1.xsd">
<metadata><link href="http://www.garmin.com"><text>Garmin International</text></link><time>2013-06-22T15:13:50Z</time></metadata>
<trk><name>leysin-leysin.gpx</name><extensions><gpxx:TrackExtension><gpxx:DisplayColor>Cyan</gpxx:DisplayColor></gpxx:TrackExtension></extensions><trkseg>
<trkpt lat="46.34145864" lon="7.01929942"><ele></ele><time>2014-5-10T0:6:26Z</time></trkpt>
<trkpt lat="46.34147398" lon="7.01936572"><ele></ele><time>2014-5-10T0:6:29Z</time></trkpt>
<trkpt lat="46.34149485" lon="7.01945264"><ele></ele><time>2014-5-10T0:6:32Z</time></trkpt>
<trkpt lat="46.34150642" lon="7.01950503"><ele></ele><time>2014-5-10T0:6:35Z</time></trkpt>
<trkpt lat="46.34153534" lon="7.01962329"><ele></ele><time>2014-5-10T0:6:38Z</time></trkpt>
<trkpt lat="46.34156023" lon="7.01983494"><ele></ele><time>2014-5-10T0:6:41Z</time></trkpt>
<trkpt lat="46.34159292" lon="7.02028463"><ele></ele><time>2014-5-10T0:6:44Z</time></trkpt>
<trkpt lat="46.34159376" lon="7.02039124"><ele></ele><time>2014-5-10T0:6:47Z</time></trkpt>
<trkpt lat="46.34159963" lon="7.02074035"><ele></ele><time>2014-5-10T0:6:50Z</time></trkpt>
<trkpt lat="46.34161052" lon="7.02086365"><ele></ele><time>2014-5-10T0:6:53Z</time></trkpt>
<trkpt lat="46.34173969" lon="7.02148693"><ele></ele><time>2014-5-10T0:6:56Z</time></trkpt>
<trkpt lat="46.34175209" lon="7.02168658"><ele></ele><time>2014-5-10T0:6:59Z</time></trkpt>
<trkpt lat="46.34169635" lon="7.02185087"><ele></ele><time>2014-5-10T0:7:2Z</time></trkpt>
<trkpt lat="46.34159502" lon="7.02200468"><ele></ele><time>2014-5-10T0:7:5Z</time></trkpt>
<trkpt lat="46.34148387" lon="7.02214574"><ele></ele><time>2014-5-10T0:7:8Z</time></trkpt>
<trkpt lat="46.34113644" lon="7.02266567"><ele></ele><time>2014-5-10T0:7:11Z</time></trkpt>
<trkpt lat="46.34100183" lon="7.02291730"><ele></ele><time>2014-5-10T0:7:14Z</time></trkpt>
<trkpt lat="46.34076085" lon="7.02326775"><ele></ele><time>2014-5-10T0:7:17Z</time></trkpt>
<trkpt lat="46.34071416" lon="7.02332223"><ele></ele><time>2014-5-10T0:7:20Z</time></trkpt>
<trkpt lat="46.34054678" lon="7.02338903"><ele></ele><time>2014-5-10T0:7:23Z</time></trkpt>
<trkpt lat="46.34030244" lon="7.02334142"><ele></ele><time>2014-5-10T0:7:26Z</time></trkpt>
<trkpt lat="46.34014025" lon="7.02326012"><ele></ele><time>2014-5-10T0:7:29Z</time></trkpt>
<trkpt lat="46.33995216" lon="7.02318217"><ele></ele><time>2014-5-10T0:7:32Z</time></trkpt>
<trkpt lat="46.33966483" lon="7.02302978"><ele></ele><time>2014-5-10T0:7:35Z</time></trkpt>
<trkpt lat="46.33940826" lon="7.02283507"><ele></ele><time>2014-5-10T0:7:38Z</time></trkpt>
<trkpt lat="46.33928689" lon="7.02274145"><ele></ele><time>2014-5-10T0:7:41Z</time></trkpt>
<trkpt lat="46.33914532" lon="7.02257339"><ele></ele><time>2014-5-10T0:7:44Z</time></trkpt>
<trkpt lat="46.33899637" lon="7.02220635"><ele></ele><time>2014-5-10T0:7:47Z</time></trkpt>
<trkpt lat="46.33891842" lon="7.02197366"><ele></ele><time>2014-5-10T0:7:50Z</time></trkpt>
<trkpt lat="46.33886017" lon="7.02174149"><ele></ele><time>2014-5-10T0:7:53Z</time></trkpt>
<trkpt lat="46.33883846" lon="7.02169388"><ele></ele><time>2014-5-10T0:7:56Z</time></trkpt>
<trkpt lat="46.33875405" lon="7.02158525"><ele></ele><time>2014-5-10T0:7:59Z</time></trkpt>
<trkpt lat="46.33872757" lon="7.02154795"><ele></ele><time>2014-5-10T0:8:2Z</time></trkpt>
<trkpt lat="46.33865607" lon="7.02143077"><ele></ele><time>2014-5-10T0:8:5Z</time></trkpt>
<trkpt lat="46.33854887" lon="7.02118954"><ele></ele><time>2014-5-10T0:8:8Z</time></trkpt>
<trkpt lat="46.33848198" lon="7.02103556"><ele></ele><time>2014-5-10T0:8:11Z</time></trkpt>
<trkpt lat="46.33836480" lon="7.02074689"><ele></ele><time>2014-5-10T0:8:14Z</time></trkpt>
<trkpt lat="46.33835482" lon="7.02042125"><ele></ele><time>2014-5-10T0:8:17Z</time></trkpt>
<trkpt lat="46.33831576" lon="7.02025822"><ele></ele><time>2014-5-10T0:8:20Z</time></trkpt>
<trkpt lat="46.33830587" lon="7.02020525"><ele></ele><time>2014-5-10T0:8:23Z</time></trkpt>
<trkpt lat="46.33817403" lon="7.01994415"><ele></ele><time>2014-5-10T0:8:26Z</time></trkpt>
<trkpt lat="46.33808199" lon="7.01974148"><ele></ele><time>2014-5-10T0:8:29Z</time></trkpt>
<trkpt lat="46.33801502" lon="7.01949740"><ele></ele><time>2014-5-10T0:8:32Z</time></trkpt>
<trkpt lat="46.33788946" lon="7.01914083"><ele></ele><time>2014-5-10T0:8:35Z</time></trkpt>
<trkpt lat="46.33779315" lon="7.01891880"><ele></ele><time>2014-5-10T0:8:38Z</time></trkpt>
<trkpt lat="46.33768436" lon="7.01862275"><ele></ele><time>2014-5-10T0:8:41Z</time></trkpt>
<trkpt lat="46.33762543" lon="7.01838973"><ele></ele><time>2014-5-10T0:8:44Z</time></trkpt>
<trkpt lat="46.33752493" lon="7.01812193"><ele></ele><time>2014-5-10T0:8:47Z</time></trkpt>
<trkpt lat="46.33743625" lon="7.01786947"><ele></ele><time>2014-5-10T0:8:50Z</time></trkpt>
<trkpt lat="46.33738747" lon="7.01757534"><ele></ele><time>2014-5-10T0:8:53Z</time></trkpt>
<trkpt lat="46.33732947" lon="7.01717586"><ele></ele><time>2014-5-10T0:8:56Z</time></trkpt>
<trkpt lat="46.33731354" lon="7.01689976"><ele></ele><time>2014-5-10T0:8:59Z</time></trkpt>
<trkpt lat="46.33737716" lon="7.01665392"><ele></ele><time>2014-5-10T0:9:2Z</time></trkpt>
<trkpt lat="46.33746207" lon="7.01659684"><ele></ele><time>2014-5-10T0:9:5Z</time></trkpt>
<trkpt lat="46.33755653" lon="7.01669382"><ele></ele><time>2014-5-10T0:9:8Z</time></trkpt>
<trkpt lat="46.33764496" lon="7.01683564"><ele></ele><time>2014-5-10T0:9:11Z</time></trkpt>
<trkpt lat="46.33785308" lon="7.01705550"><ele></ele><time>2014-5-10T0:9:14Z</time></trkpt>
<trkpt lat="46.33793984" lon="7.01716673"><ele></ele><time>2014-5-10T0:9:17Z</time></trkpt>
<trkpt lat="46.33803438" lon="7.01729916"><ele></ele><time>2014-5-10T0:9:20Z</time></trkpt>
<trkpt lat="46.33828643" lon="7.01748314"><ele></ele><time>2014-5-10T0:9:23Z</time></trkpt>
<trkpt lat="46.33870846" lon="7.01780886"><ele></ele><time>2014-5-10T0:9:26Z</time></trkpt>
<trkpt lat="46.33877367" lon="7.01786016"><ele></ele><time>2014-5-10T0:9:29Z</time></trkpt>
<trkpt lat="46.33904499" lon="7.01814892"><ele></ele><time>2014-5-10T0:9:32Z</time></trkpt>
<trkpt lat="46.33910475" lon="7.01822653"><ele></ele><time>2014-5-10T0:9:35Z</time></trkpt>
<trkpt lat="46.33925479" lon="7.01838059"><ele></ele><time>2014-5-10T0:9:38Z</time></trkpt>
<trkpt lat="46.33958118" lon="7.01876775"><ele></ele><time>2014-5-10T0:9:41Z</time></trkpt>
<trkpt lat="46.33975393" lon="7.01897998"><ele></ele><time>2014-5-10T0:9:44Z</time></trkpt>
<trkpt lat="46.33978243" lon="7.01890673"><ele></ele><time>2014-5-10T0:9:47Z</time></trkpt>
<trkpt lat="46.33971152" lon="7.01879147"><ele></ele><time>2014-5-10T0:9:50Z</time></trkpt>
<trkpt lat="46.33966877" lon="7.01868804"><ele></ele><time>2014-5-10T0:9:53Z</time></trkpt>
<trkpt lat="46.33954338" lon="7.01847246"><ele></ele><time>2014-5-10T0:9:56Z</time></trkpt>
<trkpt lat="46.33944799" lon="7.01823215"><ele></ele><time>2014-5-10T0:9:59Z</time></trkpt>
<trkpt lat="46.33941086" lon="7.01801296"><ele></ele><time>2014-5-10T0:10:2Z</time></trkpt>
<trkpt lat="46.33947926" lon="7.01779126"><ele></ele><time>2014-5-10T0:10:5Z</time></trkpt>
<trkpt lat="46.33955779" lon="7.01761968"><ele></ele><time>2014-5-10T0:10:8Z</time></trkpt>
<trkpt lat="46.33952058" lon="7.01748365"><ele></ele><time>2014-5-10T0:10:11Z</time></trkpt>
<trkpt lat="46.33941120" lon="7.01723722"><ele></ele><time>2014-5-10T0:10:14Z</time></trkpt>
<trkpt lat="46.33919846" lon="7.01688283"><ele></ele><time>2014-5-10T0:10:17Z</time></trkpt>
<trkpt lat="46.33897676" lon="7.01638654"><ele></ele><time>2014-5-10T0:10:20Z</time></trkpt>
<trkpt lat="46.33885673" lon="7.01611119"><ele></ele><time>2014-5-10T0:10:23Z</time></trkpt>
<trkpt lat="46.33878926" lon="7.01597624"><ele></ele><time>2014-5-10T0:10:26Z</time></trkpt>
<trkpt lat="46.33857686" lon="7.01559730"><ele></ele><time>2014-5-10T0:10:29Z</time></trkpt>
<trkpt lat="46.33812239" lon="7.01477294"><ele></ele><time>2014-5-10T0:10:32Z</time></trkpt>
<trkpt lat="46.33806339" lon="7.01464939"><ele></ele><time>2014-5-10T0:10:35Z</time></trkpt>
<trkpt lat="46.33788016" lon="7.01427187"><ele></ele><time>2014-5-10T0:10:38Z</time></trkpt>
<trkpt lat="46.33776776" lon="7.01403919"><ele></ele><time>2014-5-10T0:10:41Z</time></trkpt>
<trkpt lat="46.33758277" lon="7.01363166"><ele></ele><time>2014-5-10T0:10:44Z</time></trkpt>
<trkpt lat="46.33728412" lon="7.01302707"><ele></ele><time>2014-5-10T0:10:47Z</time></trkpt>
<trkpt lat="46.33711648" lon="7.01265223"><ele></ele><time>2014-5-10T0:10:50Z</time></trkpt>
<trkpt lat="46.33696385" lon="7.01232685"><ele></ele><time>2014-5-10T0:10:53Z</time></trkpt>
<trkpt lat="46.33690777" lon="7.01220640"><ele></ele><time>2014-5-10T0:10:56Z</time></trkpt>
<trkpt lat="46.33680878" lon="7.01201202"><ele></ele><time>2014-5-10T0:10:59Z</time></trkpt>
<trkpt lat="46.33671507" lon="7.01179594"><ele></ele><time>2014-5-10T0:11:2Z</time></trkpt>
<trkpt lat="46.33669537" lon="7.01174908"><ele></ele><time>2014-5-10T0:11:5Z</time></trkpt>
<trkpt lat="46.33659580" lon="7.01152076"><ele></ele><time>2014-5-10T0:11:8Z</time></trkpt>
<trkpt lat="46.33655582" lon="7.01144163"><ele></ele><time>2014-5-10T0:11:11Z</time></trkpt>
<trkpt lat="46.33649429" lon="7.01127475"><ele></ele><time>2014-5-10T0:11:14Z</time></trkpt>
<trkpt lat="46.33645565" lon="7.01112363"><ele></ele><time>2014-5-10T0:11:17Z</time></trkpt>
<trkpt lat="46.33643034" lon="7.01105716"><ele></ele><time>2014-5-10T0:11:20Z</time></trkpt>
<trkpt lat="46.33643126" lon="7.01102606"><ele></ele><time>2014-5-10T0:11:23Z</time></trkpt>
<trkpt lat="46.33643528" lon="7.01102564"><ele></ele><time>2014-5-10T0:11:26Z</time></trkpt>
<trkpt lat="46.33644098" lon="7.01100318"><ele></ele><time>2014-5-10T0:11:29Z</time></trkpt>
<trkpt lat="46.33644392" lon="7.01098583"><ele></ele><time>2014-5-10T0:11:32Z</time></trkpt>
<trkpt lat="46.33640385" lon="7.01078692"><ele></ele><time>2014-5-10T0:11:35Z</time></trkpt>
<trkpt lat="46.33639195" lon="7.01068492"><ele></ele><time>2014-5-10T0:11:38Z</time></trkpt>
<trkpt lat="46.33635239" lon="7.01048819"><ele></ele><time>2014-5-10T0:11:41Z</time></trkpt>
<trkpt lat="46.33634258" lon="7.00998084"><ele></ele><time>2014-5-10T0:11:44Z</time></trkpt>
<trkpt lat="46.33627946" lon="7.00941556"><ele></ele><time>2014-5-10T0:11:47Z</time></trkpt>
<trkpt lat="46.33622104" lon="7.00912739"><ele></ele><time>2014-5-10T0:11:50Z</time></trkpt>
<trkpt lat="46.33618458" lon="7.00893955"><ele></ele><time>2014-5-10T0:11:53Z</time></trkpt>
<trkpt lat="46.33621526" lon="7.00860956"><ele></ele><time>2014-5-10T0:11:56Z</time></trkpt>
<trkpt lat="46.33631593" lon="7.00848634"><ele></ele><time>2014-5-10T0:11:59Z</time></trkpt>
<trkpt lat="46.33652656" lon="7.00835139"><ele></ele><time>2014-5-10T0:12:2Z</time></trkpt>
<trkpt lat="46.33660804" lon="7.00824260"><ele></ele><time>2014-5-10T0:12:5Z</time></trkpt>
<trkpt lat="46.33664165" lon="7.00814679"><ele></ele><time>2014-5-10T0:12:8Z</time></trkpt>
<trkpt lat="46.33666084" lon="7.00799642"><ele></ele><time>2014-5-10T0:12:11Z</time></trkpt>
<trkpt lat="46.33665095" lon="7.00785720"><ele></ele><time>2014-5-10T0:12:14Z</time></trkpt>
<trkpt lat="46.33666319" lon="7.00779232"><ele></ele><time>2014-5-10T0:12:17Z</time></trkpt>
<trkpt lat="46.33669035" lon="7.00773859"><ele></ele><time>2014-5-10T0:12:20Z</time></trkpt>
<trkpt lat="46.33681096" lon="7.00764254"><ele></ele><time>2014-5-10T0:12:23Z</time></trkpt>
<trkpt lat="46.33694608" lon="7.00770942"><ele></ele><time>2014-5-10T0:12:26Z</time></trkpt>
<trkpt lat="46.33709486" lon="7.00783918"><ele></ele><time>2014-5-10T0:12:29Z</time></trkpt>
<trkpt lat="46.33729342" lon="7.00800883"><ele></ele><time>2014-5-10T0:12:32Z</time></trkpt>
<trkpt lat="46.33743634" lon="7.00812475"><ele></ele><time>2014-5-10T0:12:35Z</time></trkpt>
<trkpt lat="46.33762317" lon="7.00830697"><ele></ele><time>2014-5-10T0:12:38Z</time></trkpt>
<trkpt lat="46.33778427" lon="7.00843287"><ele></ele><time>2014-5-10T0:12:41Z</time></trkpt>
<trkpt lat="46.33803564" lon="7.00858768"><ele></ele><time>2014-5-10T0:12:44Z</time></trkpt>
<trkpt lat="46.33826556" lon="7.00877007"><ele></ele><time>2014-5-10T0:12:47Z</time></trkpt>
<trkpt lat="46.33844644" lon="7.00893494"><ele></ele><time>2014-5-10T0:12:50Z</time></trkpt>
<trkpt lat="46.33871223" lon="7.00917844"><ele></ele><time>2014-5-10T0:12:53Z</time></trkpt>
<trkpt lat="46.33887752" lon="7.00941238"><ele></ele><time>2014-5-10T0:12:56Z</time></trkpt>
<trkpt lat="46.33905899" lon="7.00971924"><ele></ele><time>2014-5-10T0:12:59Z</time></trkpt>
<trkpt lat="46.33923559" lon="7.00993474"><ele></ele><time>2014-5-10T0:13:2Z</time></trkpt>
<trkpt lat="46.33943307" lon="7.01010916"><ele></ele><time>2014-5-10T0:13:5Z</time></trkpt>
<trkpt lat="46.33953785" lon="7.01017513"><ele></ele><time>2014-5-10T0:13:8Z</time></trkpt>
<trkpt lat="46.33968730" lon="7.01028678"><ele></ele><time>2014-5-10T0:13:11Z</time></trkpt>
<trkpt lat="46.33973717" lon="7.01032525"><ele></ele><time>2014-5-10T0:13:14Z</time></trkpt>
<trkpt lat="46.33976189" lon="7.01034084"><ele></ele><time>2014-5-10T0:13:17Z</time></trkpt>
<trkpt lat="46.33989106" lon="7.01044193"><ele></ele><time>2014-5-10T0:13:20Z</time></trkpt>
<trkpt lat="46.34002307" lon="7.01060009"><ele></ele><time>2014-5-10T0:13:23Z</time></trkpt>
<trkpt lat="46.34020119" lon="7.01076203"><ele></ele><time>2014-5-10T0:13:26Z</time></trkpt>
<trkpt lat="46.34040789" lon="7.01093084"><ele></ele><time>2014-5-10T0:13:29Z</time></trkpt>
<trkpt lat="46.34051417" lon="7.01082414"><ele></ele><time>2014-5-10T0:13:32Z</time></trkpt>
<trkpt lat="46.34071919" lon="7.01060277"><ele></ele><time>2014-5-10T0:13:35Z</time></trkpt>
<trkpt lat="46.34094768" lon="7.01045140"><ele></ele><time>2014-5-10T0:13:38Z</time></trkpt>
<trkpt lat="46.34105648" lon="7.01033338"><ele></ele><time>2014-5-10T0:13:41Z</time></trkpt>
<trkpt lat="46.34107182" lon="7.01030874"><ele></ele><time>2014-5-10T0:13:44Z</time></trkpt>
<trkpt lat="46.34104500" lon="7.01009726"><ele></ele><time>2014-5-10T0:13:47Z</time></trkpt>
<trkpt lat="46.34089027" lon="7.00981814"><ele></ele><time>2014-5-10T0:13:50Z</time></trkpt>
<trkpt lat="46.34067879" lon="7.00951078"><ele></ele><time>2014-5-10T0:13:53Z</time></trkpt>
<trkpt lat="46.34052968" lon="7.00917768"><ele></ele><time>2014-5-10T0:13:56Z</time></trkpt>
<trkpt lat="46.34037578" lon="7.00889588"><ele></ele><time>2014-5-10T0:13:59Z</time></trkpt>
<trkpt lat="46.34023120" lon="7.00859514"><ele></ele><time>2014-5-10T0:14:2Z</time></trkpt>
<trkpt lat="46.34007764" lon="7.00822684"><ele></ele><time>2014-5-10T0:14:5Z</time></trkpt>
<trkpt lat="46.33995476" lon="7.00792434"><ele></ele><time>2014-5-10T0:14:8Z</time></trkpt>
<trkpt lat="46.33980095" lon="7.00763918"><ele></ele><time>2014-5-10T0:14:11Z</time></trkpt>
<trkpt lat="46.33956408" lon="7.00722772"><ele></ele><time>2014-5-10T0:14:14Z</time></trkpt>
<trkpt lat="46.33929444" lon="7.00674056"><ele></ele><time>2014-5-10T0:14:17Z</time></trkpt>
<trkpt lat="46.33903208" lon="7.00632348"><ele></ele><time>2014-5-10T0:14:20Z</time></trkpt>
<trkpt lat="46.33889948" lon="7.00610848"><ele></ele><time>2014-5-10T0:14:23Z</time></trkpt>
<trkpt lat="46.33873964" lon="7.00568989"><ele></ele><time>2014-5-10T0:14:26Z</time></trkpt>
<trkpt lat="46.33852028" lon="7.00539510"><ele></ele><time>2014-5-10T0:14:29Z</time></trkpt>
<trkpt lat="46.33848533" lon="7.00533299"><ele></ele><time>2014-5-10T0:14:32Z</time></trkpt>
<trkpt lat="46.33842196" lon="7.00520642"><ele></ele><time>2014-5-10T0:14:35Z</time></trkpt>
<trkpt lat="46.33835952" lon="7.00492714"><ele></ele><time>2014-5-10T0:14:38Z</time></trkpt>
<trkpt lat="46.33832658" lon="7.00466596"><ele></ele><time>2014-5-10T0:14:41Z</time></trkpt>
<trkpt lat="46.33833186" lon="7.00406229"><ele></ele><time>2014-5-10T0:14:44Z</time></trkpt>
<trkpt lat="46.33832884" lon="7.00368075"><ele></ele><time>2014-5-10T0:14:47Z</time></trkpt>
<trkpt lat="46.33830093" lon="7.00320859"><ele></ele><time>2014-5-10T0:14:50Z</time></trkpt>
<trkpt lat="46.33832054" lon="7.00253846"><ele></ele><time>2014-5-10T0:14:53Z</time></trkpt>
<trkpt lat="46.33833840" lon="7.00240913"><ele></ele><time>2014-5-10T0:14:56Z</time></trkpt>
<trkpt lat="46.33832105" lon="7.00178652"><ele></ele><time>2014-5-10T0:14:59Z</time></trkpt>
<trkpt lat="46.33831124" lon="7.00156432"><ele></ele><time>2014-5-10T0:15:2Z</time></trkpt>
<trkpt lat="46.33822088" lon="7.00113516"><ele></ele><time>2014-5-10T0:15:5Z</time></trkpt>
<trkpt lat="46.33811887" lon="7.00094456"><ele></ele><time>2014-5-10T0:15:8Z</time></trkpt>
<trkpt lat="46.33806129" lon="7.00086770"><ele></ele><time>2014-5-10T0:15:11Z</time></trkpt>
<trkpt lat="46.33799306" lon="7.00078413"><ele></ele><time>2014-5-10T0:15:14Z</time></trkpt>
<trkpt lat="46.33773305" lon="7.00043435"><ele></ele><time>2014-5-10T0:15:17Z</time></trkpt>
<trkpt lat="46.33755729" lon="7.00012397"><ele></ele><time>2014-5-10T0:15:20Z</time></trkpt>
<trkpt lat="46.33726534" lon="6.99974854"><ele></ele><time>2014-5-10T0:15:23Z</time></trkpt>
<trkpt lat="46.33715353" lon="6.99944437"><ele></ele><time>2014-5-10T0:15:26Z</time></trkpt>
<trkpt lat="46.33714196" lon="6.99916475"><ele></ele><time>2014-5-10T0:15:29Z</time></trkpt>
<trkpt lat="46.33711799" lon="6.99866368"><ele></ele><time>2014-5-10T0:15:32Z</time></trkpt>
<trkpt lat="46.33710315" lon="6.99849394"><ele></ele><time>2014-5-10T0:15:35Z</time></trkpt>
<trkpt lat="46.33701984" lon="6.99817182"><ele></ele><time>2014-5-10T0:15:38Z</time></trkpt>
<trkpt lat="46.33679219" lon="6.99801659"><ele></ele><time>2014-5-10T0:15:41Z</time></trkpt>
<trkpt lat="46.33662689" lon="6.99807703"><ele></ele><time>2014-5-10T0:15:44Z</time></trkpt>
<trkpt lat="46.33619305" lon="6.99815414"><ele></ele><time>2014-5-10T0:15:47Z</time></trkpt>
<trkpt lat="46.33590387" lon="6.99810938"><ele></ele><time>2014-5-10T0:15:50Z</time></trkpt>
<trkpt lat="46.33584134" lon="6.99806437"><ele></ele><time>2014-5-10T0:15:53Z</time></trkpt>
<trkpt lat="46.33563758" lon="6.99792758"><ele></ele><time>2014-5-10T0:15:56Z</time></trkpt>
<trkpt lat="46.33541244" lon="6.99787368"><ele></ele><time>2014-5-10T0:15:59Z</time></trkpt>
<trkpt lat="46.33515017" lon="6.99788659"><ele></ele><time>2014-5-10T0:16:2Z</time></trkpt>
<trkpt lat="46.33498404" lon="6.99789070"><ele></ele><time>2014-5-10T0:16:5Z</time></trkpt>
<trkpt lat="46.33479210" lon="6.99753698"><ele></ele><time>2014-5-10T0:16:8Z</time></trkpt>
<trkpt lat="46.33460334" lon="6.99738367"><ele></ele><time>2014-5-10T0:16:11Z</time></trkpt>
<trkpt lat="46.33426839" lon="6.99729634"><ele></ele><time>2014-5-10T0:16:14Z</time></trkpt>
<trkpt lat="46.33398282" lon="6.99696969"><ele></ele><time>2014-5-10T0:16:17Z</time></trkpt>
<trkpt lat="46.33398408" lon="6.99668580"><ele></ele><time>2014-5-10T0:16:20Z</time></trkpt>
<trkpt lat="46.33403253" lon="6.99638866"><ele></ele><time>2014-5-10T0:16:23Z</time></trkpt>
<trkpt lat="46.33394075" lon="6.99630543"><ele></ele><time>2014-5-10T0:16:26Z</time></trkpt>
<trkpt lat="46.33378987" lon="6.99636008"><ele></ele><time>2014-5-10T0:16:29Z</time></trkpt>
<trkpt lat="46.33354814" lon="6.99647784"><ele></ele><time>2014-5-10T0:16:32Z</time></trkpt>
<trkpt lat="46.33321320" lon="6.99649570"><ele></ele><time>2014-5-10T0:16:35Z</time></trkpt>
<trkpt lat="46.33298588" lon="6.99633719"><ele></ele><time>2014-5-10T0:16:38Z</time></trkpt>
<trkpt lat="46.33293056" lon="6.99623846"><ele></ele><time>2014-5-10T0:16:41Z</time></trkpt>
<trkpt lat="46.33287650" lon="6.99613796"><ele></ele><time>2014-5-10T0:16:44Z</time></trkpt>
<trkpt lat="46.33262294" lon="6.99569548"><ele></ele><time>2014-5-10T0:16:47Z</time></trkpt>
<trkpt lat="46.33241708" lon="6.99530848"><ele></ele><time>2014-5-10T0:16:50Z</time></trkpt>
<trkpt lat="46.33230393" lon="6.99505703"><ele></ele><time>2014-5-10T0:16:53Z</time></trkpt>
<trkpt lat="46.33221223" lon="6.99478579"><ele></ele><time>2014-5-10T0:16:56Z</time></trkpt>
<trkpt lat="46.33208659" lon="6.99435705"><ele></ele><time>2014-5-10T0:16:59Z</time></trkpt>
<trkpt lat="46.33192297" lon="6.99387266"><ele></ele><time>2014-5-10T0:17:2Z</time></trkpt>
<trkpt lat="46.33187067" lon="6.99371777"><ele></ele><time>2014-5-10T0:17:5Z</time></trkpt>
<trkpt lat="46.33172843" lon="6.99323329"><ele></ele><time>2014-5-10T0:17:8Z</time></trkpt>
<trkpt lat="46.33159054" lon="6.99274236"><ele></ele><time>2014-5-10T0:17:11Z</time></trkpt>
<trkpt lat="46.33144948" lon="6.99225035"><ele></ele><time>2014-5-10T0:17:14Z</time></trkpt>
<trkpt lat="46.33126633" lon="6.99176176"><ele></ele><time>2014-5-10T0:17:17Z</time></trkpt>
<trkpt lat="46.33106483" lon="6.99127553"><ele></ele><time>2014-5-10T0:17:20Z</time></trkpt>
<trkpt lat="46.33093198" lon="6.99093833"><ele></ele><time>2014-5-10T0:17:23Z</time></trkpt>
<trkpt lat="46.33067826" lon="6.99034992"><ele></ele><time>2014-5-10T0:17:26Z</time></trkpt>
<trkpt lat="46.33048715" lon="6.98997533"><ele></ele><time>2014-5-10T0:17:29Z</time></trkpt>
<trkpt lat="46.33040886" lon="6.98964265"><ele></ele><time>2014-5-10T0:17:32Z</time></trkpt>
<trkpt lat="46.33031742" lon="6.98948298"><ele></ele><time>2014-5-10T0:17:35Z</time></trkpt>
<trkpt lat="46.33025103" lon="6.98955942"><ele></ele><time>2014-5-10T0:17:38Z</time></trkpt>
<trkpt lat="46.33027869" lon="6.98979244"><ele></ele><time>2014-5-10T0:17:41Z</time></trkpt>
<trkpt lat="46.33039805" lon="6.99031656"><ele></ele><time>2014-5-10T0:17:44Z</time></trkpt>
<trkpt lat="46.33042403" lon="6.99044304"><ele></ele><time>2014-5-10T0:17:47Z</time></trkpt>
<trkpt lat="46.33049729" lon="6.99103095"><ele></ele><time>2014-5-10T0:17:50Z</time></trkpt>
<trkpt lat="46.33053183" lon="6.99171944"><ele></ele><time>2014-5-10T0:17:53Z</time></trkpt>
<trkpt lat="46.33053870" lon="6.99188883"><ele></ele><time>2014-5-10T0:17:56Z</time></trkpt>
<trkpt lat="46.33059645" lon="6.99226694"><ele></ele><time>2014-5-10T0:17:59Z</time></trkpt>
<trkpt lat="46.33051246" lon="6.99238320"><ele></ele><time>2014-5-10T0:18:2Z</time></trkpt>
<trkpt lat="46.33046863" lon="6.99234783"><ele></ele><time>2014-5-10T0:18:5Z</time></trkpt>
<trkpt lat="46.33034633" lon="6.99215764"><ele></ele><time>2014-5-10T0:18:8Z</time></trkpt>
<trkpt lat="46.33009538" lon="6.99185514"><ele></ele><time>2014-5-10T0:18:11Z</time></trkpt>
<trkpt lat="46.32974778" lon="6.99139774"><ele></ele><time>2014-5-10T0:18:14Z</time></trkpt>
<trkpt lat="46.32948015" lon="6.99090287"><ele></ele><time>2014-5-10T0:18:17Z</time></trkpt>
<trkpt lat="46.32945852" lon="6.99052929"><ele></ele><time>2014-5-10T0:18:20Z</time></trkpt>
<trkpt lat="46.32947336" lon="6.99043164"><ele></ele><time>2014-5-10T0:18:23Z</time></trkpt>
<trkpt lat="46.32955123" lon="6.99006485"><ele></ele><time>2014-5-10T0:18:26Z</time></trkpt>
<trkpt lat="46.32967084" lon="6.98940058"><ele></ele><time>2014-5-10T0:18:29Z</time></trkpt>
<trkpt lat="46.32973580" lon="6.98885852"><ele></ele><time>2014-5-10T0:18:32Z</time></trkpt>
<trkpt lat="46.32976237" lon="6.98862727"><ele></ele><time>2014-5-10T0:18:35Z</time></trkpt>
<trkpt lat="46.32984753" lon="6.98793408"><ele></ele><time>2014-5-10T0:18:38Z</time></trkpt>
<trkpt lat="46.32989254" lon="6.98754567"><ele></ele><time>2014-5-10T0:18:41Z</time></trkpt>
<trkpt lat="46.32995708" lon="6.98702750"><ele></ele><time>2014-5-10T0:18:44Z</time></trkpt>
<trkpt lat="46.33004299" lon="6.98637296"><ele></ele><time>2014-5-10T0:18:47Z</time></trkpt>
<trkpt lat="46.33012857" lon="6.98586987"><ele></ele><time>2014-5-10T0:18:50Z</time></trkpt>
<trkpt lat="46.33026578" lon="6.98530988"><ele></ele><time>2014-5-10T0:18:53Z</time></trkpt>
<trkpt lat="46.33034516" lon="6.98497728"><ele></ele><time>2014-5-10T0:18:56Z</time></trkpt>
<trkpt lat="46.33042714" lon="6.98474326"><ele></ele><time>2014-5-10T0:18:59Z</time></trkpt>
<trkpt lat="46.33057223" lon="6.98446624"><ele></ele><time>2014-5-10T0:19:2Z</time></trkpt>
<trkpt lat="46.33067415" lon="6.98417606"><ele></ele><time>2014-5-10T0:19:5Z</time></trkpt>
<trkpt lat="46.33075428" lon="6.98392100"><ele></ele><time>2014-5-10T0:19:8Z</time></trkpt>
<trkpt lat="46.33072293" lon="6.98368446"><ele></ele><time>2014-5-10T0:19:11Z</time></trkpt>
<trkpt lat="46.33056326" lon="6.98322538"><ele></ele><time>2014-5-10T0:19:14Z</time></trkpt>
<trkpt lat="46.33031172" lon="6.98267570"><ele></ele><time>2014-5-10T0:19:17Z</time></trkpt>
<trkpt lat="46.33007518" lon="6.98203775"><ele></ele><time>2014-5-10T0:19:20Z</time></trkpt>
<trkpt lat="46.33000377" lon="6.98167532"><ele></ele><time>2014-5-10T0:19:23Z</time></trkpt>
<trkpt lat="46.32998893" lon="6.98137784"><ele></ele><time>2014-5-10T0:19:26Z</time></trkpt>
<trkpt lat="46.32997116" lon="6.98122798"><ele></ele><time>2014-5-10T0:19:29Z</time></trkpt>
<trkpt lat="46.32990503" lon="6.98087979"><ele></ele><time>2014-5-10T0:19:32Z</time></trkpt>
<trkpt lat="46.32982884" lon="6.98044628"><ele></ele><time>2014-5-10T0:19:35Z</time></trkpt>
<trkpt lat="46.32975784" lon="6.98013707"><ele></ele><time>2014-5-10T0:19:38Z</time></trkpt>
<trkpt lat="46.32972750" lon="6.97992333"><ele></ele><time>2014-5-10T0:19:41Z</time></trkpt>
<trkpt lat="46.32978584" lon="6.97969878"><ele></ele><time>2014-5-10T0:19:44Z</time></trkpt>
<trkpt lat="46.32985566" lon="6.97964882"><ele></ele><time>2014-5-10T0:19:47Z</time></trkpt>
<trkpt lat="46.32997426" lon="6.97954338"><ele></ele><time>2014-5-10T0:19:50Z</time></trkpt>
<trkpt lat="46.33005045" lon="6.97948202"><ele></ele><time>2014-5-10T0:19:53Z</time></trkpt>
<trkpt lat="46.33012396" lon="6.97943006"><ele></ele><time>2014-5-10T0:19:56Z</time></trkpt>
<trkpt lat="46.33023595" lon="6.97931564"><ele></ele><time>2014-5-10T0:19:59Z</time></trkpt>
<trkpt lat="46.33037433" lon="6.97921674"><ele></ele><time>2014-5-10T0:20:2Z</time></trkpt>
<trkpt lat="46.33050936" lon="6.97912445"><ele></ele><time>2014-5-10T0:20:5Z</time></trkpt>
<trkpt lat="46.33062948" lon="6.97903384"><ele></ele><time>2014-5-10T0:20:8Z</time></trkpt>
<trkpt lat="46.33068798" lon="6.97898448"><ele></ele><time>2014-5-10T0:20:11Z</time></trkpt>
<trkpt lat="46.33079309" lon="6.97887794"><ele></ele><time>2014-5-10T0:20:14Z</time></trkpt>
<trkpt lat="46.33086853" lon="6.97880762"><ele></ele><time>2014-5-10T0:20:17Z</time></trkpt>
<trkpt lat="46.33090910" lon="6.97884827"><ele></ele><time>2014-5-10T0:20:20Z</time></trkpt>
<trkpt lat="46.33085688" lon="6.97898213"><ele></ele><time>2014-5-10T0:20:23Z</time></trkpt>
<trkpt lat="46.33080105" lon="6.97910266"><ele></ele><time>2014-5-10T0:20:26Z</time></trkpt>
<trkpt lat="46.33079695" lon="6.97911716"><ele></ele><time>2014-5-10T0:20:29Z</time></trkpt>
<trkpt lat="46.33078194" lon="6.97914046"><ele></ele><time>2014-5-10T0:20:32Z</time></trkpt>
<trkpt lat="46.33071966" lon="6.97926929"><ele></ele><time>2014-5-10T0:20:35Z</time></trkpt>
<trkpt lat="46.33067323" lon="6.97937910"><ele></ele><time>2014-5-10T0:20:38Z</time></trkpt>
<trkpt lat="46.33064725" lon="6.97948663"><ele></ele><time>2014-5-10T0:20:41Z</time></trkpt>
<trkpt lat="46.33063425" lon="6.97965126"><ele></ele><time>2014-5-10T0:20:44Z</time></trkpt>
<trkpt lat="46.33062495" lon="6.97976508"><ele></ele><time>2014-5-10T0:20:47Z</time></trkpt>
<trkpt lat="46.33064825" lon="6.97990850"><ele></ele><time>2014-5-10T0:20:50Z</time></trkpt>
<trkpt lat="46.33063325" lon="6.98008787"><ele></ele><time>2014-5-10T0:20:53Z</time></trkpt>
<trkpt lat="46.33063593" lon="6.98016984"><ele></ele><time>2014-5-10T0:20:56Z</time></trkpt>
<trkpt lat="46.33069427" lon="6.98017504"><ele></ele><time>2014-5-10T0:20:59Z</time></trkpt>
<trkpt lat="46.33074515" lon="6.98009147"><ele></ele><time>2014-5-10T0:21:2Z</time></trkpt>
<trkpt lat="46.33079443" lon="6.97998812"><ele></ele><time>2014-5-10T0:21:5Z</time></trkpt>
<trkpt lat="46.33082645" lon="6.97989198"><ele></ele><time>2014-5-10T0:21:8Z</time></trkpt>
<trkpt lat="46.33083399" lon="6.97986893"><ele></ele><time>2014-5-10T0:21:11Z</time></trkpt>
<trkpt lat="46.33090205" lon="6.97973005"><ele></ele><time>2014-5-10T0:21:14Z</time></trkpt>
<trkpt lat="46.33098009" lon="6.97955193"><ele></ele><time>2014-5-10T0:21:17Z</time></trkpt>
<trkpt lat="46.33102284" lon="6.97940039"><ele></ele><time>2014-5-10T0:21:20Z</time></trkpt>
<trkpt lat="46.33110959" lon="6.97923417"><ele></ele><time>2014-5-10T0:21:23Z</time></trkpt>
<trkpt lat="46.33120062" lon="6.97914423"><ele></ele><time>2014-5-10T0:21:26Z</time></trkpt>
<trkpt lat="46.33123909" lon="6.97923937"><ele></ele><time>2014-5-10T0:21:29Z</time></trkpt>
<trkpt lat="46.33121772" lon="6.97931095"><ele></ele><time>2014-5-10T0:21:32Z</time></trkpt>
<trkpt lat="46.33118377" lon="6.97946115"><ele></ele><time>2014-5-10T0:21:35Z</time></trkpt>
<trkpt lat="46.33117690" lon="6.97962133"><ele></ele><time>2014-5-10T0:21:38Z</time></trkpt>
<trkpt lat="46.33118888" lon="6.97977514"><ele></ele><time>2014-5-10T0:21:41Z</time></trkpt>
<trkpt lat="46.33120003" lon="6.97993146"><ele></ele><time>2014-5-10T0:21:44Z</time></trkpt>
<trkpt lat="46.33121227" lon="6.98009659"><ele></ele><time>2014-5-10T0:21:47Z</time></trkpt>
<trkpt lat="46.33122157" lon="6.98027059"><ele></ele><time>2014-5-10T0:21:50Z</time></trkpt>
<trkpt lat="46.33122652" lon="6.98046145"><ele></ele><time>2014-5-10T0:21:53Z</time></trkpt>
<trkpt lat="46.33123255" lon="6.98067125"><ele></ele><time>2014-5-10T0:21:56Z</time></trkpt>
<trkpt lat="46.33123297" lon="6.98086462"><ele></ele><time>2014-5-10T0:21:59Z</time></trkpt>
<trkpt lat="46.33124605" lon="6.98097870"><ele></ele><time>2014-5-10T0:22:2Z</time></trkpt>
<trkpt lat="46.33125912" lon="6.98116167"><ele></ele><time>2014-5-10T0:22:5Z</time></trkpt>
<trkpt lat="46.33126826" lon="6.98126419"><ele></ele><time>2014-5-10T0:22:8Z</time></trkpt>
<trkpt lat="46.33128863" lon="6.98141078"><ele></ele><time>2014-5-10T0:22:11Z</time></trkpt>
<trkpt lat="46.33130196" lon="6.98158127"><ele></ele><time>2014-5-10T0:22:14Z</time></trkpt>
<trkpt lat="46.33133297" lon="6.98175813"><ele></ele><time>2014-5-10T0:22:17Z</time></trkpt>
<trkpt lat="46.33136373" lon="6.98182435"><ele></ele><time>2014-5-10T0:22:20Z</time></trkpt>
<trkpt lat="46.33142123" lon="6.98199727"><ele></ele><time>2014-5-10T0:22:23Z</time></trkpt>
<trkpt lat="46.33147362" lon="6.98211688"><ele></ele><time>2014-5-10T0:22:26Z</time></trkpt>
<trkpt lat="46.33153858" lon="6.98224705"><ele></ele><time>2014-5-10T0:22:29Z</time></trkpt>
<trkpt lat="46.33155056" lon="6.98229088"><ele></ele><time>2014-5-10T0:22:32Z</time></trkpt>
<trkpt lat="46.33158409" lon="6.98236775"><ele></ele><time>2014-5-10T0:22:35Z</time></trkpt>
<trkpt lat="46.33166456" lon="6.98255282"><ele></ele><time>2014-5-10T0:22:38Z</time></trkpt>
<trkpt lat="46.33175835" lon="6.98269925"><ele></ele><time>2014-5-10T0:22:41Z</time></trkpt>
<trkpt lat="46.33184963" lon="6.98285775"><ele></ele><time>2014-5-10T0:22:44Z</time></trkpt>
<trkpt lat="46.33191115" lon="6.98300729"><ele></ele><time>2014-5-10T0:22:47Z</time></trkpt>
<trkpt lat="46.33196429" lon="6.98319722"><ele></ele><time>2014-5-10T0:22:50Z</time></trkpt>
<trkpt lat="46.33197687" lon="6.98332387"><ele></ele><time>2014-5-10T0:22:53Z</time></trkpt>
<trkpt lat="46.33199145" lon="6.98350123"><ele></ele><time>2014-5-10T0:22:56Z</time></trkpt>
<trkpt lat="46.33203797" lon="6.98363752"><ele></ele><time>2014-5-10T0:22:59Z</time></trkpt>
<trkpt lat="46.33208407" lon="6.98378605"><ele></ele><time>2014-5-10T0:23:2Z</time></trkpt>
<trkpt lat="46.33211802" lon="6.98395327"><ele></ele><time>2014-5-10T0:23:5Z</time></trkpt>
<trkpt lat="46.33212447" lon="6.98412426"><ele></ele><time>2014-5-10T0:23:8Z</time></trkpt>
<trkpt lat="46.33211827" lon="6.98427077"><ele></ele><time>2014-5-10T0:23:11Z</time></trkpt>
<trkpt lat="46.33210796" lon="6.98440874"><ele></ele><time>2014-5-10T0:23:14Z</time></trkpt>
<trkpt lat="46.33210536" lon="6.98448803"><ele></ele><time>2014-5-10T0:23:17Z</time></trkpt>
<trkpt lat="46.33216144" lon="6.98468962"><ele></ele><time>2014-5-10T0:23:20Z</time></trkpt>
<trkpt lat="46.33220125" lon="6.98490947"><ele></ele><time>2014-5-10T0:23:23Z</time></trkpt>
<trkpt lat="46.33218524" lon="6.98511827"><ele></ele><time>2014-5-10T0:23:26Z</time></trkpt>
<trkpt lat="46.33216152" lon="6.98527493"><ele></ele><time>2014-5-10T0:23:29Z</time></trkpt>
<trkpt lat="46.33213084" lon="6.98541809"><ele></ele><time>2014-5-10T0:23:32Z</time></trkpt>
<trkpt lat="46.33210184" lon="6.98557273"><ele></ele><time>2014-5-10T0:23:35Z</time></trkpt>
<trkpt lat="46.33208759" lon="6.98571900"><ele></ele><time>2014-5-10T0:23:38Z</time></trkpt>
<trkpt lat="46.33209522" lon="6.98590843"><ele></ele><time>2014-5-10T0:23:41Z</time></trkpt>
<trkpt lat="46.33209815" lon="6.98610222"><ele></ele><time>2014-5-10T0:23:44Z</time></trkpt>
<trkpt lat="46.33210394" lon="6.98628335"><ele></ele><time>2014-5-10T0:23:47Z</time></trkpt>
<trkpt lat="46.33210268" lon="6.98644185"><ele></ele><time>2014-5-10T0:23:50Z</time></trkpt>
<trkpt lat="46.33210402" lon="6.98658468"><ele></ele><time>2014-5-10T0:23:53Z</time></trkpt>
<trkpt lat="46.33214878" lon="6.98664486"><ele></ele><time>2014-5-10T0:23:56Z</time></trkpt>
<trkpt lat="46.33218239" lon="6.98658125"><ele></ele><time>2014-5-10T0:23:59Z</time></trkpt>
<trkpt lat="46.33216144" lon="6.98654638"><ele></ele><time>2014-5-10T0:24:2Z</time></trkpt>
<trkpt lat="46.33214467" lon="6.98667655"><ele></ele><time>2014-5-10T0:24:5Z</time></trkpt>
<trkpt lat="46.33214476" lon="6.98681359"><ele></ele><time>2014-5-10T0:24:8Z</time></trkpt>
<trkpt lat="46.33215490" lon="6.98695893"><ele></ele><time>2014-5-10T0:24:11Z</time></trkpt>
<trkpt lat="46.33215347" lon="6.98700093"><ele></ele><time>2014-5-10T0:24:14Z</time></trkpt>
<trkpt lat="46.33213629" lon="6.98740594"><ele></ele><time>2014-5-10T0:24:17Z</time></trkpt>
<trkpt lat="46.33211517" lon="6.98762479"><ele></ele><time>2014-5-10T0:24:20Z</time></trkpt>
<trkpt lat="46.33208156" lon="6.98787709"><ele></ele><time>2014-5-10T0:24:23Z</time></trkpt>
<trkpt lat="46.33212020" lon="6.98787969"><ele></ele><time>2014-5-10T0:24:26Z</time></trkpt>
<trkpt lat="46.33211835" lon="6.98785236"><ele></ele><time>2014-5-10T0:24:29Z</time></trkpt>
<trkpt lat="46.33211986" lon="6.98756293"><ele></ele><time>2014-5-10T0:24:32Z</time></trkpt>
<trkpt lat="46.33214878" lon="6.98708852"><ele></ele><time>2014-5-10T0:24:35Z</time></trkpt>
<trkpt lat="46.33215263" lon="6.98693580"><ele></ele><time>2014-5-10T0:24:38Z</time></trkpt>
<trkpt lat="46.33215339" lon="6.98678224"><ele></ele><time>2014-5-10T0:24:41Z</time></trkpt>
<trkpt lat="46.33220318" lon="6.98612954"><ele></ele><time>2014-5-10T0:24:44Z</time></trkpt>
<trkpt lat="46.33221374" lon="6.98604623"><ele></ele><time>2014-5-10T0:24:47Z</time></trkpt>
<trkpt lat="46.33238138" lon="6.98541792"><ele></ele><time>2014-5-10T0:24:50Z</time></trkpt>
<trkpt lat="46.33244005" lon="6.98510846"><ele></ele><time>2014-5-10T0:24:53Z</time></trkpt>
<trkpt lat="46.33240334" lon="6.98465399"><ele></ele><time>2014-5-10T0:24:56Z</time></trkpt>
<trkpt lat="46.33239713" lon="6.98449742"><ele></ele><time>2014-5-10T0:24:59Z</time></trkpt>
<trkpt lat="46.33242982" lon="6.98394103"><ele></ele><time>2014-5-10T0:25:2Z</time></trkpt>
<trkpt lat="46.33239412" lon="6.98370558"><ele></ele><time>2014-5-10T0:25:5Z</time></trkpt>
<trkpt lat="46.33237802" lon="6.98339755"><ele></ele><time>2014-5-10T0:25:8Z</time></trkpt>
<trkpt lat="46.33238364" lon="6.98320007"><ele></ele><time>2014-5-10T0:25:11Z</time></trkpt>
<trkpt lat="46.33231759" lon="6.98286722"><ele></ele><time>2014-5-10T0:25:14Z</time></trkpt>
<trkpt lat="46.33221676" lon="6.98250965"><ele></ele><time>2014-5-10T0:25:17Z</time></trkpt>
<trkpt lat="46.33219999" lon="6.98242298"><ele></ele><time>2014-5-10T0:25:20Z</time></trkpt>
<trkpt lat="46.33215942" lon="6.98223137"><ele></ele><time>2014-5-10T0:25:23Z</time></trkpt>
<trkpt lat="46.33213696" lon="6.98204136"><ele></ele><time>2014-5-10T0:25:26Z</time></trkpt>
<trkpt lat="46.33211249" lon="6.98190423"><ele></ele><time>2014-5-10T0:25:29Z</time></trkpt>
<trkpt lat="46.33211056" lon="6.98180415"><ele></ele><time>2014-5-10T0:25:32Z</time></trkpt>
<trkpt lat="46.33210352" lon="6.98156945"><ele></ele><time>2014-5-10T0:25:35Z</time></trkpt>
<trkpt lat="46.33210285" lon="6.98129704"><ele></ele><time>2014-5-10T0:25:38Z</time></trkpt>
<trkpt lat="46.33210402" lon="6.98125245"><ele></ele><time>2014-5-10T0:25:41Z</time></trkpt>
<trkpt lat="46.33211617" lon="6.98102714"><ele></ele><time>2014-5-10T0:25:44Z</time></trkpt>
<trkpt lat="46.33214266" lon="6.98085029"><ele></ele><time>2014-5-10T0:25:47Z</time></trkpt>
<trkpt lat="46.33223260" lon="6.98058735"><ele></ele><time>2014-5-10T0:25:50Z</time></trkpt>
<trkpt lat="46.33233159" lon="6.98032055"><ele></ele><time>2014-5-10T0:25:53Z</time></trkpt>
<trkpt lat="46.33237937" lon="6.98014009"><ele></ele><time>2014-5-10T0:25:56Z</time></trkpt>
<trkpt lat="46.33245564" lon="6.97995384"><ele></ele><time>2014-5-10T0:25:59Z</time></trkpt>
<trkpt lat="46.33250509" lon="6.97986013"><ele></ele><time>2014-5-10T0:26:2Z</time></trkpt>
<trkpt lat="46.33263082" lon="6.97971848"><ele></ele><time>2014-5-10T0:26:5Z</time></trkpt>
<trkpt lat="46.33271355" lon="6.97967053"><ele></ele><time>2014-5-10T0:26:8Z</time></trkpt>
<trkpt lat="46.33278807" lon="6.97965813"><ele></ele><time>2014-5-10T0:26:11Z</time></trkpt>
<trkpt lat="46.33288614" lon="6.97961354"><ele></ele><time>2014-5-10T0:26:14Z</time></trkpt>
<trkpt lat="46.33301388" lon="6.97954967"><ele></ele><time>2014-5-10T0:26:17Z</time></trkpt>
<trkpt lat="46.33312779" lon="6.97950063"><ele></ele><time>2014-5-10T0:26:20Z</time></trkpt>
<trkpt lat="46.33316115" lon="6.97946174"><ele></ele><time>2014-5-10T0:26:23Z</time></trkpt>
<trkpt lat="46.33318562" lon="6.97943375"><ele></ele><time>2014-5-10T0:26:26Z</time></trkpt>
<trkpt lat="46.33324195" lon="6.97939653"><ele></ele><time>2014-5-10T0:26:29Z</time></trkpt>
<trkpt lat="46.33329559" lon="6.97937348"><ele></ele><time>2014-5-10T0:26:32Z</time></trkpt>
<trkpt lat="46.33338327" lon="6.97935345"><ele></ele><time>2014-5-10T0:26:35Z</time></trkpt>
<trkpt lat="46.33340925" lon="6.97935269"><ele></ele><time>2014-5-10T0:26:38Z</time></trkpt>
<trkpt lat="46.33356012" lon="6.97932889"><ele></ele><time>2014-5-10T0:26:41Z</time></trkpt>
<trkpt lat="46.33360916" lon="6.97929754"><ele></ele><time>2014-5-10T0:26:44Z</time></trkpt>
<trkpt lat="46.33370262" lon="6.97927340"><ele></ele><time>2014-5-10T0:26:47Z</time></trkpt>
<trkpt lat="46.33376188" lon="6.97924649"><ele></ele><time>2014-5-10T0:26:50Z</time></trkpt>
<trkpt lat="46.33384377" lon="6.97920928"><ele></ele><time>2014-5-10T0:26:53Z</time></trkpt>
<trkpt lat="46.33401426" lon="6.97913216"><ele></ele><time>2014-5-10T0:26:56Z</time></trkpt>
<trkpt lat="46.33416387" lon="6.97903058"><ele></ele><time>2014-5-10T0:26:59Z</time></trkpt>
<trkpt lat="46.33424149" lon="6.97898188"><ele></ele><time>2014-5-10T0:27:2Z</time></trkpt>
<trkpt lat="46.33429312" lon="6.97893712"><ele></ele><time>2014-5-10T0:27:5Z</time></trkpt>
<trkpt lat="46.33435515" lon="6.97889647"><ele></ele><time>2014-5-10T0:27:8Z</time></trkpt>
<trkpt lat="46.33443587" lon="6.97881642"><ele></ele><time>2014-5-10T0:27:11Z</time></trkpt>
<trkpt lat="46.33454265" lon="6.97871734"><ele></ele><time>2014-5-10T0:27:14Z</time></trkpt>
<trkpt lat="46.33466746" lon="6.97863696"><ele></ele><time>2014-5-10T0:27:17Z</time></trkpt>
<trkpt lat="46.33481473" lon="6.97854384"><ele></ele><time>2014-5-10T0:27:20Z</time></trkpt>
<trkpt lat="46.33496493" lon="6.97848869"><ele></ele><time>2014-5-10T0:27:23Z</time></trkpt>
<trkpt lat="46.33511698" lon="6.97843479"><ele></ele><time>2014-5-10T0:27:26Z</time></trkpt>
<trkpt lat="46.33530666" lon="6.97843068"><ele></ele><time>2014-5-10T0:27:29Z</time></trkpt>
<trkpt lat="46.33542200" lon="6.97837075"><ele></ele><time>2014-5-10T0:27:32Z</time></trkpt>
<trkpt lat="46.33549970" lon="6.97832742"><ele></ele><time>2014-5-10T0:27:35Z</time></trkpt>
<trkpt lat="46.33563942" lon="6.97824737"><ele></ele><time>2014-5-10T0:27:38Z</time></trkpt>
<trkpt lat="46.33575325" lon="6.97818954"><ele></ele><time>2014-5-10T0:27:41Z</time></trkpt>
<trkpt lat="46.33587839" lon="6.97813656"><ele></ele><time>2014-5-10T0:27:44Z</time></trkpt>
<trkpt lat="46.33600093" lon="6.97809943"><ele></ele><time>2014-5-10T0:27:47Z</time></trkpt>
<trkpt lat="46.33606154" lon="6.97810706"><ele></ele><time>2014-5-10T0:27:50Z</time></trkpt>
<trkpt lat="46.33618316" lon="6.97810882"><ele></ele><time>2014-5-10T0:27:53Z</time></trkpt>
<trkpt lat="46.33621115" lon="6.97810639"><ele></ele><time>2014-5-10T0:27:56Z</time></trkpt>
<trkpt lat="46.33630897" lon="6.97810706"><ele></ele><time>2014-5-10T0:27:59Z</time></trkpt>
<trkpt lat="46.33643193" lon="6.97809557"><ele></ele><time>2014-5-10T0:28:2Z</time></trkpt>
<trkpt lat="46.33645180" lon="6.97810186"><ele></ele><time>2014-5-10T0:28:5Z</time></trkpt>
<trkpt lat="46.33654299" lon="6.97813019"><ele></ele><time>2014-5-10T0:28:8Z</time></trkpt>
<trkpt lat="46.33664642" lon="6.97814536"><ele></ele><time>2014-5-10T0:28:11Z</time></trkpt>
<trkpt lat="46.33667216" lon="6.97814989"><ele></ele><time>2014-5-10T0:28:14Z</time></trkpt>
<trkpt lat="46.33674776" lon="6.97816439"><ele></ele><time>2014-5-10T0:28:17Z</time></trkpt>
<trkpt lat="46.33681063" lon="6.97816749"><ele></ele><time>2014-5-10T0:28:20Z</time></trkpt>
<trkpt lat="46.33684910" lon="6.97816934"><ele></ele><time>2014-5-10T0:28:23Z</time></trkpt>
<trkpt lat="46.33691967" lon="6.97819104"><ele></ele><time>2014-5-10T0:28:26Z</time></trkpt>
<trkpt lat="46.33694918" lon="6.97819104"><ele></ele><time>2014-5-10T0:28:29Z</time></trkpt>
<trkpt lat="46.33693024" lon="6.97826950"><ele></ele><time>2014-5-10T0:28:32Z</time></trkpt>
<trkpt lat="46.33693032" lon="6.97828459"><ele></ele><time>2014-5-10T0:28:35Z</time></trkpt>
<trkpt lat="46.33686000" lon="6.97843965"><ele></ele><time>2014-5-10T0:28:38Z</time></trkpt>
<trkpt lat="46.33687869" lon="6.97850436"><ele></ele><time>2014-5-10T0:28:41Z</time></trkpt>
<trkpt lat="46.33694063" lon="6.97856538"><ele></ele><time>2014-5-10T0:28:44Z</time></trkpt>
<trkpt lat="46.33695714" lon="6.97857192"><ele></ele><time>2014-5-10T0:28:47Z</time></trkpt>
<trkpt lat="46.33698246" lon="6.97858432"><ele></ele><time>2014-5-10T0:28:50Z</time></trkpt>
<trkpt lat="46.33705303" lon="6.97861324"><ele></ele><time>2014-5-10T0:28:53Z</time></trkpt>
<trkpt lat="46.33708145" lon="6.97858005"><ele></ele><time>2014-5-10T0:28:56Z</time></trkpt>
<trkpt lat="46.33715806" lon="6.97854820"><ele></ele><time>2014-5-10T0:28:59Z</time></trkpt>
<trkpt lat="46.33723785" lon="6.97857267"><ele></ele><time>2014-5-10T0:29:2Z</time></trkpt>
<trkpt lat="46.33727138" lon="6.97856949"><ele></ele><time>2014-5-10T0:29:5Z</time></trkpt>
<trkpt lat="46.33732385" lon="6.97855448"><ele></ele><time>2014-5-10T0:29:8Z</time></trkpt>
<trkpt lat="46.33738638" lon="6.97853060"><ele></ele><time>2014-5-10T0:29:11Z</time></trkpt>
<trkpt lat="46.33742292" lon="6.97854417"><ele></ele><time>2014-5-10T0:29:14Z</time></trkpt>
<trkpt lat="46.33742292" lon="6.97865146"><ele></ele><time>2014-5-10T0:29:17Z</time></trkpt>
<trkpt lat="46.33743558" lon="6.97867066"><ele></ele><time>2014-5-10T0:29:20Z</time></trkpt>
<trkpt lat="46.33745947" lon="6.97869119"><ele></ele><time>2014-5-10T0:29:23Z</time></trkpt>
<trkpt lat="46.33749953" lon="6.97877442"><ele></ele><time>2014-5-10T0:29:26Z</time></trkpt>
<trkpt lat="46.33751638" lon="6.97882178"><ele></ele><time>2014-5-10T0:29:29Z</time></trkpt>
<trkpt lat="46.33752208" lon="6.97884886"><ele></ele><time>2014-5-10T0:29:32Z</time></trkpt>
<trkpt lat="46.33755226" lon="6.97892220"><ele></ele><time>2014-5-10T0:29:35Z</time></trkpt>
<trkpt lat="46.33759157" lon="6.97895447"><ele></ele><time>2014-5-10T0:29:38Z</time></trkpt>
<trkpt lat="46.33764395" lon="6.97901767"><ele></ele><time>2014-5-10T0:29:41Z</time></trkpt>
<trkpt lat="46.33769299" lon="6.97906519"><ele></ele><time>2014-5-10T0:29:44Z</time></trkpt>
<trkpt lat="46.33776893" lon="6.97907357"><ele></ele><time>2014-5-10T0:29:47Z</time></trkpt>
<trkpt lat="46.33786683" lon="6.97910124"><ele></ele><time>2014-5-10T0:29:50Z</time></trkpt>
<trkpt lat="46.33793003" lon="6.97911364"><ele></ele><time>2014-5-10T0:29:53Z</time></trkpt>
<trkpt lat="46.33796473" lon="6.97913543"><ele></ele><time>2014-5-10T0:29:56Z</time></trkpt>
<trkpt lat="46.33796859" lon="6.97916569"><ele></ele><time>2014-5-10T0:29:59Z</time></trkpt>
<trkpt lat="46.33797387" lon="6.97918430"><ele></ele><time>2014-5-10T0:30:2Z</time></trkpt>
<trkpt lat="46.33803757" lon="6.97920433"><ele></ele><time>2014-5-10T0:30:5Z</time></trkpt>
<trkpt lat="46.33807872" lon="6.97920685"><ele></ele><time>2014-5-10T0:30:8Z</time></trkpt>
<trkpt lat="46.33811225" lon="6.97919603"><ele></ele><time>2014-5-10T0:30:11Z</time></trkpt>
<trkpt lat="46.33816715" lon="6.97919352"><ele></ele><time>2014-5-10T0:30:14Z</time></trkpt>
<trkpt lat="46.33819037" lon="6.97919419"><ele></ele><time>2014-5-10T0:30:17Z</time></trkpt>
<trkpt lat="46.33824779" lon="6.97918388"><ele></ele><time>2014-5-10T0:30:20Z</time></trkpt>
<trkpt lat="46.33833773" lon="6.97918380"><ele></ele><time>2014-5-10T0:30:23Z</time></trkpt>
<trkpt lat="46.33836287" lon="6.97919838"><ele></ele><time>2014-5-10T0:30:26Z</time></trkpt>
<trkpt lat="46.33848944" lon="6.97921808"><ele></ele><time>2014-5-10T0:30:29Z</time></trkpt>
<trkpt lat="46.33857225" lon="6.97922118"><ele></ele><time>2014-5-10T0:30:32Z</time></trkpt>
<trkpt lat="46.33864802" lon="6.97913753"><ele></ele><time>2014-5-10T0:30:35Z</time></trkpt>
<trkpt lat="46.33862070" lon="6.97914189"><ele></ele><time>2014-5-10T0:30:38Z</time></trkpt>
<trkpt lat="46.33863143" lon="6.97916477"><ele></ele><time>2014-5-10T0:30:41Z</time></trkpt>
<trkpt lat="46.33867878" lon="6.97919436"><ele></ele><time>2014-5-10T0:30:44Z</time></trkpt>
<trkpt lat="46.33869303" lon="6.97924406"><ele></ele><time>2014-5-10T0:30:47Z</time></trkpt>
<trkpt lat="46.33874006" lon="6.97928153"><ele></ele><time>2014-5-10T0:30:50Z</time></trkpt>
<trkpt lat="46.33880954" lon="6.97932294"><ele></ele><time>2014-5-10T0:30:53Z</time></trkpt>
<trkpt lat="46.33884785" lon="6.97937272"><ele></ele><time>2014-5-10T0:30:56Z</time></trkpt>
<trkpt lat="46.33889428" lon="6.97944682"><ele></ele><time>2014-5-10T0:30:59Z</time></trkpt>
<trkpt lat="46.33891113" lon="6.97946317"><ele></ele><time>2014-5-10T0:31:2Z</time></trkpt>
<trkpt lat="46.33895589" lon="6.97949778"><ele></ele><time>2014-5-10T0:31:5Z</time></trkpt>
<trkpt lat="46.33897643" lon="6.97952452"><ele></ele><time>2014-5-10T0:31:8Z</time></trkpt>
<trkpt lat="46.33899537" lon="6.97953098"><ele></ele><time>2014-5-10T0:31:11Z</time></trkpt>
<trkpt lat="46.33900819" lon="6.97953776"><ele></ele><time>2014-5-10T0:31:14Z</time></trkpt>
<trkpt lat="46.33906343" lon="6.97955662"><ele></ele><time>2014-5-10T0:31:17Z</time></trkpt>
<trkpt lat="46.33909042" lon="6.97957749"><ele></ele><time>2014-5-10T0:31:20Z</time></trkpt>
<trkpt lat="46.33912596" lon="6.97958554"><ele></ele><time>2014-5-10T0:31:23Z</time></trkpt>
<trkpt lat="46.33919352" lon="6.97963449"><ele></ele><time>2014-5-10T0:31:26Z</time></trkpt>
<trkpt lat="46.33926074" lon="6.97967146"><ele></ele><time>2014-5-10T0:31:29Z</time></trkpt>
<trkpt lat="46.33929192" lon="6.97968990"><ele></ele><time>2014-5-10T0:31:32Z</time></trkpt>
<trkpt lat="46.33933743" lon="6.97970565"><ele></ele><time>2014-5-10T0:31:35Z</time></trkpt>
<trkpt lat="46.33934808" lon="6.97972686"><ele></ele><time>2014-5-10T0:31:38Z</time></trkpt>
<trkpt lat="46.33940692" lon="6.97975603"><ele></ele><time>2014-5-10T0:31:41Z</time></trkpt>
<trkpt lat="46.33945487" lon="6.97978545"><ele></ele><time>2014-5-10T0:31:44Z</time></trkpt>
<trkpt lat="46.33949250" lon="6.97978520"><ele></ele><time>2014-5-10T0:31:47Z</time></trkpt>
<trkpt lat="46.33952586" lon="6.97977472"><ele></ele><time>2014-5-10T0:31:50Z</time></trkpt>
<trkpt lat="46.33955159" lon="6.97977858"><ele></ele><time>2014-5-10T0:31:53Z</time></trkpt>
<trkpt lat="46.33959644" lon="6.97979283"><ele></ele><time>2014-5-10T0:31:56Z</time></trkpt>
<trkpt lat="46.33965653" lon="6.97981202"><ele></ele><time>2014-5-10T0:31:59Z</time></trkpt>
<trkpt lat="46.33968788" lon="6.97981202"><ele></ele><time>2014-5-10T0:32:2Z</time></trkpt>
<trkpt lat="46.33971370" lon="6.97981068"><ele></ele><time>2014-5-10T0:32:5Z</time></trkpt>
<trkpt lat="46.33977363" lon="6.97980992"><ele></ele><time>2014-5-10T0:32:8Z</time></trkpt>
<trkpt lat="46.33979894" lon="6.97982702"><ele></ele><time>2014-5-10T0:32:11Z</time></trkpt>
<trkpt lat="46.33985158" lon="6.97985183"><ele></ele><time>2014-5-10T0:32:14Z</time></trkpt>
<trkpt lat="46.33987438" lon="6.97986105"><ele></ele><time>2014-5-10T0:32:17Z</time></trkpt>
<trkpt lat="46.33994135" lon="6.97987673"><ele></ele><time>2014-5-10T0:32:20Z</time></trkpt>
<trkpt lat="46.34001209" lon="6.97992275"><ele></ele><time>2014-5-10T0:32:23Z</time></trkpt>
<trkpt lat="46.34003858" lon="6.97993306"><ele></ele><time>2014-5-10T0:32:26Z</time></trkpt>
<trkpt lat="46.34012743" lon="6.98000397"><ele></ele><time>2014-5-10T0:32:29Z</time></trkpt>
<trkpt lat="46.34017345" lon="6.98002936"><ele></ele><time>2014-5-10T0:32:32Z</time></trkpt>
<trkpt lat="46.34022499" lon="6.98005962"><ele></ele><time>2014-5-10T0:32:35Z</time></trkpt>
<trkpt lat="46.34028979" lon="6.98009382"><ele></ele><time>2014-5-10T0:32:38Z</time></trkpt>
<trkpt lat="46.34034888" lon="6.98009868"><ele></ele><time>2014-5-10T0:32:41Z</time></trkpt>
<trkpt lat="46.34044653" lon="6.98006758"><ele></ele><time>2014-5-10T0:32:44Z</time></trkpt>
<trkpt lat="46.34053663" lon="6.98003607"><ele></ele><time>2014-5-10T0:32:47Z</time></trkpt>
<trkpt lat="46.34058022" lon="6.98002735"><ele></ele><time>2014-5-10T0:32:50Z</time></trkpt>
<trkpt lat="46.34060486" lon="6.98000053"><ele></ele><time>2014-5-10T0:32:53Z</time></trkpt>
<trkpt lat="46.34067359" lon="6.98000095"><ele></ele><time>2014-5-10T0:32:56Z</time></trkpt>
<trkpt lat="46.34075926" lon="6.98000900"><ele></ele><time>2014-5-10T0:32:59Z</time></trkpt>
<trkpt lat="46.34078742" lon="6.98003012"><ele></ele><time>2014-5-10T0:33:2Z</time></trkpt>
<trkpt lat="46.34089613" lon="6.98001327"><ele></ele><time>2014-5-10T0:33:5Z</time></trkpt>
<trkpt lat="46.34101616" lon="6.98001704"><ele></ele><time>2014-5-10T0:33:8Z</time></trkpt>
<trkpt lat="46.34113016" lon="6.98001302"><ele></ele><time>2014-5-10T0:33:11Z</time></trkpt>
<trkpt lat="46.34120643" lon="6.97998695"><ele></ele><time>2014-5-10T0:33:14Z</time></trkpt>
<trkpt lat="46.34132420" lon="6.97999005"><ele></ele><time>2014-5-10T0:33:17Z</time></trkpt>
<trkpt lat="46.34138388" lon="6.97999475"><ele></ele><time>2014-5-10T0:33:20Z</time></trkpt>
<trkpt lat="46.34142973" lon="6.98002098"><ele></ele><time>2014-5-10T0:33:23Z</time></trkpt>
<trkpt lat="46.34154975" lon="6.97999592"><ele></ele><time>2014-5-10T0:33:26Z</time></trkpt>
<trkpt lat="46.34158487" lon="6.97997614"><ele></ele><time>2014-5-10T0:33:29Z</time></trkpt>
<trkpt lat="46.34166869" lon="6.97998947"><ele></ele><time>2014-5-10T0:33:32Z</time></trkpt>
<trkpt lat="46.34176668" lon="6.97993943"><ele></ele><time>2014-5-10T0:33:35Z</time></trkpt>
<trkpt lat="46.34194873" lon="6.97978436"><ele></ele><time>2014-5-10T0:33:38Z</time></trkpt>
<trkpt lat="46.34202543" lon="6.97970934"><ele></ele><time>2014-5-10T0:33:41Z</time></trkpt>
<trkpt lat="46.34212098" lon="6.97974429"><ele></ele><time>2014-5-10T0:33:44Z</time></trkpt>
<trkpt lat="46.34216096" lon="6.97978830"><ele></ele><time>2014-5-10T0:33:47Z</time></trkpt>
<trkpt lat="46.34220648" lon="6.97977137"><ele></ele><time>2014-5-10T0:33:50Z</time></trkpt>
<trkpt lat="46.34215744" lon="6.97976056"><ele></ele><time>2014-5-10T0:33:53Z</time></trkpt>
<trkpt lat="46.34212559" lon="6.97977388"><ele></ele><time>2014-5-10T0:33:56Z</time></trkpt>
<trkpt lat="46.34211143" lon="6.97975377"><ele></ele><time>2014-5-10T0:33:59Z</time></trkpt>
<trkpt lat="46.34215627" lon="6.97969585"><ele></ele><time>2014-5-10T0:34:2Z</time></trkpt>
<trkpt lat="46.34222307" lon="6.97975385"><ele></ele><time>2014-5-10T0:34:5Z</time></trkpt>
<trkpt lat="46.34225509" lon="6.97977137"><ele></ele><time>2014-5-10T0:34:8Z</time></trkpt>
<trkpt lat="46.34234578" lon="6.97975628"><ele></ele><time>2014-5-10T0:34:11Z</time></trkpt>
<trkpt lat="46.34246866" lon="6.97969610"><ele></ele><time>2014-5-10T0:34:14Z</time></trkpt>
<trkpt lat="46.34261216" lon="6.97968487"><ele></ele><time>2014-5-10T0:34:17Z</time></trkpt>
<trkpt lat="46.34273923" lon="6.97968964"><ele></ele><time>2014-5-10T0:34:20Z</time></trkpt>
<trkpt lat="46.34289086" lon="6.97965402"><ele></ele><time>2014-5-10T0:34:23Z</time></trkpt>
<trkpt lat="46.34296630" lon="6.97957993"><ele></ele><time>2014-5-10T0:34:26Z</time></trkpt>
<trkpt lat="46.34308582" lon="6.97943743"><ele></ele><time>2014-5-10T0:34:29Z</time></trkpt>
<trkpt lat="46.34318716" lon="6.97933517"><ele></ele><time>2014-5-10T0:34:32Z</time></trkpt>
<trkpt lat="46.34326997" lon="6.97924138"><ele></ele><time>2014-5-10T0:34:35Z</time></trkpt>
<trkpt lat="46.34336293" lon="6.97908338"><ele></ele><time>2014-5-10T0:34:38Z</time></trkpt>
<trkpt lat="46.34345152" lon="6.97892413"><ele></ele><time>2014-5-10T0:34:41Z</time></trkpt>
<trkpt lat="46.34351330" lon="6.97883285"><ele></ele><time>2014-5-10T0:34:44Z</time></trkpt>
<trkpt lat="46.34360315" lon="6.97871718"><ele></ele><time>2014-5-10T0:34:47Z</time></trkpt>
<trkpt lat="46.34365923" lon="6.97865926"><ele></ele><time>2014-5-10T0:34:50Z</time></trkpt>
<trkpt lat="46.34368974" lon="6.97861944"><ele></ele><time>2014-5-10T0:34:53Z</time></trkpt>
<trkpt lat="46.34376325" lon="6.97848718"><ele></ele><time>2014-5-10T0:34:56Z</time></trkpt>
<trkpt lat="46.34385402" lon="6.97836572"><ele></ele><time>2014-5-10T0:34:59Z</time></trkpt>
<trkpt lat="46.34393608" lon="6.97826833"><ele></ele><time>2014-5-10T0:35:2Z</time></trkpt>
<trkpt lat="46.34402937" lon="6.97818794"><ele></ele><time>2014-5-10T0:35:5Z</time></trkpt>
<trkpt lat="46.34404588" lon="6.97817395"><ele></ele><time>2014-5-10T0:35:8Z</time></trkpt>
<trkpt lat="46.34426884" lon="6.97806448"><ele></ele><time>2014-5-10T0:35:11Z</time></trkpt>
<trkpt lat="46.34439206" lon="6.97801234"><ele></ele><time>2014-5-10T0:35:14Z</time></trkpt>
<trkpt lat="46.34446892" lon="6.97796272"><ele></ele><time>2014-5-10T0:35:17Z</time></trkpt>
<trkpt lat="46.34456858" lon="6.97793565"><ele></ele><time>2014-5-10T0:35:20Z</time></trkpt>
<trkpt lat="46.34459062" lon="6.97793037"><ele></ele><time>2014-5-10T0:35:23Z</time></trkpt>
<trkpt lat="46.34473915" lon="6.97791285"><ele></ele><time>2014-5-10T0:35:26Z</time></trkpt>
<trkpt lat="46.34486237" lon="6.97790237"><ele></ele><time>2014-5-10T0:35:29Z</time></trkpt>
<trkpt lat="46.34497686" lon="6.97791335"><ele></ele><time>2014-5-10T0:35:32Z</time></trkpt>
<trkpt lat="46.34507904" lon="6.97791696"><ele></ele><time>2014-5-10T0:35:35Z</time></trkpt>
<trkpt lat="46.34520435" lon="6.97795912"><ele></ele><time>2014-5-10T0:35:38Z</time></trkpt>
<trkpt lat="46.34532102" lon="6.97807923"><ele></ele><time>2014-5-10T0:35:41Z</time></trkpt>
<trkpt lat="46.34541918" lon="6.97824226"><ele></ele><time>2014-5-10T0:35:44Z</time></trkpt>
<trkpt lat="46.34546385" lon="6.97836706"><ele></ele><time>2014-5-10T0:35:47Z</time></trkpt>
<trkpt lat="46.34551666" lon="6.97853537"><ele></ele><time>2014-5-10T0:35:50Z</time></trkpt>
<trkpt lat="46.34556636" lon="6.97877392"><ele></ele><time>2014-5-10T0:35:53Z</time></trkpt>
<trkpt lat="46.34564138" lon="6.97896863"><ele></ele><time>2014-5-10T0:35:56Z</time></trkpt>
<trkpt lat="46.34575739" lon="6.97911708"><ele></ele><time>2014-5-10T0:35:59Z</time></trkpt>
<trkpt lat="46.34593165" lon="6.97918816"><ele></ele><time>2014-5-10T0:36:2Z</time></trkpt>
<trkpt lat="46.34608218" lon="6.97916703"><ele></ele><time>2014-5-10T0:36:5Z</time></trkpt>
<trkpt lat="46.34621722" lon="6.97912630"><ele></ele><time>2014-5-10T0:36:8Z</time></trkpt>
<trkpt lat="46.34635895" lon="6.97900602"><ele></ele><time>2014-5-10T0:36:11Z</time></trkpt>
<trkpt lat="46.34647974" lon="6.97889294"><ele></ele><time>2014-5-10T0:36:14Z</time></trkpt>
<trkpt lat="46.34668878" lon="6.97866085"><ele></ele><time>2014-5-10T0:36:17Z</time></trkpt>
<trkpt lat="46.34678920" lon="6.97852909"><ele></ele><time>2014-5-10T0:36:20Z</time></trkpt>
<trkpt lat="46.34694133" lon="6.97838064"><ele></ele><time>2014-5-10T0:36:23Z</time></trkpt>
<trkpt lat="46.34707024" lon="6.97825089"><ele></ele><time>2014-5-10T0:36:26Z</time></trkpt>
<trkpt lat="46.34721642" lon="6.97809583"><ele></ele><time>2014-5-10T0:36:29Z</time></trkpt>
<trkpt lat="46.34736596" lon="6.97796448"><ele></ele><time>2014-5-10T0:36:32Z</time></trkpt>
<trkpt lat="46.34751507" lon="6.97784546"><ele></ele><time>2014-5-10T0:36:35Z</time></trkpt>
<trkpt lat="46.34763267" lon="6.97773607"><ele></ele><time>2014-5-10T0:36:38Z</time></trkpt>
<trkpt lat="46.34773585" lon="6.97761630"><ele></ele><time>2014-5-10T0:36:41Z</time></trkpt>
<trkpt lat="46.34785152" lon="6.97748395"><ele></ele><time>2014-5-10T0:36:44Z</time></trkpt>
<trkpt lat="46.34798127" lon="6.97734715"><ele></ele><time>2014-5-10T0:36:47Z</time></trkpt>
<trkpt lat="46.34815612" lon="6.97724439"><ele></ele><time>2014-5-10T0:36:50Z</time></trkpt>
<trkpt lat="46.34826944" lon="6.97723945"><ele></ele><time>2014-5-10T0:36:53Z</time></trkpt>
<trkpt lat="46.34840573" lon="6.97729485"><ele></ele><time>2014-5-10T0:36:56Z</time></trkpt>
<trkpt lat="46.34856096" lon="6.97738906"><ele></ele><time>2014-5-10T0:36:59Z</time></trkpt>
<trkpt lat="46.34871176" lon="6.97746626"><ele></ele><time>2014-5-10T0:37:2Z</time></trkpt>
<trkpt lat="46.34878468" lon="6.97750473"><ele></ele><time>2014-5-10T0:37:5Z</time></trkpt>
<trkpt lat="46.34890127" lon="6.97756668"><ele></ele><time>2014-5-10T0:37:8Z</time></trkpt>
<trkpt lat="46.34901568" lon="6.97762837"><ele></ele><time>2014-5-10T0:37:11Z</time></trkpt>
<trkpt lat="46.34914493" lon="6.97772752"><ele></ele><time>2014-5-10T0:37:14Z</time></trkpt>
<trkpt lat="46.34930444" lon="6.97781922"><ele></ele><time>2014-5-10T0:37:17Z</time></trkpt>
<trkpt lat="46.34946889" lon="6.97786432"><ele></ele><time>2014-5-10T0:37:20Z</time></trkpt>
<trkpt lat="46.34956227" lon="6.97790313"><ele></ele><time>2014-5-10T0:37:23Z</time></trkpt>
<trkpt lat="46.34963309" lon="6.97796306"><ele></ele><time>2014-5-10T0:37:26Z</time></trkpt>
<trkpt lat="46.34966813" lon="6.97798954"><ele></ele><time>2014-5-10T0:37:29Z</time></trkpt>
<trkpt lat="46.34981515" lon="6.97808996"><ele></ele><time>2014-5-10T0:37:32Z</time></trkpt>
<trkpt lat="46.34998505" lon="6.97820856"><ele></ele><time>2014-5-10T0:37:35Z</time></trkpt>
<trkpt lat="46.35014238" lon="6.97832373"><ele></ele><time>2014-5-10T0:37:38Z</time></trkpt>
<trkpt lat="46.35027087" lon="6.97842792"><ele></ele><time>2014-5-10T0:37:41Z</time></trkpt>
<trkpt lat="46.35037573" lon="6.97847754"><ele></ele><time>2014-5-10T0:37:44Z</time></trkpt>
<trkpt lat="46.35053013" lon="6.97854057"><ele></ele><time>2014-5-10T0:37:47Z</time></trkpt>
<trkpt lat="46.35066155" lon="6.97857318"><ele></ele><time>2014-5-10T0:37:50Z</time></trkpt>
<trkpt lat="46.35078678" lon="6.97857670"><ele></ele><time>2014-5-10T0:37:53Z</time></trkpt>
<trkpt lat="46.35091963" lon="6.97857125"><ele></ele><time>2014-5-10T0:37:56Z</time></trkpt>
<trkpt lat="46.35095576" lon="6.97855993"><ele></ele><time>2014-5-10T0:37:59Z</time></trkpt>
<trkpt lat="46.35100747" lon="6.97853680"><ele></ele><time>2014-5-10T0:38:2Z</time></trkpt>
<trkpt lat="46.35109389" lon="6.97853026"><ele></ele><time>2014-5-10T0:38:5Z</time></trkpt>
<trkpt lat="46.35121602" lon="6.97854443"><ele></ele><time>2014-5-10T0:38:8Z</time></trkpt>
<trkpt lat="46.35135306" lon="6.97856303"><ele></ele><time>2014-5-10T0:38:11Z</time></trkpt>
<trkpt lat="46.35151399" lon="6.97856714"><ele></ele><time>2014-5-10T0:38:14Z</time></trkpt>
<trkpt lat="46.35153235" lon="6.97857116"><ele></ele><time>2014-5-10T0:38:17Z</time></trkpt>
<trkpt lat="46.35169764" lon="6.97853085"><ele></ele><time>2014-5-10T0:38:20Z</time></trkpt>
<trkpt lat="46.35180627" lon="6.97850788"><ele></ele><time>2014-5-10T0:38:23Z</time></trkpt>
<trkpt lat="46.35192865" lon="6.97848408"><ele></ele><time>2014-5-10T0:38:26Z</time></trkpt>
<trkpt lat="46.35203929" lon="6.97843135"><ele></ele><time>2014-5-10T0:38:29Z</time></trkpt>
<trkpt lat="46.35217574" lon="6.97836673"><ele></ele><time>2014-5-10T0:38:32Z</time></trkpt>
<trkpt lat="46.35232050" lon="6.97828492"><ele></ele><time>2014-5-10T0:38:35Z</time></trkpt>
<trkpt lat="46.35247288" lon="6.97823773"><ele></ele><time>2014-5-10T0:38:38Z</time></trkpt>
<trkpt lat="46.35270054" lon="6.97814922"><ele></ele><time>2014-5-10T0:38:41Z</time></trkpt>
<trkpt lat="46.35289776" lon="6.97806749"><ele></ele><time>2014-5-10T0:38:44Z</time></trkpt>
<trkpt lat="46.35303179" lon="6.97799935"><ele></ele><time>2014-5-10T0:38:47Z</time></trkpt>
<trkpt lat="46.35318467" lon="6.97791235"><ele></ele><time>2014-5-10T0:38:50Z</time></trkpt>
<trkpt lat="46.35334963" lon="6.97781067"><ele></ele><time>2014-5-10T0:38:53Z</time></trkpt>
<trkpt lat="46.35351702" lon="6.97770028"><ele></ele><time>2014-5-10T0:38:56Z</time></trkpt>
<trkpt lat="46.35365733" lon="6.97760263"><ele></ele><time>2014-5-10T0:38:59Z</time></trkpt>
<trkpt lat="46.35382522" lon="6.97747682"><ele></ele><time>2014-5-10T0:39:2Z</time></trkpt>
<trkpt lat="46.35399059" lon="6.97736979"><ele></ele><time>2014-5-10T0:39:5Z</time></trkpt>
<trkpt lat="46.35417550" lon="6.97728513"><ele></ele><time>2014-5-10T0:39:8Z</time></trkpt>
<trkpt lat="46.35435982" lon="6.97720852"><ele></ele><time>2014-5-10T0:39:11Z</time></trkpt>
<trkpt lat="46.35448672" lon="6.97715655"><ele></ele><time>2014-5-10T0:39:14Z</time></trkpt>
<trkpt lat="46.35460323" lon="6.97710986"><ele></ele><time>2014-5-10T0:39:17Z</time></trkpt>
<trkpt lat="46.35474438" lon="6.97704499"><ele></ele><time>2014-5-10T0:39:20Z</time></trkpt>
<trkpt lat="46.35485133" lon="6.97696997"><ele></ele><time>2014-5-10T0:39:23Z</time></trkpt>
<trkpt lat="46.35496709" lon="6.97690518"><ele></ele><time>2014-5-10T0:39:26Z</time></trkpt>
<trkpt lat="46.35509893" lon="6.97681482"><ele></ele><time>2014-5-10T0:39:29Z</time></trkpt>
<trkpt lat="46.35520094" lon="6.97669898"><ele></ele><time>2014-5-10T0:39:32Z</time></trkpt>
<trkpt lat="46.35533187" lon="6.97652455"><ele></ele><time>2014-5-10T0:39:35Z</time></trkpt>
<trkpt lat="46.35543237" lon="6.97634116"><ele></ele><time>2014-5-10T0:39:38Z</time></trkpt>
<trkpt lat="46.35551082" lon="6.97614645"><ele></ele><time>2014-5-10T0:39:41Z</time></trkpt>
<trkpt lat="46.35560210" lon="6.97594654"><ele></ele><time>2014-5-10T0:39:44Z</time></trkpt>
<trkpt lat="46.35569053" lon="6.97574738"><ele></ele><time>2014-5-10T0:39:47Z</time></trkpt>
<trkpt lat="46.35577636" lon="6.97551319"><ele></ele><time>2014-5-10T0:39:50Z</time></trkpt>
<trkpt lat="46.35582883" lon="6.97526132"><ele></ele><time>2014-5-10T0:39:53Z</time></trkpt>
<trkpt lat="46.35582958" lon="6.97497885"><ele></ele><time>2014-5-10T0:39:56Z</time></trkpt>
<trkpt lat="46.35581743" lon="6.97470677"><ele></ele><time>2014-5-10T0:39:59Z</time></trkpt>
<trkpt lat="46.35585255" lon="6.97444090"><ele></ele><time>2014-5-10T0:40:2Z</time></trkpt>
<trkpt lat="46.35600946" lon="6.97421526"><ele></ele><time>2014-5-10T0:40:5Z</time></trkpt>
<trkpt lat="46.35613569" lon="6.97412750"><ele></ele><time>2014-5-10T0:40:8Z</time></trkpt>
<trkpt lat="46.35637810" lon="6.97411459"><ele></ele><time>2014-5-10T0:40:11Z</time></trkpt>
<trkpt lat="46.35659988" lon="6.97423277"><ele></ele><time>2014-5-10T0:40:14Z</time></trkpt>
<trkpt lat="46.35683994" lon="6.97439186"><ele></ele><time>2014-5-10T0:40:17Z</time></trkpt>
<trkpt lat="46.35701730" lon="6.97452723"><ele></ele><time>2014-5-10T0:40:20Z</time></trkpt>
<trkpt lat="46.35721243" lon="6.97460962"><ele></ele><time>2014-5-10T0:40:23Z</time></trkpt>
<trkpt lat="46.35754729" lon="6.97463787"><ele></ele><time>2014-5-10T0:40:26Z</time></trkpt>
<trkpt lat="46.35785826" lon="6.97450787"><ele></ele><time>2014-5-10T0:40:29Z</time></trkpt>
<trkpt lat="46.35800812" lon="6.97430913"><ele></ele><time>2014-5-10T0:40:32Z</time></trkpt>
<trkpt lat="46.35802346" lon="6.97419975"><ele></ele><time>2014-5-10T0:40:35Z</time></trkpt>
<trkpt lat="46.35802883" lon="6.97413940"><ele></ele><time>2014-5-10T0:40:38Z</time></trkpt>
<trkpt lat="46.35796563" lon="6.97405952"><ele></ele><time>2014-5-10T0:40:41Z</time></trkpt>
<trkpt lat="46.35793604" lon="6.97402004"><ele></ele><time>2014-5-10T0:40:44Z</time></trkpt>
<trkpt lat="46.35797686" lon="6.97395022"><ele></ele><time>2014-5-10T0:40:47Z</time></trkpt>
<trkpt lat="46.35811030" lon="6.97421366"><ele></ele><time>2014-5-10T0:40:50Z</time></trkpt>
<trkpt lat="46.35823100" lon="6.97452296"><ele></ele><time>2014-5-10T0:40:53Z</time></trkpt>
<trkpt lat="46.35831499" lon="6.97477693"><ele></ele><time>2014-5-10T0:40:56Z</time></trkpt>
<trkpt lat="46.35844599" lon="6.97508974"><ele></ele><time>2014-5-10T0:40:59Z</time></trkpt>
<trkpt lat="46.35855345" lon="6.97527322"><ele></ele><time>2014-5-10T0:41:2Z</time></trkpt>
<trkpt lat="46.35865387" lon="6.97550163"><ele></ele><time>2014-5-10T0:41:5Z</time></trkpt>
<trkpt lat="46.35874825" lon="6.97583405"><ele></ele><time>2014-5-10T0:41:8Z</time></trkpt>
<trkpt lat="46.35874992" lon="6.97599532"><ele></ele><time>2014-5-10T0:41:11Z</time></trkpt>
<trkpt lat="46.35874514" lon="6.97619129"><ele></ele><time>2014-5-10T0:41:14Z</time></trkpt>
<trkpt lat="46.35871874" lon="6.97647535"><ele></ele><time>2014-5-10T0:41:17Z</time></trkpt>
<trkpt lat="46.35867834" lon="6.97671684"><ele></ele><time>2014-5-10T0:41:20Z</time></trkpt>
<trkpt lat="46.35860399" lon="6.97693225"><ele></ele><time>2014-5-10T0:41:23Z</time></trkpt>
<trkpt lat="46.35843786" lon="6.97713350"><ele></ele><time>2014-5-10T0:41:26Z</time></trkpt>
<trkpt lat="46.35833024" lon="6.97721757"><ele></ele><time>2014-5-10T0:41:29Z</time></trkpt>
<trkpt lat="46.35817543" lon="6.97732955"><ele></ele><time>2014-5-10T0:41:32Z</time></trkpt>
<trkpt lat="46.35815866" lon="6.97734749"><ele></ele><time>2014-5-10T0:41:35Z</time></trkpt>
<trkpt lat="46.35810963" lon="6.97750775"><ele></ele><time>2014-5-10T0:41:38Z</time></trkpt>
<trkpt lat="46.35817266" lon="6.97762803"><ele></ele><time>2014-5-10T0:41:41Z</time></trkpt>
<trkpt lat="46.35829537" lon="6.97765502"><ele></ele><time>2014-5-10T0:41:44Z</time></trkpt>
<trkpt lat="46.35841833" lon="6.97763306"><ele></ele><time>2014-5-10T0:41:47Z</time></trkpt>
<trkpt lat="46.35849997" lon="6.97757774"><ele></ele><time>2014-5-10T0:41:50Z</time></trkpt>
<trkpt lat="46.35864666" lon="6.97753608"><ele></ele><time>2014-5-10T0:41:53Z</time></trkpt>
<trkpt lat="46.35881002" lon="6.97751747"><ele></ele><time>2014-5-10T0:41:56Z</time></trkpt>
<trkpt lat="46.35895712" lon="6.97754824"><ele></ele><time>2014-5-10T0:41:59Z</time></trkpt>
<trkpt lat="46.35907967" lon="6.97767983"><ele></ele><time>2014-5-10T0:42:2Z</time></trkpt>
<trkpt lat="46.35919844" lon="6.97774555"><ele></ele><time>2014-5-10T0:42:5Z</time></trkpt>
<trkpt lat="46.35936054" lon="6.97770623"><ele></ele><time>2014-5-10T0:42:8Z</time></trkpt>
<trkpt lat="46.35953589" lon="6.97763147"><ele></ele><time>2014-5-10T0:42:11Z</time></trkpt>
<trkpt lat="46.35977327" lon="6.97751102"><ele></ele><time>2014-5-10T0:42:14Z</time></trkpt>
<trkpt lat="46.35994317" lon="6.97741346"><ele></ele><time>2014-5-10T0:42:17Z</time></trkpt>
<trkpt lat="46.36012497" lon="6.97729996"><ele></ele><time>2014-5-10T0:42:20Z</time></trkpt>
<trkpt lat="46.36026227" lon="6.97714046"><ele></ele><time>2014-5-10T0:42:23Z</time></trkpt>
<trkpt lat="46.36030175" lon="6.97705655"><ele></ele><time>2014-5-10T0:42:26Z</time></trkpt>
<trkpt lat="46.36035254" lon="6.97684072"><ele></ele><time>2014-5-10T0:42:29Z</time></trkpt>
<trkpt lat="46.36038817" lon="6.97661969"><ele></ele><time>2014-5-10T0:42:32Z</time></trkpt>
<trkpt lat="46.36042077" lon="6.97630897"><ele></ele><time>2014-5-10T0:42:35Z</time></trkpt>
<trkpt lat="46.36042329" lon="6.97605995"><ele></ele><time>2014-5-10T0:42:38Z</time></trkpt>
<trkpt lat="46.36040828" lon="6.97581209"><ele></ele><time>2014-5-10T0:42:41Z</time></trkpt>
<trkpt lat="46.36039328" lon="6.97557153"><ele></ele><time>2014-5-10T0:42:44Z</time></trkpt>
<trkpt lat="46.36037802" lon="6.97538654"><ele></ele><time>2014-5-10T0:42:47Z</time></trkpt>
<trkpt lat="46.36036403" lon="6.97515059"><ele></ele><time>2014-5-10T0:42:50Z</time></trkpt>
<trkpt lat="46.36035112" lon="6.97497164"><ele></ele><time>2014-5-10T0:42:53Z</time></trkpt>
<trkpt lat="46.36035866" lon="6.97493275"><ele></ele><time>2014-5-10T0:42:56Z</time></trkpt>
<trkpt lat="46.36034274" lon="6.97496812"><ele></ele><time>2014-5-10T0:42:59Z</time></trkpt>
<trkpt lat="46.36032446" lon="6.97498404"><ele></ele><time>2014-5-10T0:43:2Z</time></trkpt>
<trkpt lat="46.36032488" lon="6.97494725"><ele></ele><time>2014-5-10T0:43:5Z</time></trkpt>
<trkpt lat="46.36031675" lon="6.97494088"><ele></ele><time>2014-5-10T0:43:8Z</time></trkpt>
<trkpt lat="46.36030653" lon="6.97487416"><ele></ele><time>2014-5-10T0:43:11Z</time></trkpt>
<trkpt lat="46.36029219" lon="6.97477827"><ele></ele><time>2014-5-10T0:43:14Z</time></trkpt>
<trkpt lat="46.36022933" lon="6.97460703"><ele></ele><time>2014-5-10T0:43:17Z</time></trkpt>
<trkpt lat="46.36018172" lon="6.97447543"><ele></ele><time>2014-5-10T0:43:20Z</time></trkpt>
<trkpt lat="46.36013428" lon="6.97435976"><ele></ele><time>2014-5-10T0:43:23Z</time></trkpt>
<trkpt lat="46.36006965" lon="6.97424602"><ele></ele><time>2014-5-10T0:43:26Z</time></trkpt>
<trkpt lat="46.36000394" lon="6.97414543"><ele></ele><time>2014-5-10T0:43:29Z</time></trkpt>
<trkpt lat="46.35994954" lon="6.97401686"><ele></ele><time>2014-5-10T0:43:32Z</time></trkpt>
<trkpt lat="46.35991023" lon="6.97381896"><ele></ele><time>2014-5-10T0:43:35Z</time></trkpt>
<trkpt lat="46.35988676" lon="6.97356993"><ele></ele><time>2014-5-10T0:43:38Z</time></trkpt>
<trkpt lat="46.35986698" lon="6.97338444"><ele></ele><time>2014-5-10T0:43:41Z</time></trkpt>
<trkpt lat="46.35984829" lon="6.97323122"><ele></ele><time>2014-5-10T0:43:44Z</time></trkpt>
<trkpt lat="46.35980076" lon="6.97302779"><ele></ele><time>2014-5-10T0:43:47Z</time></trkpt>
<trkpt lat="46.35974519" lon="6.97281850"><ele></ele><time>2014-5-10T0:43:50Z</time></trkpt>
<trkpt lat="46.35967126" lon="6.97268330"><ele></ele><time>2014-5-10T0:43:53Z</time></trkpt>
<trkpt lat="46.35957738" lon="6.97248490"><ele></ele><time>2014-5-10T0:43:56Z</time></trkpt>
<trkpt lat="46.35949826" lon="6.97233243"><ele></ele><time>2014-5-10T0:43:59Z</time></trkpt>
<trkpt lat="46.35944763" lon="6.97214652"><ele></ele><time>2014-5-10T0:44:2Z</time></trkpt>
<trkpt lat="46.35939969" lon="6.97191216"><ele></ele><time>2014-5-10T0:44:5Z</time></trkpt>
<trkpt lat="46.35938192" lon="6.97168694"><ele></ele><time>2014-5-10T0:44:8Z</time></trkpt>
<trkpt lat="46.35938779" lon="6.97142836"><ele></ele><time>2014-5-10T0:44:11Z</time></trkpt>
<trkpt lat="46.35940430" lon="6.97115125"><ele></ele><time>2014-5-10T0:44:14Z</time></trkpt>
<trkpt lat="46.35942265" lon="6.97092636"><ele></ele><time>2014-5-10T0:44:17Z</time></trkpt>
<trkpt lat="46.35941369" lon="6.97069083"><ele></ele><time>2014-5-10T0:44:20Z</time></trkpt>
<trkpt lat="46.35940254" lon="6.97048162"><ele></ele><time>2014-5-10T0:44:23Z</time></trkpt>
<trkpt lat="46.35939005" lon="6.97026696"><ele></ele><time>2014-5-10T0:44:26Z</time></trkpt>
<trkpt lat="46.35938670" lon="6.97011282"><ele></ele><time>2014-5-10T0:44:29Z</time></trkpt>
<trkpt lat="46.35939323" lon="6.96991970"><ele></ele><time>2014-5-10T0:44:32Z</time></trkpt>
<trkpt lat="46.35938368" lon="6.96975147"><ele></ele><time>2014-5-10T0:44:35Z</time></trkpt>
<trkpt lat="46.35937949" lon="6.96963195"><ele></ele><time>2014-5-10T0:44:38Z</time></trkpt>
<trkpt lat="46.35936574" lon="6.96948828"><ele></ele><time>2014-5-10T0:44:41Z</time></trkpt>
<trkpt lat="46.35934403" lon="6.96932374"><ele></ele><time>2014-5-10T0:44:44Z</time></trkpt>
<trkpt lat="46.35931897" lon="6.96915410"><ele></ele><time>2014-5-10T0:44:47Z</time></trkpt>
<trkpt lat="46.35929659" lon="6.96909383"><ele></ele><time>2014-5-10T0:44:50Z</time></trkpt>
<trkpt lat="46.35922249" lon="6.96892242"><ele></ele><time>2014-5-10T0:44:53Z</time></trkpt>
<trkpt lat="46.35918092" lon="6.96885168"><ele></ele><time>2014-5-10T0:44:56Z</time></trkpt>
<trkpt lat="46.35913683" lon="6.96880776"><ele></ele><time>2014-5-10T0:44:59Z</time></trkpt>
<trkpt lat="46.35911495" lon="6.96876920"><ele></ele><time>2014-5-10T0:45:2Z</time></trkpt>
<trkpt lat="46.35906994" lon="6.96855747"><ele></ele><time>2014-5-10T0:45:5Z</time></trkpt>
<trkpt lat="46.35906324" lon="6.96852646"><ele></ele><time>2014-5-10T0:45:8Z</time></trkpt>
<trkpt lat="46.35904882" lon="6.96837248"><ele></ele><time>2014-5-10T0:45:11Z</time></trkpt>
<trkpt lat="46.35901898" lon="6.96813896"><ele></ele><time>2014-5-10T0:45:14Z</time></trkpt>
<trkpt lat="46.35896148" lon="6.96800837"><ele></ele><time>2014-5-10T0:45:17Z</time></trkpt>
<trkpt lat="46.35889778" lon="6.96790829"><ele></ele><time>2014-5-10T0:45:20Z</time></trkpt>
<trkpt lat="46.35882326" lon="6.96776605"><ele></ele><time>2014-5-10T0:45:23Z</time></trkpt>
<trkpt lat="46.35877163" lon="6.96764225"><ele></ele><time>2014-5-10T0:45:26Z</time></trkpt>
<trkpt lat="46.35873048" lon="6.96754997"><ele></ele><time>2014-5-10T0:45:29Z</time></trkpt>
<trkpt lat="46.35870516" lon="6.96742642"><ele></ele><time>2014-5-10T0:45:32Z</time></trkpt>
<trkpt lat="46.35867935" lon="6.96726440"><ele></ele><time>2014-5-10T0:45:35Z</time></trkpt>
<trkpt lat="46.35864054" lon="6.96710254"><ele></ele><time>2014-5-10T0:45:38Z</time></trkpt>
<trkpt lat="46.35862076" lon="6.96695385"><ele></ele><time>2014-5-10T0:45:41Z</time></trkpt>
<trkpt lat="46.35861648" lon="6.96693650"><ele></ele><time>2014-5-10T0:45:44Z</time></trkpt>
<trkpt lat="46.35858547" lon="6.96675436"><ele></ele><time>2014-5-10T0:45:47Z</time></trkpt>
<trkpt lat="46.35856016" lon="6.96663567"><ele></ele><time>2014-5-10T0:45:50Z</time></trkpt>
<trkpt lat="46.35855865" lon="6.96650709"><ele></ele><time>2014-5-10T0:45:53Z</time></trkpt>
<trkpt lat="46.35853669" lon="6.96634389"><ele></ele><time>2014-5-10T0:45:56Z</time></trkpt>
<trkpt lat="46.35850836" lon="6.96618523"><ele></ele><time>2014-5-10T0:45:59Z</time></trkpt>
<trkpt lat="46.35850559" lon="6.96616477"><ele></ele><time>2014-5-10T0:46:2Z</time></trkpt>
<trkpt lat="46.35852160" lon="6.96600619"><ele></ele><time>2014-5-10T0:46:5Z</time></trkpt>
<trkpt lat="46.35853124" lon="6.96586646"><ele></ele><time>2014-5-10T0:46:8Z</time></trkpt>
<trkpt lat="46.35853694" lon="6.96573185"><ele></ele><time>2014-5-10T0:46:11Z</time></trkpt>
<trkpt lat="46.35852973" lon="6.96566815"><ele></ele><time>2014-5-10T0:46:14Z</time></trkpt>
<trkpt lat="46.35853300" lon="6.96563328"><ele></ele><time>2014-5-10T0:46:17Z</time></trkpt>
<trkpt lat="46.35847885" lon="6.96545164"><ele></ele><time>2014-5-10T0:46:20Z</time></trkpt>
<trkpt lat="46.35843418" lon="6.96540713"><ele></ele><time>2014-5-10T0:46:23Z</time></trkpt>
<trkpt lat="46.35838238" lon="6.96528853"><ele></ele><time>2014-5-10T0:46:26Z</time></trkpt>
<trkpt lat="46.35835589" lon="6.96513715"><ele></ele><time>2014-5-10T0:46:29Z</time></trkpt>
<trkpt lat="46.35831499" lon="6.96498569"><ele></ele><time>2014-5-10T0:46:32Z</time></trkpt>
<trkpt lat="46.35828280" lon="6.96485175"><ele></ele><time>2014-5-10T0:46:35Z</time></trkpt>
<trkpt lat="46.35823393" lon="6.96472979"><ele></ele><time>2014-5-10T0:46:38Z</time></trkpt>
<trkpt lat="46.35819144" lon="6.96457196"><ele></ele><time>2014-5-10T0:46:41Z</time></trkpt>
<trkpt lat="46.35818364" lon="6.96453969"><ele></ele><time>2014-5-10T0:46:44Z</time></trkpt>
<trkpt lat="46.35815003" lon="6.96445419"><ele></ele><time>2014-5-10T0:46:47Z</time></trkpt>
<trkpt lat="46.35811172" lon="6.96433995"><ele></ele><time>2014-5-10T0:46:50Z</time></trkpt>
<trkpt lat="46.35810703" lon="6.96430357"><ele></ele><time>2014-5-10T0:46:53Z</time></trkpt>
<trkpt lat="46.35808893" lon="6.96419972"><ele></ele><time>2014-5-10T0:46:56Z</time></trkpt>
<trkpt lat="46.35804693" lon="6.96400023"><ele></ele><time>2014-5-10T0:46:59Z</time></trkpt>
<trkpt lat="46.35801852" lon="6.96384056"><ele></ele><time>2014-5-10T0:47:2Z</time></trkpt>
<trkpt lat="46.35799563" lon="6.96367417"><ele></ele><time>2014-5-10T0:47:5Z</time></trkpt>
<trkpt lat="46.35799128" lon="6.96365188"><ele></ele><time>2014-5-10T0:47:8Z</time></trkpt>
<trkpt lat="46.35796496" lon="6.96349673"><ele></ele><time>2014-5-10T0:47:11Z</time></trkpt>
<trkpt lat="46.35795289" lon="6.96331149"><ele></ele><time>2014-5-10T0:47:14Z</time></trkpt>
<trkpt lat="46.35794409" lon="6.96321007"><ele></ele><time>2014-5-10T0:47:17Z</time></trkpt>
<trkpt lat="46.35792112" lon="6.96306489"><ele></ele><time>2014-5-10T0:47:20Z</time></trkpt>
<trkpt lat="46.35790897" lon="6.96292064"><ele></ele><time>2014-5-10T0:47:23Z</time></trkpt>
<trkpt lat="46.35790586" lon="6.96282023"><ele></ele><time>2014-5-10T0:47:26Z</time></trkpt>
<trkpt lat="46.35792196" lon="6.96273012"><ele></ele><time>2014-5-10T0:47:29Z</time></trkpt>
<trkpt lat="46.35792749" lon="6.96264245"><ele></ele><time>2014-5-10T0:47:32Z</time></trkpt>
<trkpt lat="46.35792037" lon="6.96261043"><ele></ele><time>2014-5-10T0:47:35Z</time></trkpt>
<trkpt lat="46.35792405" lon="6.96257858"><ele></ele><time>2014-5-10T0:47:38Z</time></trkpt>
<trkpt lat="46.35794124" lon="6.96251689"><ele></ele><time>2014-5-10T0:47:41Z</time></trkpt>
<trkpt lat="46.35795155" lon="6.96236408"><ele></ele><time>2014-5-10T0:47:44Z</time></trkpt>
<trkpt lat="46.35796219" lon="6.96223433"><ele></ele><time>2014-5-10T0:47:47Z</time></trkpt>
<trkpt lat="46.35800335" lon="6.96210693"><ele></ele><time>2014-5-10T0:47:50Z</time></trkpt>
<trkpt lat="46.35804744" lon="6.96201665"><ele></ele><time>2014-5-10T0:47:53Z</time></trkpt>
<trkpt lat="46.35807644" lon="6.96197458"><ele></ele><time>2014-5-10T0:47:56Z</time></trkpt>
<trkpt lat="46.35811348" lon="6.96183058"><ele></ele><time>2014-5-10T0:47:59Z</time></trkpt>
<trkpt lat="46.35819328" lon="6.96167509"><ele></ele><time>2014-5-10T0:48:2Z</time></trkpt>
<trkpt lat="46.35819965" lon="6.96165447"><ele></ele><time>2014-5-10T0:48:5Z</time></trkpt>
<trkpt lat="46.35824718" lon="6.96155313"><ele></ele><time>2014-5-10T0:48:8Z</time></trkpt>
<trkpt lat="46.35828204" lon="6.96140067"><ele></ele><time>2014-5-10T0:48:11Z</time></trkpt>
<trkpt lat="46.35829277" lon="6.96136077"><ele></ele><time>2014-5-10T0:48:14Z</time></trkpt>
<trkpt lat="46.35834608" lon="6.96121015"><ele></ele><time>2014-5-10T0:48:17Z</time></trkpt>
<trkpt lat="46.35836402" lon="6.96110646"><ele></ele><time>2014-5-10T0:48:20Z</time></trkpt>
<trkpt lat="46.35842437" lon="6.96102407"><ele></ele><time>2014-5-10T0:48:23Z</time></trkpt>
<trkpt lat="46.35850718" lon="6.96089155"><ele></ele><time>2014-5-10T0:48:26Z</time></trkpt>
<trkpt lat="46.35852344" lon="6.96084972"><ele></ele><time>2014-5-10T0:48:29Z</time></trkpt>
<trkpt lat="46.35854180" lon="6.96075719"><ele></ele><time>2014-5-10T0:48:32Z</time></trkpt>
<trkpt lat="46.35856644" lon="6.96069064"><ele></ele><time>2014-5-10T0:48:35Z</time></trkpt>
<trkpt lat="46.35857893" lon="6.96061486"><ele></ele><time>2014-5-10T0:48:38Z</time></trkpt>
<trkpt lat="46.35859729" lon="6.96054840"><ele></ele><time>2014-5-10T0:48:41Z</time></trkpt>
<trkpt lat="46.35861523" lon="6.96041445"><ele></ele><time>2014-5-10T0:48:44Z</time></trkpt>
<trkpt lat="46.35865169" lon="6.96029082"><ele></ele><time>2014-5-10T0:48:47Z</time></trkpt>
<trkpt lat="46.35869603" lon="6.96021337"><ele></ele><time>2014-5-10T0:48:50Z</time></trkpt>
<trkpt lat="46.35876442" lon="6.96019703"><ele></ele><time>2014-5-10T0:48:53Z</time></trkpt>
<trkpt lat="46.35882008" lon="6.96021664"><ele></ele><time>2014-5-10T0:48:56Z</time></trkpt>
<trkpt lat="46.35889677" lon="6.96026634"><ele></ele><time>2014-5-10T0:48:59Z</time></trkpt>
<trkpt lat="46.35894933" lon="6.96031865"><ele></ele><time>2014-5-10T0:49:2Z</time></trkpt>
<trkpt lat="46.35901932" lon="6.96037615"><ele></ele><time>2014-5-10T0:49:5Z</time></trkpt>
<trkpt lat="46.35910364" lon="6.96036919"><ele></ele><time>2014-5-10T0:49:8Z</time></trkpt>
<trkpt lat="46.35914597" lon="6.96036559"><ele></ele><time>2014-5-10T0:49:11Z</time></trkpt>
<trkpt lat="46.35917874" lon="6.96037145"><ele></ele><time>2014-5-10T0:49:14Z</time></trkpt>
<trkpt lat="46.35926030" lon="6.96042342"><ele></ele><time>2014-5-10T0:49:17Z</time></trkpt>
<trkpt lat="46.35925879" lon="6.96043189"><ele></ele><time>2014-5-10T0:49:20Z</time></trkpt>
<trkpt lat="46.35924529" lon="6.96043029"><ele></ele><time>2014-5-10T0:49:23Z</time></trkpt>
<trkpt lat="46.35924722" lon="6.96043348"><ele></ele><time>2014-5-10T0:49:26Z</time></trkpt>
<trkpt lat="46.35925602" lon="6.96046709"><ele></ele><time>2014-5-10T0:49:29Z</time></trkpt>
<trkpt lat="46.35928620" lon="6.96052677"><ele></ele><time>2014-5-10T0:49:32Z</time></trkpt>
<trkpt lat="46.35928737" lon="6.96053364"><ele></ele><time>2014-5-10T0:49:35Z</time></trkpt>
<trkpt lat="46.35932148" lon="6.96056759"><ele></ele><time>2014-5-10T0:49:38Z</time></trkpt>
<trkpt lat="46.35934395" lon="6.96054697"><ele></ele><time>2014-5-10T0:49:41Z</time></trkpt>
<trkpt lat="46.35947923" lon="6.96051537"><ele></ele><time>2014-5-10T0:49:44Z</time></trkpt>
<trkpt lat="46.35958116" lon="6.96050934"><ele></ele><time>2014-5-10T0:49:47Z</time></trkpt>
<trkpt lat="46.35964687" lon="6.96053205"><ele></ele><time>2014-5-10T0:49:50Z</time></trkpt>
<trkpt lat="46.35974779" lon="6.96058502"><ele></ele><time>2014-5-10T0:49:53Z</time></trkpt>
<trkpt lat="46.35982448" lon="6.96062056"><ele></ele><time>2014-5-10T0:49:56Z</time></trkpt>
<trkpt lat="46.35989179" lon="6.96064998"><ele></ele><time>2014-5-10T0:49:59Z</time></trkpt>
<trkpt lat="46.35993789" lon="6.96064906"><ele></ele><time>2014-5-10T0:50:2Z</time></trkpt>
<trkpt lat="46.35995566" lon="6.96065267"><ele></ele><time>2014-5-10T0:50:5Z</time></trkpt>
<trkpt lat="46.35996966" lon="6.96065493"><ele></ele><time>2014-5-10T0:50:8Z</time></trkpt>
<trkpt lat="46.36002062" lon="6.96065417"><ele></ele><time>2014-5-10T0:50:11Z</time></trkpt>
<trkpt lat="46.36007502" lon="6.96068360"><ele></ele><time>2014-5-10T0:50:14Z</time></trkpt>
<trkpt lat="46.36011726" lon="6.96070413"><ele></ele><time>2014-5-10T0:50:17Z</time></trkpt>
<trkpt lat="46.36016839" lon="6.96070086"><ele></ele><time>2014-5-10T0:50:20Z</time></trkpt>
<trkpt lat="46.36023285" lon="6.96069374"><ele></ele><time>2014-5-10T0:50:23Z</time></trkpt>
<trkpt lat="46.36027224" lon="6.96067907"><ele></ele><time>2014-5-10T0:50:26Z</time></trkpt>
<trkpt lat="46.36031784" lon="6.96067102"><ele></ele><time>2014-5-10T0:50:29Z</time></trkpt>
<trkpt lat="46.36035564" lon="6.96068066"><ele></ele><time>2014-5-10T0:50:32Z</time></trkpt>
<trkpt lat="46.36045556" lon="6.96069994"><ele></ele><time>2014-5-10T0:50:35Z</time></trkpt>
<trkpt lat="46.36046947" lon="6.96069768"><ele></ele><time>2014-5-10T0:50:38Z</time></trkpt>
<trkpt lat="46.36050736" lon="6.96069349"><ele></ele><time>2014-5-10T0:50:41Z</time></trkpt>
<trkpt lat="46.36059168" lon="6.96066373"><ele></ele><time>2014-5-10T0:50:44Z</time></trkpt>
<trkpt lat="46.36063702" lon="6.96071025"><ele></ele><time>2014-5-10T0:50:47Z</time></trkpt>
<trkpt lat="46.36069922" lon="6.96078334"><ele></ele><time>2014-5-10T0:50:50Z</time></trkpt>
<trkpt lat="46.36073266" lon="6.96081217"><ele></ele><time>2014-5-10T0:50:53Z</time></trkpt>
<trkpt lat="46.36081723" lon="6.96091862"><ele></ele><time>2014-5-10T0:50:56Z</time></trkpt>
<trkpt lat="46.36086795" lon="6.96098040"><ele></ele><time>2014-5-10T0:50:59Z</time></trkpt>
<trkpt lat="46.36095495" lon="6.96108718"><ele></ele><time>2014-5-10T0:51:2Z</time></trkpt>
<trkpt lat="46.36107406" lon="6.96119866"><ele></ele><time>2014-5-10T0:51:5Z</time></trkpt>
<trkpt lat="46.36119082" lon="6.96127854"><ele></ele><time>2014-5-10T0:51:8Z</time></trkpt>
<trkpt lat="46.36130389" lon="6.96129749"><ele></ele><time>2014-5-10T0:51:11Z</time></trkpt>
<trkpt lat="46.36131797" lon="6.96131417"><ele></ele><time>2014-5-10T0:51:14Z</time></trkpt>
<trkpt lat="46.36141604" lon="6.96130302"><ele></ele><time>2014-5-10T0:51:17Z</time></trkpt>
<trkpt lat="46.36153632" lon="6.96128198"><ele></ele><time>2014-5-10T0:51:20Z</time></trkpt>
<trkpt lat="46.36162139" lon="6.96129237"><ele></ele><time>2014-5-10T0:51:23Z</time></trkpt>
<trkpt lat="46.36178476" lon="6.96129673"><ele></ele><time>2014-5-10T0:51:26Z</time></trkpt>
<trkpt lat="46.36190915" lon="6.96133680"><ele></ele><time>2014-5-10T0:51:29Z</time></trkpt>
<trkpt lat="46.36196740" lon="6.96134283"><ele></ele><time>2014-5-10T0:51:32Z</time></trkpt>
<trkpt lat="46.36207335" lon="6.96127578"><ele></ele><time>2014-5-10T0:51:35Z</time></trkpt>
<trkpt lat="46.36208248" lon="6.96126865"><ele></ele><time>2014-5-10T0:51:38Z</time></trkpt>
<trkpt lat="46.36207050" lon="6.96126932"><ele></ele><time>2014-5-10T0:51:41Z</time></trkpt>
<trkpt lat="46.36215046" lon="6.96125264"><ele></ele><time>2014-5-10T0:51:44Z</time></trkpt>
<trkpt lat="46.36225632" lon="6.96126153"><ele></ele><time>2014-5-10T0:51:47Z</time></trkpt>
<trkpt lat="46.36233537" lon="6.96124627"><ele></ele><time>2014-5-10T0:51:50Z</time></trkpt>
<trkpt lat="46.36245640" lon="6.96119053"><ele></ele><time>2014-5-10T0:51:53Z</time></trkpt>
<trkpt lat="46.36251935" lon="6.96114225"><ele></ele><time>2014-5-10T0:51:56Z</time></trkpt>
<trkpt lat="46.36260526" lon="6.96105642"><ele></ele><time>2014-5-10T0:51:59Z</time></trkpt>
<trkpt lat="46.36268724" lon="6.96094662"><ele></ele><time>2014-5-10T0:52:2Z</time></trkpt>
<trkpt lat="46.36275019" lon="6.96083673"><ele></ele><time>2014-5-10T0:52:5Z</time></trkpt>
<trkpt lat="46.36286477" lon="6.96071260"><ele></ele><time>2014-5-10T0:52:8Z</time></trkpt>
<trkpt lat="46.36296183" lon="6.96055334"><ele></ele><time>2014-5-10T0:52:11Z</time></trkpt>
<trkpt lat="46.36301363" lon="6.96041973"><ele></ele><time>2014-5-10T0:52:14Z</time></trkpt>
<trkpt lat="46.36298999" lon="6.96038445"><ele></ele><time>2014-5-10T0:52:17Z</time></trkpt>
<trkpt lat="46.36298999" lon="6.96038445"><ele></ele><time>2014-5-10T0:52:20Z</time></trkpt>
<trkpt lat="46.36308010" lon="6.95559142"><ele></ele><time>2014-5-10T0:52:23Z</time></trkpt>
<trkpt lat="46.36312502" lon="6.95543795"><ele></ele><time>2014-5-10T0:52:26Z</time></trkpt>
<trkpt lat="46.36314933" lon="6.95533334"><ele></ele><time>2014-5-10T0:52:29Z</time></trkpt>
<trkpt lat="46.36320113" lon="6.95515816"><ele></ele><time>2014-5-10T0:52:32Z</time></trkpt>
<trkpt lat="46.36326324" lon="6.95498264"><ele></ele><time>2014-5-10T0:52:35Z</time></trkpt>
<trkpt lat="46.36331948" lon="6.95483412"><ele></ele><time>2014-5-10T0:52:38Z</time></trkpt>
<trkpt lat="46.36341043" lon="6.95464728"><ele></ele><time>2014-5-10T0:52:41Z</time></trkpt>
<trkpt lat="46.36351428" lon="6.95456774"><ele></ele><time>2014-5-10T0:52:44Z</time></trkpt>
<trkpt lat="46.36353088" lon="6.95455877"><ele></ele><time>2014-5-10T0:52:47Z</time></trkpt>
<trkpt lat="46.36374352" lon="6.95451904"><ele></ele><time>2014-5-10T0:52:50Z</time></trkpt>
<trkpt lat="46.36388434" lon="6.95448484"><ele></ele><time>2014-5-10T0:52:53Z</time></trkpt>
<trkpt lat="46.36400772" lon="6.95446447"><ele></ele><time>2014-5-10T0:52:56Z</time></trkpt>
<trkpt lat="46.36413127" lon="6.95441812"><ele></ele><time>2014-5-10T0:52:59Z</time></trkpt>
<trkpt lat="46.36429036" lon="6.95437789"><ele></ele><time>2014-5-10T0:53:2Z</time></trkpt>
<trkpt lat="46.36432473" lon="6.95437915"><ele></ele><time>2014-5-10T0:53:5Z</time></trkpt>
<trkpt lat="46.36438943" lon="6.95442055"><ele></ele><time>2014-5-10T0:53:8Z</time></trkpt>
<trkpt lat="46.36447074" lon="6.95459750"><ele></ele><time>2014-5-10T0:53:11Z</time></trkpt>
<trkpt lat="46.36452614" lon="6.95478952"><ele></ele><time>2014-5-10T0:53:14Z</time></trkpt>
<trkpt lat="46.36458297" lon="6.95501634"><ele></ele><time>2014-5-10T0:53:17Z</time></trkpt>
<trkpt lat="46.36459286" lon="6.95503830"><ele></ele><time>2014-5-10T0:53:20Z</time></trkpt>
<trkpt lat="46.36464575" lon="6.95527098"><ele></ele><time>2014-5-10T0:53:23Z</time></trkpt>
<trkpt lat="46.36470459" lon="6.95550693"><ele></ele><time>2014-5-10T0:53:26Z</time></trkpt>
<trkpt lat="46.36472505" lon="6.95561992"><ele></ele><time>2014-5-10T0:53:29Z</time></trkpt>
<trkpt lat="46.36473787" lon="6.95575990"><ele></ele><time>2014-5-10T0:53:32Z</time></trkpt>
<trkpt lat="46.36476377" lon="6.95590306"><ele></ele><time>2014-5-10T0:53:35Z</time></trkpt>
<trkpt lat="46.36481959" lon="6.95612820"><ele></ele><time>2014-5-10T0:53:38Z</time></trkpt>
<trkpt lat="46.36488388" lon="6.95637622"><ele></ele><time>2014-5-10T0:53:41Z</time></trkpt>
<trkpt lat="46.36496158" lon="6.95664796"><ele></ele><time>2014-5-10T0:53:44Z</time></trkpt>
<trkpt lat="46.36504356" lon="6.95684737"><ele></ele><time>2014-5-10T0:53:47Z</time></trkpt>
<trkpt lat="46.36510944" lon="6.95702280"><ele></ele><time>2014-5-10T0:53:50Z</time></trkpt>
<trkpt lat="46.36524539" lon="6.95721332"><ele></ele><time>2014-5-10T0:53:53Z</time></trkpt>
<trkpt lat="46.36538646" lon="6.95724308"><ele></ele><time>2014-5-10T0:53:56Z</time></trkpt>
<trkpt lat="46.36556768" lon="6.95738984"><ele></ele><time>2014-5-10T0:53:59Z</time></trkpt>
<trkpt lat="46.36571403" lon="6.95750082"><ele></ele><time>2014-5-10T0:54:2Z</time></trkpt>
<trkpt lat="46.36592659" lon="6.95761456"><ele></ele><time>2014-5-10T0:54:5Z</time></trkpt>
<trkpt lat="46.36611108" lon="6.95763568"><ele></ele><time>2014-5-10T0:54:8Z</time></trkpt>
<trkpt lat="46.36631778" lon="6.95760375"><ele></ele><time>2014-5-10T0:54:11Z</time></trkpt>
<trkpt lat="46.36651198" lon="6.95754315"><ele></ele><time>2014-5-10T0:54:14Z</time></trkpt>
<trkpt lat="46.36668884" lon="6.95747836"><ele></ele><time>2014-5-10T0:54:17Z</time></trkpt>
<trkpt lat="46.36686813" lon="6.95742027"><ele></ele><time>2014-5-10T0:54:20Z</time></trkpt>
<trkpt lat="46.36704943" lon="6.95736327"><ele></ele><time>2014-5-10T0:54:23Z</time></trkpt>
<trkpt lat="46.36725563" lon="6.95730468"><ele></ele><time>2014-5-10T0:54:26Z</time></trkpt>
<trkpt lat="46.36745528" lon="6.95724090"><ele></ele><time>2014-5-10T0:54:29Z</time></trkpt>
<trkpt lat="46.36768394" lon="6.95718625"><ele></ele><time>2014-5-10T0:54:32Z</time></trkpt>
<trkpt lat="46.36789215" lon="6.95716755"><ele></ele><time>2014-5-10T0:54:35Z</time></trkpt>
<trkpt lat="46.36812642" lon="6.95716957"><ele></ele><time>2014-5-10T0:54:38Z</time></trkpt>
<trkpt lat="46.36825726" lon="6.95719387"><ele></ele><time>2014-5-10T0:54:41Z</time></trkpt>
<trkpt lat="46.36836732" lon="6.95721458"><ele></ele><time>2014-5-10T0:54:44Z</time></trkpt>
<trkpt lat="46.36851694" lon="6.95727585"><ele></ele><time>2014-5-10T0:54:47Z</time></trkpt>
<trkpt lat="46.36865088" lon="6.95733586"><ele></ele><time>2014-5-10T0:54:50Z</time></trkpt>
<trkpt lat="46.36877535" lon="6.95740686"><ele></ele><time>2014-5-10T0:54:53Z</time></trkpt>
<trkpt lat="46.36901474" lon="6.95755790"><ele></ele><time>2014-5-10T0:54:56Z</time></trkpt>
<trkpt lat="46.36914952" lon="6.95767122"><ele></ele><time>2014-5-10T0:54:59Z</time></trkpt>
<trkpt lat="46.36928916" lon="6.95781288"><ele></ele><time>2014-5-10T0:55:2Z</time></trkpt>
<trkpt lat="46.36939754" lon="6.95804422"><ele></ele><time>2014-5-10T0:55:5Z</time></trkpt>
<trkpt lat="46.36946904" lon="6.95835158"><ele></ele><time>2014-5-10T0:55:8Z</time></trkpt>
<trkpt lat="46.36944230" lon="6.95858477"><ele></ele><time>2014-5-10T0:55:11Z</time></trkpt>
<trkpt lat="46.36938170" lon="6.95879859"><ele></ele><time>2014-5-10T0:55:14Z</time></trkpt>
<trkpt lat="46.36937725" lon="6.95898023"><ele></ele><time>2014-5-10T0:55:17Z</time></trkpt>
<trkpt lat="46.36945378" lon="6.95910495"><ele></ele><time>2014-5-10T0:55:20Z</time></trkpt>
<trkpt lat="46.36959619" lon="6.95931626"><ele></ele><time>2014-5-10T0:55:23Z</time></trkpt>
<trkpt lat="46.36975637" lon="6.95947752"><ele></ele><time>2014-5-10T0:55:26Z</time></trkpt>
<trkpt lat="46.36991604" lon="6.95963326"><ele></ele><time>2014-5-10T0:55:29Z</time></trkpt>
<trkpt lat="46.37002853" lon="6.95971155"><ele></ele><time>2014-5-10T0:55:32Z</time></trkpt>
<trkpt lat="46.37017890" lon="6.95983702"><ele></ele><time>2014-5-10T0:55:35Z</time></trkpt>
<trkpt lat="46.37031225" lon="6.95999058"><ele></ele><time>2014-5-10T0:55:38Z</time></trkpt>
<trkpt lat="46.37036975" lon="6.96022376"><ele></ele><time>2014-5-10T0:55:41Z</time></trkpt>
<trkpt lat="46.37038845" lon="6.96054219"><ele></ele><time>2014-5-10T0:55:44Z</time></trkpt>
<trkpt lat="46.37042583" lon="6.96086515"><ele></ele><time>2014-5-10T0:55:47Z</time></trkpt>
<trkpt lat="46.37048149" lon="6.96111023"><ele></ele><time>2014-5-10T0:55:50Z</time></trkpt>
<trkpt lat="46.37055139" lon="6.96141760"><ele></ele><time>2014-5-10T0:55:53Z</time></trkpt>
<trkpt lat="46.37057603" lon="6.96166218"><ele></ele><time>2014-5-10T0:55:56Z</time></trkpt>
<trkpt lat="46.37053119" lon="6.96179872"><ele></ele><time>2014-5-10T0:55:59Z</time></trkpt>
<trkpt lat="46.37035073" lon="6.96192998"><ele></ele><time>2014-5-10T0:56:2Z</time></trkpt>
<trkpt lat="46.37017194" lon="6.96205454"><ele></ele><time>2014-5-10T0:56:5Z</time></trkpt>
<trkpt lat="46.36999592" lon="6.96213895"><ele></ele><time>2014-5-10T0:56:8Z</time></trkpt>
<trkpt lat="46.36981797" lon="6.96222369"><ele></ele><time>2014-5-10T0:56:11Z</time></trkpt>
<trkpt lat="46.36959636" lon="6.96246123"><ele></ele><time>2014-5-10T0:56:14Z</time></trkpt>
<trkpt lat="46.36933677" lon="6.96274973"><ele></ele><time>2014-5-10T0:56:17Z</time></trkpt>
<trkpt lat="46.36930316" lon="6.96278209"><ele></ele><time>2014-5-10T0:56:20Z</time></trkpt>
<trkpt lat="46.36923359" lon="6.96284696"><ele></ele><time>2014-5-10T0:56:23Z</time></trkpt>
<trkpt lat="46.36914114" lon="6.96296825"><ele></ele><time>2014-5-10T0:56:26Z</time></trkpt>
<trkpt lat="46.36898649" lon="6.96317528"><ele></ele><time>2014-5-10T0:56:29Z</time></trkpt>
<trkpt lat="46.36885665" lon="6.96332666"><ele></ele><time>2014-5-10T0:56:32Z</time></trkpt>
<trkpt lat="46.36874249" lon="6.96364207"><ele></ele><time>2014-5-10T0:56:35Z</time></trkpt>
<trkpt lat="46.36875079" lon="6.96377015"><ele></ele><time>2014-5-10T0:56:38Z</time></trkpt>
<trkpt lat="46.36887828" lon="6.96411029"><ele></ele><time>2014-5-10T0:56:41Z</time></trkpt>
<trkpt lat="46.36919738" lon="6.96456802"><ele></ele><time>2014-5-10T0:56:44Z</time></trkpt>
<trkpt lat="46.36931330" lon="6.96487958"><ele></ele><time>2014-5-10T0:56:47Z</time></trkpt>
<trkpt lat="46.36942034" lon="6.96537537"><ele></ele><time>2014-5-10T0:56:50Z</time></trkpt>
<trkpt lat="46.36948127" lon="6.96558977"><ele></ele><time>2014-5-10T0:56:53Z</time></trkpt>
<trkpt lat="46.36956308" lon="6.96574668"><ele></ele><time>2014-5-10T0:56:56Z</time></trkpt>
<trkpt lat="46.36974807" lon="6.96593905"><ele></ele><time>2014-5-10T0:56:59Z</time></trkpt>
<trkpt lat="46.36995519" lon="6.96619235"><ele></ele><time>2014-5-10T0:57:2Z</time></trkpt>
<trkpt lat="46.37024872" lon="6.96669149"><ele></ele><time>2014-5-10T0:57:5Z</time></trkpt>
<trkpt lat="46.37038643" lon="6.96698436"><ele></ele><time>2014-5-10T0:57:8Z</time></trkpt>
<trkpt lat="46.37039306" lon="6.96742114"><ele></ele><time>2014-5-10T0:57:11Z</time></trkpt>
<trkpt lat="46.37028895" lon="6.96762222"><ele></ele><time>2014-5-10T0:57:14Z</time></trkpt>
<trkpt lat="46.37022852" lon="6.96812346"><ele></ele><time>2014-5-10T0:57:17Z</time></trkpt>
<trkpt lat="46.37026599" lon="6.96825346"><ele></ele><time>2014-5-10T0:57:20Z</time></trkpt>
<trkpt lat="46.37032525" lon="6.96892192"><ele></ele><time>2014-5-10T0:57:23Z</time></trkpt>
<trkpt lat="46.37049146" lon="6.96926909"><ele></ele><time>2014-5-10T0:57:26Z</time></trkpt>
<trkpt lat="46.37063605" lon="6.96942810"><ele></ele><time>2014-5-10T0:57:29Z</time></trkpt>
<trkpt lat="46.37064527" lon="6.96965667"><ele></ele><time>2014-5-10T0:57:32Z</time></trkpt>
<trkpt lat="46.37062767" lon="6.96974175"><ele></ele><time>2014-5-10T0:57:35Z</time></trkpt>
<trkpt lat="46.37055516" lon="6.97001793"><ele></ele><time>2014-5-10T0:57:38Z</time></trkpt>
<trkpt lat="46.37062264" lon="6.97041700"><ele></ele><time>2014-5-10T0:57:41Z</time></trkpt>
<trkpt lat="46.37075323" lon="6.97051439"><ele></ele><time>2014-5-10T0:57:44Z</time></trkpt>
<trkpt lat="46.37089597" lon="6.97048347"><ele></ele><time>2014-5-10T0:57:47Z</time></trkpt>
<trkpt lat="46.37110728" lon="6.97032765"><ele></ele><time>2014-5-10T0:57:50Z</time></trkpt>
<trkpt lat="46.37136418" lon="6.97033242"><ele></ele><time>2014-5-10T0:57:53Z</time></trkpt>
<trkpt lat="46.37143912" lon="6.97038732"><ele></ele><time>2014-5-10T0:57:56Z</time></trkpt>
<trkpt lat="46.37169703" lon="6.97065018"><ele></ele><time>2014-5-10T0:57:59Z</time></trkpt>
<trkpt lat="46.37197590" lon="6.97075697"><ele></ele><time>2014-5-10T0:58:2Z</time></trkpt>
<trkpt lat="46.37224286" lon="6.97059905"><ele></ele><time>2014-5-10T0:58:5Z</time></trkpt>
<trkpt lat="46.37244754" lon="6.97030216"><ele></ele><time>2014-5-10T0:58:8Z</time></trkpt>
<trkpt lat="46.37248719" lon="6.97021206"><ele></ele><time>2014-5-10T0:58:11Z</time></trkpt>
<trkpt lat="46.37268743" lon="6.96963664"><ele></ele><time>2014-5-10T0:58:14Z</time></trkpt>
<trkpt lat="46.37272633" lon="6.96922207"><ele></ele><time>2014-5-10T0:58:17Z</time></trkpt>
<trkpt lat="46.37269163" lon="6.96900984"><ele></ele><time>2014-5-10T0:58:20Z</time></trkpt>
<trkpt lat="46.37276949" lon="6.96862419"><ele></ele><time>2014-5-10T0:58:23Z</time></trkpt>
<trkpt lat="46.37303042" lon="6.96841389"><ele></ele><time>2014-5-10T0:58:26Z</time></trkpt>
<trkpt lat="46.37362403" lon="6.96815489"><ele></ele><time>2014-5-10T0:58:29Z</time></trkpt>
<trkpt lat="46.37370056" lon="6.96813385"><ele></ele><time>2014-5-10T0:58:32Z</time></trkpt>
<trkpt lat="46.37408327" lon="6.96816394"><ele></ele><time>2014-5-10T0:58:35Z</time></trkpt>
<trkpt lat="46.37415980" lon="6.96818213"><ele></ele><time>2014-5-10T0:58:38Z</time></trkpt>
<trkpt lat="46.37442869" lon="6.96836796"><ele></ele><time>2014-5-10T0:58:41Z</time></trkpt>
<trkpt lat="46.37475232" lon="6.96858983"><ele></ele><time>2014-5-10T0:58:44Z</time></trkpt>
<trkpt lat="46.37482516" lon="6.96858253"><ele></ele><time>2014-5-10T0:58:47Z</time></trkpt>
<trkpt lat="46.37527778" lon="6.96866820"><ele></ele><time>2014-5-10T0:58:50Z</time></trkpt>
<trkpt lat="46.37564113" lon="6.96883332"><ele></ele><time>2014-5-10T0:58:53Z</time></trkpt>
<trkpt lat="46.37602746" lon="6.96889518"><ele></ele><time>2014-5-10T0:58:56Z</time></trkpt>
<trkpt lat="46.37629987" lon="6.96911143"><ele></ele><time>2014-5-10T0:58:59Z</time></trkpt>
<trkpt lat="46.37644487" lon="6.96939114"><ele></ele><time>2014-5-10T0:59:2Z</time></trkpt>
<trkpt lat="46.37673489" lon="6.97020024"><ele></ele><time>2014-5-10T0:59:5Z</time></trkpt>
<trkpt lat="46.37698509" lon="6.97072662"><ele></ele><time>2014-5-10T0:59:8Z</time></trkpt>
<trkpt lat="46.37702968" lon="6.97080969"><ele></ele><time>2014-5-10T0:59:11Z</time></trkpt>
<trkpt lat="46.37729656" lon="6.97127170"><ele></ele><time>2014-5-10T0:59:14Z</time></trkpt>
<trkpt lat="46.37756562" lon="6.97168149"><ele></ele><time>2014-5-10T0:59:17Z</time></trkpt>
<trkpt lat="46.37780249" lon="6.97217594"><ele></ele><time>2014-5-10T0:59:20Z</time></trkpt>
<trkpt lat="46.37797977" lon="6.97243863"><ele></ele><time>2014-5-10T0:59:23Z</time></trkpt>
<trkpt lat="46.37805093" lon="6.97251138"><ele></ele><time>2014-5-10T0:59:26Z</time></trkpt>
<trkpt lat="46.37819996" lon="6.97265413"><ele></ele><time>2014-5-10T0:59:29Z</time></trkpt>
<trkpt lat="46.37852627" lon="6.97313885"><ele></ele><time>2014-5-10T0:59:32Z</time></trkpt>
<trkpt lat="46.37892298" lon="6.97376817"><ele></ele><time>2014-5-10T0:59:35Z</time></trkpt>
<trkpt lat="46.37898903" lon="6.97387076"><ele></ele><time>2014-5-10T0:59:38Z</time></trkpt>
<trkpt lat="46.37941509" lon="6.97449119"><ele></ele><time>2014-5-10T0:59:41Z</time></trkpt>
<trkpt lat="46.37985874" lon="6.97479947"><ele></ele><time>2014-5-10T0:59:44Z</time></trkpt>
<trkpt lat="46.38034506" lon="6.97507298"><ele></ele><time>2014-5-10T0:59:47Z</time></trkpt>
<trkpt lat="46.38041505" lon="6.97512008"><ele></ele><time>2014-5-10T0:59:50Z</time></trkpt>
<trkpt lat="46.38063893" lon="6.97538847"><ele></ele><time>2014-5-10T0:59:53Z</time></trkpt>
<trkpt lat="46.38092056" lon="6.97594545"><ele></ele><time>2014-5-10T0:59:56Z</time></trkpt>
<trkpt lat="46.38122097" lon="6.97651383"><ele></ele><time>2014-5-10T0:59:59Z</time></trkpt>
<trkpt lat="46.38143579" lon="6.97695262"><ele></ele><time>2014-5-10T1:0:2Z</time></trkpt>
<trkpt lat="46.38163227" lon="6.97741647"><ele></ele><time>2014-5-10T1:0:5Z</time></trkpt>
<trkpt lat="46.38178867" lon="6.97792928"><ele></ele><time>2014-5-10T1:0:8Z</time></trkpt>
<trkpt lat="46.38183645" lon="6.97849598"><ele></ele><time>2014-5-10T1:0:11Z</time></trkpt>
<trkpt lat="46.38177702" lon="6.97893854"><ele></ele><time>2014-5-10T1:0:14Z</time></trkpt>
<trkpt lat="46.38161877" lon="6.97940307"><ele></ele><time>2014-5-10T1:0:17Z</time></trkpt>
<trkpt lat="46.38148835" lon="6.97972686"><ele></ele><time>2014-5-10T1:0:20Z</time></trkpt>
<trkpt lat="46.38132742" lon="6.98047578"><ele></ele><time>2014-5-10T1:0:23Z</time></trkpt>
<trkpt lat="46.38112969" lon="6.98117517"><ele></ele><time>2014-5-10T1:0:26Z</time></trkpt>
<trkpt lat="46.38099398" lon="6.98145169"><ele></ele><time>2014-5-10T1:0:29Z</time></trkpt>
<trkpt lat="46.38067966" lon="6.98177028"><ele></ele><time>2014-5-10T1:0:32Z</time></trkpt>
<trkpt lat="46.38037255" lon="6.98194228"><ele></ele><time>2014-5-10T1:0:35Z</time></trkpt>
<trkpt lat="46.37997106" lon="6.98201688"><ele></ele><time>2014-5-10T1:0:38Z</time></trkpt>
<trkpt lat="46.37957769" lon="6.98199894"><ele></ele><time>2014-5-10T1:0:41Z</time></trkpt>
<trkpt lat="46.37936085" lon="6.98195418"><ele></ele><time>2014-5-10T1:0:44Z</time></trkpt>
<trkpt lat="46.37911803" lon="6.98206105"><ele></ele><time>2014-5-10T1:0:47Z</time></trkpt>
<trkpt lat="46.37903128" lon="6.98225124"><ele></ele><time>2014-5-10T1:0:50Z</time></trkpt>
<trkpt lat="46.37900203" lon="6.98270135"><ele></ele><time>2014-5-10T1:0:53Z</time></trkpt>
<trkpt lat="46.37915407" lon="6.98302078"><ele></ele><time>2014-5-10T1:0:56Z</time></trkpt>
<trkpt lat="46.37930285" lon="6.98305297"><ele></ele><time>2014-5-10T1:0:59Z</time></trkpt>
<trkpt lat="46.37939229" lon="6.98297225"><ele></ele><time>2014-5-10T1:1:2Z</time></trkpt>
<trkpt lat="46.37955607" lon="6.98275650"><ele></ele><time>2014-5-10T1:1:5Z</time></trkpt>
<trkpt lat="46.37980702" lon="6.98260345"><ele></ele><time>2014-5-10T1:1:8Z</time></trkpt>
<trkpt lat="46.37992085" lon="6.98261065"><ele></ele><time>2014-5-10T1:1:11Z</time></trkpt>
<trkpt lat="46.38041924" lon="6.98272247"><ele></ele><time>2014-5-10T1:1:14Z</time></trkpt>
<trkpt lat="46.38090086" lon="6.98275859"><ele></ele><time>2014-5-10T1:1:17Z</time></trkpt>
<trkpt lat="46.38145566" lon="6.98257813"><ele></ele><time>2014-5-10T1:1:20Z</time></trkpt>
<trkpt lat="46.38163872" lon="6.98251812"><ele></ele><time>2014-5-10T1:1:23Z</time></trkpt>
<trkpt lat="46.38181977" lon="6.98245693"><ele></ele><time>2014-5-10T1:1:26Z</time></trkpt>
<trkpt lat="46.38218044" lon="6.98248962"><ele></ele><time>2014-5-10T1:1:29Z</time></trkpt>
<trkpt lat="46.38233417" lon="6.98261417"><ele></ele><time>2014-5-10T1:1:32Z</time></trkpt>
<trkpt lat="46.38288310" lon="6.98313855"><ele></ele><time>2014-5-10T1:1:35Z</time></trkpt>
<trkpt lat="46.38323799" lon="6.98345102"><ele></ele><time>2014-5-10T1:1:38Z</time></trkpt>
<trkpt lat="46.38363345" lon="6.98363920"><ele></ele><time>2014-5-10T1:1:41Z</time></trkpt>
<trkpt lat="46.38390318" lon="6.98394665"><ele></ele><time>2014-5-10T1:1:44Z</time></trkpt>
<trkpt lat="46.38428874" lon="6.98423867"><ele></ele><time>2014-5-10T1:1:47Z</time></trkpt>
<trkpt lat="46.38464103" lon="6.98433758"><ele></ele><time>2014-5-10T1:1:50Z</time></trkpt>
<trkpt lat="46.38494396" lon="6.98454536"><ele></ele><time>2014-5-10T1:1:53Z</time></trkpt>
<trkpt lat="46.38533656" lon="6.98489539"><ele></ele><time>2014-5-10T1:1:56Z</time></trkpt>
<trkpt lat="46.38562297" lon="6.98526420"><ele></ele><time>2014-5-10T1:1:59Z</time></trkpt>
<trkpt lat="46.38576480" lon="6.98551959"><ele></ele><time>2014-5-10T1:2:2Z</time></trkpt>
<trkpt lat="46.38587502" lon="6.98591983"><ele></ele><time>2014-5-10T1:2:5Z</time></trkpt>
<trkpt lat="46.38602103" lon="6.98643004"><ele></ele><time>2014-5-10T1:2:8Z</time></trkpt>
<trkpt lat="46.38609638" lon="6.98662584"><ele></ele><time>2014-5-10T1:2:11Z</time></trkpt>
<trkpt lat="46.38633125" lon="6.98699540"><ele></ele><time>2014-5-10T1:2:14Z</time></trkpt>
<trkpt lat="46.38641615" lon="6.98714887"><ele></ele><time>2014-5-10T1:2:17Z</time></trkpt>
<trkpt lat="46.38662243" lon="6.98780693"><ele></ele><time>2014-5-10T1:2:20Z</time></trkpt>
<trkpt lat="46.38674858" lon="6.98841747"><ele></ele><time>2014-5-10T1:2:23Z</time></trkpt>
<trkpt lat="46.38682469" lon="6.98888962"><ele></ele><time>2014-5-10T1:2:26Z</time></trkpt>
<trkpt lat="46.38694723" lon="6.98926899"><ele></ele><time>2014-5-10T1:2:29Z</time></trkpt>
<trkpt lat="46.38710255" lon="6.98940486"><ele></ele><time>2014-5-10T1:2:32Z</time></trkpt>
<trkpt lat="46.38723238" lon="6.98936320"><ele></ele><time>2014-5-10T1:2:35Z</time></trkpt>
<trkpt lat="46.38730707" lon="6.98929598"><ele></ele><time>2014-5-10T1:2:38Z</time></trkpt>
<trkpt lat="46.38743196" lon="6.98912758"><ele></ele><time>2014-5-10T1:2:41Z</time></trkpt>
<trkpt lat="46.38763052" lon="6.98898920"><ele></ele><time>2014-5-10T1:2:44Z</time></trkpt>
<trkpt lat="46.38772817" lon="6.98897612"><ele></ele><time>2014-5-10T1:2:47Z</time></trkpt>
<trkpt lat="46.38801282" lon="6.98908769"><ele></ele><time>2014-5-10T1:2:50Z</time></trkpt>
<trkpt lat="46.38832128" lon="6.98923177"><ele></ele><time>2014-5-10T1:2:53Z</time></trkpt>
<trkpt lat="46.38868195" lon="6.98946713"><ele></ele><time>2014-5-10T1:2:56Z</time></trkpt>
<trkpt lat="46.38875127" lon="6.98953033"><ele></ele><time>2014-5-10T1:2:59Z</time></trkpt>
<trkpt lat="46.38876057" lon="6.98962689"><ele></ele><time>2014-5-10T1:3:2Z</time></trkpt>
<trkpt lat="46.38871673" lon="6.98961030"><ele></ele><time>2014-5-10T1:3:5Z</time></trkpt>
<trkpt lat="46.38846394" lon="6.98948298"><ele></ele><time>2014-5-10T1:3:8Z</time></trkpt>
<trkpt lat="46.38822438" lon="6.98936982"><ele></ele><time>2014-5-10T1:3:11Z</time></trkpt>
<trkpt lat="46.38807158" lon="6.98927226"><ele></ele><time>2014-5-10T1:3:14Z</time></trkpt>
<trkpt lat="46.38793713" lon="6.98921777"><ele></ele><time>2014-5-10T1:3:17Z</time></trkpt>
<trkpt lat="46.38782565" lon="6.98933604"><ele></ele><time>2014-5-10T1:3:20Z</time></trkpt>
<trkpt lat="46.38769356" lon="6.98954509"><ele></ele><time>2014-5-10T1:3:23Z</time></trkpt>
<trkpt lat="46.38762533" lon="6.98968716"><ele></ele><time>2014-5-10T1:3:26Z</time></trkpt>
<trkpt lat="46.38769297" lon="6.98981113"><ele></ele><time>2014-5-10T1:3:29Z</time></trkpt>
<trkpt lat="46.38779942" lon="6.98984600"><ele></ele><time>2014-5-10T1:3:32Z</time></trkpt>
<trkpt lat="46.38806932" lon="6.98995119"><ele></ele><time>2014-5-10T1:3:35Z</time></trkpt>
<trkpt lat="46.38828884" lon="6.99004373"><ele></ele><time>2014-5-10T1:3:38Z</time></trkpt>
<trkpt lat="46.38847559" lon="6.99019284"><ele></ele><time>2014-5-10T1:3:41Z</time></trkpt>
<trkpt lat="46.38863845" lon="6.99037515"><ele></ele><time>2014-5-10T1:3:44Z</time></trkpt>
<trkpt lat="46.38884146" lon="6.99052552"><ele></ele><time>2014-5-10T1:3:47Z</time></trkpt>
<trkpt lat="46.38902326" lon="6.99054815"><ele></ele><time>2014-5-10T1:3:50Z</time></trkpt>
<trkpt lat="46.38928595" lon="6.99059903"><ele></ele><time>2014-5-10T1:3:53Z</time></trkpt>
<trkpt lat="46.38939248" lon="6.99073490"><ele></ele><time>2014-5-10T1:3:56Z</time></trkpt>
<trkpt lat="46.38941704" lon="6.99091159"><ele></ele><time>2014-5-10T1:3:59Z</time></trkpt>
<trkpt lat="46.38932702" lon="6.99112809"><ele></ele><time>2014-5-10T1:4:2Z</time></trkpt>
<trkpt lat="46.38918042" lon="6.99118056"><ele></ele><time>2014-5-10T1:4:5Z</time></trkpt>
<trkpt lat="46.38895864" lon="6.99113823"><ele></ele><time>2014-5-10T1:4:8Z</time></trkpt>
<trkpt lat="46.38874515" lon="6.99108115"><ele></ele><time>2014-5-10T1:4:11Z</time></trkpt>
<trkpt lat="46.38853393" lon="6.99101862"><ele></ele><time>2014-5-10T1:4:14Z</time></trkpt>
<trkpt lat="46.38835363" lon="6.99093112"><ele></ele><time>2014-5-10T1:4:17Z</time></trkpt>
<trkpt lat="46.38817225" lon="6.99077706"><ele></ele><time>2014-5-10T1:4:20Z</time></trkpt>
<trkpt lat="46.38794828" lon="6.99058168"><ele></ele><time>2014-5-10T1:4:23Z</time></trkpt>
<trkpt lat="46.38780017" lon="6.99046165"><ele></ele><time>2014-5-10T1:4:26Z</time></trkpt>
<trkpt lat="46.38768584" lon="6.99046668"><ele></ele><time>2014-5-10T1:4:29Z</time></trkpt>
<trkpt lat="46.38761032" lon="6.99062937"><ele></ele><time>2014-5-10T1:4:32Z</time></trkpt>
<trkpt lat="46.38767034" lon="6.99077932"><ele></ele><time>2014-5-10T1:4:35Z</time></trkpt>
<trkpt lat="46.38785248" lon="6.99089784"><ele></ele><time>2014-5-10T1:4:38Z</time></trkpt>
<trkpt lat="46.38809689" lon="6.99097646"><ele></ele><time>2014-5-10T1:4:41Z</time></trkpt>
<trkpt lat="46.38826428" lon="6.99113379"><ele></ele><time>2014-5-10T1:4:44Z</time></trkpt>
<trkpt lat="46.38840317" lon="6.99132448"><ele></ele><time>2014-5-10T1:4:47Z</time></trkpt>
<trkpt lat="46.38859226" lon="6.99149304"><ele></ele><time>2014-5-10T1:4:50Z</time></trkpt>
<trkpt lat="46.38882872" lon="6.99161818"><ele></ele><time>2014-5-10T1:4:53Z</time></trkpt>
<trkpt lat="46.38911219" lon="6.99176244"><ele></ele><time>2014-5-10T1:4:56Z</time></trkpt>
<trkpt lat="46.38927229" lon="6.99192362"><ele></ele><time>2014-5-10T1:4:59Z</time></trkpt>
<trkpt lat="46.38934655" lon="6.99214239"><ele></ele><time>2014-5-10T1:5:2Z</time></trkpt>
<trkpt lat="46.38933750" lon="6.99239686"><ele></ele><time>2014-5-10T1:5:5Z</time></trkpt>
<trkpt lat="46.38923717" lon="6.99263155"><ele></ele><time>2014-5-10T1:5:8Z</time></trkpt>
<trkpt lat="46.38911655" lon="6.99272116"><ele></ele><time>2014-5-10T1:5:11Z</time></trkpt>
<trkpt lat="46.38902284" lon="6.99276784"><ele></ele><time>2014-5-10T1:5:14Z</time></trkpt>
<trkpt lat="46.38900273" lon="6.99278804"><ele></ele><time>2014-5-10T1:5:17Z</time></trkpt>
<trkpt lat="46.38891120" lon="6.99275787"><ele></ele><time>2014-5-10T1:5:20Z</time></trkpt>
<trkpt lat="46.38885319" lon="6.99270783"><ele></ele><time>2014-5-10T1:5:23Z</time></trkpt>
<trkpt lat="46.38875705" lon="6.99257934"><ele></ele><time>2014-5-10T1:5:26Z</time></trkpt>
<trkpt lat="46.38867030" lon="6.99239552"><ele></ele><time>2014-5-10T1:5:29Z</time></trkpt>
<trkpt lat="46.38863082" lon="6.99222252"><ele></ele><time>2014-5-10T1:5:32Z</time></trkpt>
<trkpt lat="46.38859386" lon="6.99225646"><ele></ele><time>2014-5-10T1:5:35Z</time></trkpt>
<trkpt lat="46.38861112" lon="6.99232612"><ele></ele><time>2014-5-10T1:5:38Z</time></trkpt>
<trkpt lat="46.38864130" lon="6.99242176"><ele></ele><time>2014-5-10T1:5:41Z</time></trkpt>
<trkpt lat="46.38877390" lon="6.99264899"><ele></ele><time>2014-5-10T1:5:44Z</time></trkpt>
<trkpt lat="46.38901589" lon="6.99276097"><ele></ele><time>2014-5-10T1:5:47Z</time></trkpt>
<trkpt lat="46.38921646" lon="6.99265226"><ele></ele><time>2014-5-10T1:5:50Z</time></trkpt>
<trkpt lat="46.38939517" lon="6.99249619"><ele></ele><time>2014-5-10T1:5:53Z</time></trkpt>
<trkpt lat="46.38951067" lon="6.99255318"><ele></ele><time>2014-5-10T1:5:56Z</time></trkpt>
<trkpt lat="46.38979146" lon="6.99278494"><ele></ele><time>2014-5-10T1:5:59Z</time></trkpt>
<trkpt lat="46.38994033" lon="6.99309046"><ele></ele><time>2014-5-10T1:6:2Z</time></trkpt>
<trkpt lat="46.38994862" lon="6.99338207"><ele></ele><time>2014-5-10T1:6:5Z</time></trkpt>
<trkpt lat="46.38996153" lon="6.99342960"><ele></ele><time>2014-5-10T1:6:8Z</time></trkpt>
<trkpt lat="46.39003957" lon="6.99353370"><ele></ele><time>2014-5-10T1:6:11Z</time></trkpt>
<trkpt lat="46.39012766" lon="6.99360293"><ele></ele><time>2014-5-10T1:6:14Z</time></trkpt>
<trkpt lat="46.39029924" lon="6.99386680"><ele></ele><time>2014-5-10T1:6:17Z</time></trkpt>
<trkpt lat="46.39028826" lon="6.99405706"><ele></ele><time>2014-5-10T1:6:20Z</time></trkpt>
<trkpt lat="46.39026345" lon="6.99447415"><ele></ele><time>2014-5-10T1:6:23Z</time></trkpt>
<trkpt lat="46.39028524" lon="6.99457926"><ele></ele><time>2014-5-10T1:6:26Z</time></trkpt>
<trkpt lat="46.39036403" lon="6.99483817"><ele></ele><time>2014-5-10T1:6:29Z</time></trkpt>
<trkpt lat="46.39039144" lon="6.99500933"><ele></ele><time>2014-5-10T1:6:32Z</time></trkpt>
<trkpt lat="46.39040527" lon="6.99504286"><ele></ele><time>2014-5-10T1:6:35Z</time></trkpt>
<trkpt lat="46.39039932" lon="6.99512634"><ele></ele><time>2014-5-10T1:6:38Z</time></trkpt>
<trkpt lat="46.39039664" lon="6.99516482"><ele></ele><time>2014-5-10T1:6:41Z</time></trkpt>
<trkpt lat="46.39040787" lon="6.99529390"><ele></ele><time>2014-5-10T1:6:44Z</time></trkpt>
<trkpt lat="46.39040242" lon="6.99538576"><ele></ele><time>2014-5-10T1:6:47Z</time></trkpt>
<trkpt lat="46.39041114" lon="6.99546950"><ele></ele><time>2014-5-10T1:6:50Z</time></trkpt>
<trkpt lat="46.39041348" lon="6.99560956"><ele></ele><time>2014-5-10T1:6:53Z</time></trkpt>
<trkpt lat="46.39041482" lon="6.99562406"><ele></ele><time>2014-5-10T1:6:56Z</time></trkpt>
<trkpt lat="46.39041667" lon="6.99563806"><ele></ele><time>2014-5-10T1:6:59Z</time></trkpt>
<trkpt lat="46.39041583" lon="6.99574845"><ele></ele><time>2014-5-10T1:7:2Z</time></trkpt>
<trkpt lat="46.39043016" lon="6.99592598"><ele></ele><time>2014-5-10T1:7:5Z</time></trkpt>
<trkpt lat="46.39044156" lon="6.99607023"><ele></ele><time>2014-5-10T1:7:8Z</time></trkpt>
<trkpt lat="46.39045397" lon="6.99612035"><ele></ele><time>2014-5-10T1:7:11Z</time></trkpt>
<trkpt lat="46.39051926" lon="6.99623896"><ele></ele><time>2014-5-10T1:7:14Z</time></trkpt>
<trkpt lat="46.39061339" lon="6.99639226"><ele></ele><time>2014-5-10T1:7:17Z</time></trkpt>
<trkpt lat="46.39069956" lon="6.99656552"><ele></ele><time>2014-5-10T1:7:20Z</time></trkpt>
<trkpt lat="46.39075924" lon="6.99668446"><ele></ele><time>2014-5-10T1:7:23Z</time></trkpt>
<trkpt lat="46.39080006" lon="6.99679325"><ele></ele><time>2014-5-10T1:7:26Z</time></trkpt>
<trkpt lat="46.39085353" lon="6.99692837"><ele></ele><time>2014-5-10T1:7:29Z</time></trkpt>
<trkpt lat="46.39087516" lon="6.99698956"><ele></ele><time>2014-5-10T1:7:32Z</time></trkpt>
<trkpt lat="46.39092956" lon="6.99712568"><ele></ele><time>2014-5-10T1:7:35Z</time></trkpt>
<trkpt lat="46.39098773" lon="6.99725694"><ele></ele><time>2014-5-10T1:7:38Z</time></trkpt>
<trkpt lat="46.39103140" lon="6.99736658"><ele></ele><time>2014-5-10T1:7:41Z</time></trkpt>
<trkpt lat="46.39110013" lon="6.99751879"><ele></ele><time>2014-5-10T1:7:44Z</time></trkpt>
<trkpt lat="46.39116936" lon="6.99763220"><ele></ele><time>2014-5-10T1:7:47Z</time></trkpt>
<trkpt lat="46.39123675" lon="6.99772817"><ele></ele><time>2014-5-10T1:7:50Z</time></trkpt>
<trkpt lat="46.39129333" lon="6.99779196"><ele></ele><time>2014-5-10T1:7:53Z</time></trkpt>
<trkpt lat="46.39134857" lon="6.99786186"><ele></ele><time>2014-5-10T1:7:56Z</time></trkpt>
<trkpt lat="46.39136173" lon="6.99787335"><ele></ele><time>2014-5-10T1:7:59Z</time></trkpt>
<trkpt lat="46.39143214" lon="6.99797058"><ele></ele><time>2014-5-10T1:8:2Z</time></trkpt>
<trkpt lat="46.39152040" lon="6.99808633"><ele></ele><time>2014-5-10T1:8:5Z</time></trkpt>
<trkpt lat="46.39159609" lon="6.99818633"><ele></ele><time>2014-5-10T1:8:8Z</time></trkpt>
<trkpt lat="46.39169600" lon="6.99832094"><ele></ele><time>2014-5-10T1:8:11Z</time></trkpt>
<trkpt lat="46.39175920" lon="6.99840995"><ele></ele><time>2014-5-10T1:8:14Z</time></trkpt>
<trkpt lat="46.39184972" lon="6.99852495"><ele></ele><time>2014-5-10T1:8:17Z</time></trkpt>
<trkpt lat="46.39185802" lon="6.99853770"><ele></ele><time>2014-5-10T1:8:20Z</time></trkpt>
<trkpt lat="46.39194075" lon="6.99863794"><ele></ele><time>2014-5-10T1:8:23Z</time></trkpt>
<trkpt lat="46.39199087" lon="6.99870399"><ele></ele><time>2014-5-10T1:8:26Z</time></trkpt>
<trkpt lat="46.39209003" lon="6.99884062"><ele></ele><time>2014-5-10T1:8:29Z</time></trkpt>
<trkpt lat="46.39218567" lon="6.99897339"><ele></ele><time>2014-5-10T1:8:32Z</time></trkpt>
<trkpt lat="46.39227854" lon="6.99910196"><ele></ele><time>2014-5-10T1:8:35Z</time></trkpt>
<trkpt lat="46.39234744" lon="6.99918889"><ele></ele><time>2014-5-10T1:8:38Z</time></trkpt>
<trkpt lat="46.39241994" lon="6.99929869"><ele></ele><time>2014-5-10T1:8:41Z</time></trkpt>
<trkpt lat="46.39249748" lon="6.99940690"><ele></ele><time>2014-5-10T1:8:44Z</time></trkpt>
<trkpt lat="46.39258859" lon="6.99953238"><ele></ele><time>2014-5-10T1:8:47Z</time></trkpt>
<trkpt lat="46.39269177" lon="6.99966850"><ele></ele><time>2014-5-10T1:8:50Z</time></trkpt>
<trkpt lat="46.39275245" lon="6.99979339"><ele></ele><time>2014-5-10T1:8:53Z</time></trkpt>
<trkpt lat="46.39276452" lon="6.99980814"><ele></ele><time>2014-5-10T1:8:56Z</time></trkpt>
<trkpt lat="46.39274826" lon="6.99980705"><ele></ele><time>2014-5-10T1:8:59Z</time></trkpt>
<trkpt lat="46.39274105" lon="6.99980487"><ele></ele><time>2014-5-10T1:9:2Z</time></trkpt>
<trkpt lat="46.39268003" lon="6.99967043"><ele></ele><time>2014-5-10T1:9:5Z</time></trkpt>
<trkpt lat="46.39266134" lon="6.99964126"><ele></ele><time>2014-5-10T1:9:8Z</time></trkpt>
<trkpt lat="46.39248868" lon="6.99938737"><ele></ele><time>2014-5-10T1:9:11Z</time></trkpt>
<trkpt lat="46.39231626" lon="6.99915125"><ele></ele><time>2014-5-10T1:9:14Z</time></trkpt>
<trkpt lat="46.39218357" lon="6.99896827"><ele></ele><time>2014-5-10T1:9:17Z</time></trkpt>
<trkpt lat="46.39203588" lon="6.99877105"><ele></ele><time>2014-5-10T1:9:20Z</time></trkpt>
<trkpt lat="46.39190027" lon="6.99859804"><ele></ele><time>2014-5-10T1:9:23Z</time></trkpt>
<trkpt lat="46.39167588" lon="6.99830476"><ele></ele><time>2014-5-10T1:9:26Z</time></trkpt>
<trkpt lat="46.39155275" lon="6.99814358"><ele></ele><time>2014-5-10T1:9:29Z</time></trkpt>
<trkpt lat="46.39134019" lon="6.99785625"><ele></ele><time>2014-5-10T1:9:32Z</time></trkpt>
<trkpt lat="46.39116568" lon="6.99761837"><ele></ele><time>2014-5-10T1:9:35Z</time></trkpt>
<trkpt lat="46.39110742" lon="6.99752818"><ele></ele><time>2014-5-10T1:9:38Z</time></trkpt>
<trkpt lat="46.39095143" lon="6.99721604"><ele></ele><time>2014-5-10T1:9:41Z</time></trkpt>
<trkpt lat="46.39077206" lon="6.99679392"><ele></ele><time>2014-5-10T1:9:44Z</time></trkpt>
<trkpt lat="46.39064030" lon="6.99649335"><ele></ele><time>2014-5-10T1:9:47Z</time></trkpt>
<trkpt lat="46.39047593" lon="6.99616629"><ele></ele><time>2014-5-10T1:9:50Z</time></trkpt>
<trkpt lat="46.39038172" lon="6.99571819"><ele></ele><time>2014-5-10T1:9:53Z</time></trkpt>
<trkpt lat="46.39034576" lon="6.99525115"><ele></ele><time>2014-5-10T1:9:56Z</time></trkpt>
<trkpt lat="46.39031617" lon="6.99492509"><ele></ele><time>2014-5-10T1:9:59Z</time></trkpt>
<trkpt lat="46.39018977" lon="6.99431280"><ele></ele><time>2014-5-10T1:10:2Z</time></trkpt>
<trkpt lat="46.39020486" lon="6.99406972"><ele></ele><time>2014-5-10T1:10:5Z</time></trkpt>
<trkpt lat="46.39024442" lon="6.99375339"><ele></ele><time>2014-5-10T1:10:8Z</time></trkpt>
<trkpt lat="46.39018868" lon="6.99364074"><ele></ele><time>2014-5-10T1:10:11Z</time></trkpt>
<trkpt lat="46.39011249" lon="6.99357368"><ele></ele><time>2014-5-10T1:10:14Z</time></trkpt>
<trkpt lat="46.39003328" lon="6.99351568"><ele></ele><time>2014-5-10T1:10:17Z</time></trkpt>
<trkpt lat="46.38997184" lon="6.99348676"><ele></ele><time>2014-5-10T1:10:20Z</time></trkpt>
<trkpt lat="46.38990043" lon="6.99334133"><ele></ele><time>2014-5-10T1:10:23Z</time></trkpt>
<trkpt lat="46.38993504" lon="6.99308787"><ele></ele><time>2014-5-10T1:10:26Z</time></trkpt>
<trkpt lat="46.38991074" lon="6.99291034"><ele></ele><time>2014-5-10T1:10:29Z</time></trkpt>
<trkpt lat="46.38974897" lon="6.99271386"><ele></ele><time>2014-5-10T1:10:32Z</time></trkpt>
<trkpt lat="46.38950899" lon="6.99253156"><ele></ele><time>2014-5-10T1:10:35Z</time></trkpt>
<trkpt lat="46.38937304" lon="6.99237582"><ele></ele><time>2014-5-10T1:10:38Z</time></trkpt>
<trkpt lat="46.38934018" lon="6.99213099"><ele></ele><time>2014-5-10T1:10:41Z</time></trkpt>
<trkpt lat="46.38931638" lon="6.99199294"><ele></ele><time>2014-5-10T1:10:44Z</time></trkpt>
<trkpt lat="46.38917439" lon="6.99177274"><ele></ele><time>2014-5-10T1:10:47Z</time></trkpt>
<trkpt lat="46.38873576" lon="6.99153252"><ele></ele><time>2014-5-10T1:10:50Z</time></trkpt>
<trkpt lat="46.38859159" lon="6.99145205"><ele></ele><time>2014-5-10T1:10:53Z</time></trkpt>
<trkpt lat="46.38832279" lon="6.99118308"><ele></ele><time>2014-5-10T1:10:56Z</time></trkpt>
<trkpt lat="46.38794627" lon="6.99089340"><ele></ele><time>2014-5-10T1:10:59Z</time></trkpt>
<trkpt lat="46.38777478" lon="6.99083707"><ele></ele><time>2014-5-10T1:11:2Z</time></trkpt>
<trkpt lat="46.38759532" lon="6.99062216"><ele></ele><time>2014-5-10T1:11:5Z</time></trkpt>
<trkpt lat="46.38763916" lon="6.99048864"><ele></ele><time>2014-5-10T1:11:8Z</time></trkpt>
<trkpt lat="46.38775240" lon="6.99046777"><ele></ele><time>2014-5-10T1:11:11Z</time></trkpt>
<trkpt lat="46.38786756" lon="6.99055326"><ele></ele><time>2014-5-10T1:11:14Z</time></trkpt>
<trkpt lat="46.38824458" lon="6.99088477"><ele></ele><time>2014-5-10T1:11:17Z</time></trkpt>
<trkpt lat="46.38857466" lon="6.99106749"><ele></ele><time>2014-5-10T1:11:20Z</time></trkpt>
<trkpt lat="46.38886493" lon="6.99115248"><ele></ele><time>2014-5-10T1:11:23Z</time></trkpt>
<trkpt lat="46.38904514" lon="6.99120328"><ele></ele><time>2014-5-10T1:11:26Z</time></trkpt>
<trkpt lat="46.38912175" lon="6.99122172"><ele></ele><time>2014-5-10T1:11:29Z</time></trkpt>
<trkpt lat="46.38933239" lon="6.99113119"><ele></ele><time>2014-5-10T1:11:32Z</time></trkpt>
<trkpt lat="46.38939869" lon="6.99093950"><ele></ele><time>2014-5-10T1:11:35Z</time></trkpt>
<trkpt lat="46.38936432" lon="6.99072635"><ele></ele><time>2014-5-10T1:11:38Z</time></trkpt>
<trkpt lat="46.38924379" lon="6.99058369"><ele></ele><time>2014-5-10T1:11:41Z</time></trkpt>
<trkpt lat="46.38908453" lon="6.99053164"><ele></ele><time>2014-5-10T1:11:44Z</time></trkpt>
<trkpt lat="46.38891346" lon="6.99050440"><ele></ele><time>2014-5-10T1:11:47Z</time></trkpt>
<trkpt lat="46.38866477" lon="6.99036014"><ele></ele><time>2014-5-10T1:11:50Z</time></trkpt>
<trkpt lat="46.38851616" lon="6.99019577"><ele></ele><time>2014-5-10T1:11:53Z</time></trkpt>
<trkpt lat="46.38817099" lon="6.98995706"><ele></ele><time>2014-5-10T1:11:56Z</time></trkpt>
<trkpt lat="46.38807409" lon="6.98992194"><ele></ele><time>2014-5-10T1:11:59Z</time></trkpt>
<trkpt lat="46.38773463" lon="6.98981130"><ele></ele><time>2014-5-10T1:12:2Z</time></trkpt>
<trkpt lat="46.38766036" lon="6.98965103"><ele></ele><time>2014-5-10T1:12:5Z</time></trkpt>
<trkpt lat="46.38777168" lon="6.98940997"><ele></ele><time>2014-5-10T1:12:8Z</time></trkpt>
<trkpt lat="46.38793965" lon="6.98924392"><ele></ele><time>2014-5-10T1:12:11Z</time></trkpt>
<trkpt lat="46.38808340" lon="6.98927687"><ele></ele><time>2014-5-10T1:12:14Z</time></trkpt>
<trkpt lat="46.38838766" lon="6.98944425"><ele></ele><time>2014-5-10T1:12:17Z</time></trkpt>
<trkpt lat="46.38871514" lon="6.98962539"><ele></ele><time>2014-5-10T1:12:20Z</time></trkpt>
<trkpt lat="46.38907028" lon="6.98960125"><ele></ele><time>2014-5-10T1:12:23Z</time></trkpt>
<trkpt lat="46.38960279" lon="6.98928332"><ele></ele><time>2014-5-10T1:12:26Z</time></trkpt>
<trkpt lat="46.38979943" lon="6.98920989"><ele></ele><time>2014-5-10T1:12:29Z</time></trkpt>
<trkpt lat="46.39010713" lon="6.98918190"><ele></ele><time>2014-5-10T1:12:32Z</time></trkpt>
<trkpt lat="46.39030527" lon="6.98914192"><ele></ele><time>2014-5-10T1:12:35Z</time></trkpt>
<trkpt lat="46.39046344" lon="6.98897210"><ele></ele><time>2014-5-10T1:12:38Z</time></trkpt>
<trkpt lat="46.39070702" lon="6.98872592"><ele></ele><time>2014-5-10T1:12:41Z</time></trkpt>
<trkpt lat="46.39090718" lon="6.98866172"><ele></ele><time>2014-5-10T1:12:44Z</time></trkpt>
<trkpt lat="46.39111882" lon="6.98863246"><ele></ele><time>2014-5-10T1:12:47Z</time></trkpt>
<trkpt lat="46.39155418" lon="6.98873824"><ele></ele><time>2014-5-10T1:12:50Z</time></trkpt>
<trkpt lat="46.39175786" lon="6.98888342"><ele></ele><time>2014-5-10T1:12:53Z</time></trkpt>
<trkpt lat="46.39243964" lon="6.98952346"><ele></ele><time>2014-5-10T1:12:56Z</time></trkpt>
<trkpt lat="46.39273829" lon="6.98980216"><ele></ele><time>2014-5-10T1:12:59Z</time></trkpt>
<trkpt lat="46.39308387" lon="6.99031429"><ele></ele><time>2014-5-10T1:13:2Z</time></trkpt>
<trkpt lat="46.39349425" lon="6.99069475"><ele></ele><time>2014-5-10T1:13:5Z</time></trkpt>
<trkpt lat="46.39391787" lon="6.99088829"><ele></ele><time>2014-5-10T1:13:8Z</time></trkpt>
<trkpt lat="46.39427863" lon="6.99083338"><ele></ele><time>2014-5-10T1:13:11Z</time></trkpt>
<trkpt lat="46.39434384" lon="6.99077069"><ele></ele><time>2014-5-10T1:13:14Z</time></trkpt>
<trkpt lat="46.39455087" lon="6.99055930"><ele></ele><time>2014-5-10T1:13:17Z</time></trkpt>
<trkpt lat="46.39476964" lon="6.99046064"><ele></ele><time>2014-5-10T1:13:20Z</time></trkpt>
<trkpt lat="46.39489369" lon="6.99044748"><ele></ele><time>2014-5-10T1:13:23Z</time></trkpt>
<trkpt lat="46.39493493" lon="6.99044773"><ele></ele><time>2014-5-10T1:13:26Z</time></trkpt>
<trkpt lat="46.39497634" lon="6.99044715"><ele></ele><time>2014-5-10T1:13:29Z</time></trkpt>
<trkpt lat="46.39524263" lon="6.99054572"><ele></ele><time>2014-5-10T1:13:32Z</time></trkpt>
<trkpt lat="46.39534959" lon="6.99060858"><ele></ele><time>2014-5-10T1:13:35Z</time></trkpt>
<trkpt lat="46.39548152" lon="6.99070305"><ele></ele><time>2014-5-10T1:13:38Z</time></trkpt>
<trkpt lat="46.39574245" lon="6.99088384"><ele></ele><time>2014-5-10T1:13:41Z</time></trkpt>
<trkpt lat="46.39606968" lon="6.99110353"><ele></ele><time>2014-5-10T1:13:44Z</time></trkpt>
<trkpt lat="46.39632625" lon="6.99127570"><ele></ele><time>2014-5-10T1:13:47Z</time></trkpt>
<trkpt lat="46.39647310" lon="6.99140176"><ele></ele><time>2014-5-10T1:13:50Z</time></trkpt>
<trkpt lat="46.39667963" lon="6.99153663"><ele></ele><time>2014-5-10T1:13:53Z</time></trkpt>
<trkpt lat="46.39687275" lon="6.99163947"><ele></ele><time>2014-5-10T1:13:56Z</time></trkpt>
<trkpt lat="46.39708280" lon="6.99178037"><ele></ele><time>2014-5-10T1:13:59Z</time></trkpt>
<trkpt lat="46.39736518" lon="6.99196888"><ele></ele><time>2014-5-10T1:14:2Z</time></trkpt>
<trkpt lat="46.39760876" lon="6.99219234"><ele></ele><time>2014-5-10T1:14:5Z</time></trkpt>
<trkpt lat="46.39771580" lon="6.99239728"><ele></ele><time>2014-5-10T1:14:8Z</time></trkpt>
<trkpt lat="46.39783138" lon="6.99271462"><ele></ele><time>2014-5-10T1:14:11Z</time></trkpt>
<trkpt lat="46.39808837" lon="6.99323899"><ele></ele><time>2014-5-10T1:14:14Z</time></trkpt>
<trkpt lat="46.39825224" lon="6.99355457"><ele></ele><time>2014-5-10T1:14:17Z</time></trkpt>
<trkpt lat="46.39836657" lon="6.99378482"><ele></ele><time>2014-5-10T1:14:20Z</time></trkpt>
<trkpt lat="46.39873252" lon="6.99437080"><ele></ele><time>2014-5-10T1:14:23Z</time></trkpt>
<trkpt lat="46.39881148" lon="6.99449887"><ele></ele><time>2014-5-10T1:14:26Z</time></trkpt>
<trkpt lat="46.39900493" lon="6.99513607"><ele></ele><time>2014-5-10T1:14:29Z</time></trkpt>
<trkpt lat="46.39911633" lon="6.99601843"><ele></ele><time>2014-5-10T1:14:32Z</time></trkpt>
<trkpt lat="46.39915329" lon="6.99619076"><ele></ele><time>2014-5-10T1:14:35Z</time></trkpt>
<trkpt lat="46.39934105" lon="6.99665420"><ele></ele><time>2014-5-10T1:14:38Z</time></trkpt>
<trkpt lat="46.39961413" lon="6.99701034"><ele></ele><time>2014-5-10T1:14:41Z</time></trkpt>
<trkpt lat="46.39977682" lon="6.99728519"><ele></ele><time>2014-5-10T1:14:44Z</time></trkpt>
<trkpt lat="46.39989015" lon="6.99761384"><ele></ele><time>2014-5-10T1:14:47Z</time></trkpt>
<trkpt lat="46.40015879" lon="6.99867172"><ele></ele><time>2014-5-10T1:14:50Z</time></trkpt>
<trkpt lat="46.40019382" lon="6.99885227"><ele></ele><time>2014-5-10T1:14:53Z</time></trkpt>
<trkpt lat="46.40018846" lon="6.99959826"><ele></ele><time>2014-5-10T1:14:56Z</time></trkpt>
<trkpt lat="46.40007748" lon="7.00013914"><ele></ele><time>2014-5-10T1:14:59Z</time></trkpt>
<trkpt lat="46.40004387" lon="7.00031810"><ele></ele><time>2014-5-10T1:15:2Z</time></trkpt>
<trkpt lat="46.40002417" lon="7.00085806"><ele></ele><time>2014-5-10T1:15:5Z</time></trkpt>
<trkpt lat="46.40014152" lon="7.00134044"><ele></ele><time>2014-5-10T1:15:8Z</time></trkpt>
<trkpt lat="46.40035744" lon="7.00168854"><ele></ele><time>2014-5-10T1:15:11Z</time></trkpt>
<trkpt lat="46.40052290" lon="7.00182843"><ele></ele><time>2014-5-10T1:15:14Z</time></trkpt>
<trkpt lat="46.40097217" lon="7.00206430"><ele></ele><time>2014-5-10T1:15:17Z</time></trkpt>
<trkpt lat="46.40123544" lon="7.00220210"><ele></ele><time>2014-5-10T1:15:20Z</time></trkpt>
<trkpt lat="46.40148849" lon="7.00248188"><ele></ele><time>2014-5-10T1:15:23Z</time></trkpt>
<trkpt lat="46.40161917" lon="7.00277206"><ele></ele><time>2014-5-10T1:15:26Z</time></trkpt>
<trkpt lat="46.40169896" lon="7.00327456"><ele></ele><time>2014-5-10T1:15:29Z</time></trkpt>
<trkpt lat="46.40163610" lon="7.00379365"><ele></ele><time>2014-5-10T1:15:32Z</time></trkpt>
<trkpt lat="46.40153518" lon="7.00428047"><ele></ele><time>2014-5-10T1:15:35Z</time></trkpt>
<trkpt lat="46.40143979" lon="7.00490945"><ele></ele><time>2014-5-10T1:15:38Z</time></trkpt>
<trkpt lat="46.40142244" lon="7.00554865"><ele></ele><time>2014-5-10T1:15:41Z</time></trkpt>
<trkpt lat="46.40145849" lon="7.00608728"><ele></ele><time>2014-5-10T1:15:44Z</time></trkpt>
<trkpt lat="46.40154742" lon="7.00657644"><ele></ele><time>2014-5-10T1:15:47Z</time></trkpt>
<trkpt lat="46.40171388" lon="7.00722612"><ele></ele><time>2014-5-10T1:15:50Z</time></trkpt>
<trkpt lat="46.40178228" lon="7.00754472"><ele></ele><time>2014-5-10T1:15:53Z</time></trkpt>
<trkpt lat="46.40176979" lon="7.00805769"><ele></ele><time>2014-5-10T1:15:56Z</time></trkpt>
<trkpt lat="46.40165957" lon="7.00843446"><ele></ele><time>2014-5-10T1:15:59Z</time></trkpt>
<trkpt lat="46.40142194" lon="7.00900342"><ele></ele><time>2014-5-10T1:16:2Z</time></trkpt>
<trkpt lat="46.40115866" lon="7.00959083"><ele></ele><time>2014-5-10T1:16:5Z</time></trkpt>
<trkpt lat="46.40099019" lon="7.00982954"><ele></ele><time>2014-5-10T1:16:8Z</time></trkpt>
<trkpt lat="46.40058509" lon="7.01040706"><ele></ele><time>2014-5-10T1:16:11Z</time></trkpt>
<trkpt lat="46.40026683" lon="7.01110778"><ele></ele><time>2014-5-10T1:16:14Z</time></trkpt>
<trkpt lat="46.39991856" lon="7.01160793"><ele></ele><time>2014-5-10T1:16:17Z</time></trkpt>
<trkpt lat="46.39973533" lon="7.01183198"><ele></ele><time>2014-5-10T1:16:20Z</time></trkpt>
<trkpt lat="46.39956074" lon="7.01208143"><ele></ele><time>2014-5-10T1:16:23Z</time></trkpt>
<trkpt lat="46.39937609" lon="7.01262709"><ele></ele><time>2014-5-10T1:16:26Z</time></trkpt>
<trkpt lat="46.39934784" lon="7.01300729"><ele></ele><time>2014-5-10T1:16:29Z</time></trkpt>
<trkpt lat="46.39940022" lon="7.01338498"><ele></ele><time>2014-5-10T1:16:32Z</time></trkpt>
<trkpt lat="46.39959217" lon="7.01381212"><ele></ele><time>2014-5-10T1:16:35Z</time></trkpt>
<trkpt lat="46.39988218" lon="7.01410163"><ele></ele><time>2014-5-10T1:16:38Z</time></trkpt>
<trkpt lat="46.40004639" lon="7.01417925"><ele></ele><time>2014-5-10T1:16:41Z</time></trkpt>
<trkpt lat="46.40064712" lon="7.01433725"><ele></ele><time>2014-5-10T1:16:44Z</time></trkpt>
<trkpt lat="46.40082733" lon="7.01438578"><ele></ele><time>2014-5-10T1:16:47Z</time></trkpt>
<trkpt lat="46.40128666" lon="7.01453196"><ele></ele><time>2014-5-10T1:16:50Z</time></trkpt>
<trkpt lat="46.40147584" lon="7.01459826"><ele></ele><time>2014-5-10T1:16:53Z</time></trkpt>
<trkpt lat="46.40188864" lon="7.01477453"><ele></ele><time>2014-5-10T1:16:56Z</time></trkpt>
<trkpt lat="46.40206886" lon="7.01484393"><ele></ele><time>2014-5-10T1:16:59Z</time></trkpt>
<trkpt lat="46.40245266" lon="7.01499028"><ele></ele><time>2014-5-10T1:17:2Z</time></trkpt>
<trkpt lat="46.40301215" lon="7.01517066"><ele></ele><time>2014-5-10T1:17:5Z</time></trkpt>
<trkpt lat="46.40373878" lon="7.01536596"><ele></ele><time>2014-5-10T1:17:8Z</time></trkpt>
<trkpt lat="46.40437363" lon="7.01565706"><ele></ele><time>2014-5-10T1:17:11Z</time></trkpt>
<trkpt lat="46.40468828" lon="7.01584565"><ele></ele><time>2014-5-10T1:17:14Z</time></trkpt>
<trkpt lat="46.40522674" lon="7.01617473"><ele></ele><time>2014-5-10T1:17:17Z</time></trkpt>
<trkpt lat="46.40533394" lon="7.01624648"><ele></ele><time>2014-5-10T1:17:20Z</time></trkpt>
<trkpt lat="46.40561700" lon="7.01654269"><ele></ele><time>2014-5-10T1:17:23Z</time></trkpt>
<trkpt lat="46.40574809" lon="7.01682466"><ele></ele><time>2014-5-10T1:17:26Z</time></trkpt>
<trkpt lat="46.40579117" lon="7.01698459"><ele></ele><time>2014-5-10T1:17:29Z</time></trkpt>
<trkpt lat="46.40582864" lon="7.01749563"><ele></ele><time>2014-5-10T1:17:32Z</time></trkpt>
<trkpt lat="46.40578313" lon="7.01800852"><ele></ele><time>2014-5-10T1:17:35Z</time></trkpt>
<trkpt lat="46.40584406" lon="7.01866876"><ele></ele><time>2014-5-10T1:17:38Z</time></trkpt>
<trkpt lat="46.40589503" lon="7.01881863"><ele></ele><time>2014-5-10T1:17:41Z</time></trkpt>
<trkpt lat="46.40611933" lon="7.01919607"><ele></ele><time>2014-5-10T1:17:44Z</time></trkpt>
<trkpt lat="46.40631270" lon="7.01938449"><ele></ele><time>2014-5-10T1:17:47Z</time></trkpt>
<trkpt lat="46.40672727" lon="7.01971633"><ele></ele><time>2014-5-10T1:17:50Z</time></trkpt>
<trkpt lat="46.40683187" lon="7.01979973"><ele></ele><time>2014-5-10T1:17:53Z</time></trkpt>
<trkpt lat="46.40702583" lon="7.01999688"><ele></ele><time>2014-5-10T1:17:56Z</time></trkpt>
<trkpt lat="46.40723814" lon="7.02040122"><ele></ele><time>2014-5-10T1:17:59Z</time></trkpt>
<trkpt lat="46.40731903" lon="7.02089122"><ele></ele><time>2014-5-10T1:18:2Z</time></trkpt>
<trkpt lat="46.40726957" lon="7.02138735"><ele></ele><time>2014-5-10T1:18:5Z</time></trkpt>
<trkpt lat="46.40722968" lon="7.02154225"><ele></ele><time>2014-5-10T1:18:8Z</time></trkpt>
<trkpt lat="46.40709674" lon="7.02199948"><ele></ele><time>2014-5-10T1:18:11Z</time></trkpt>
<trkpt lat="46.40705022" lon="7.02263969"><ele></ele><time>2014-5-10T1:18:14Z</time></trkpt>
<trkpt lat="46.40715273" lon="7.02308988"><ele></ele><time>2014-5-10T1:18:17Z</time></trkpt>
<trkpt lat="46.40736245" lon="7.02344628"><ele></ele><time>2014-5-10T1:18:20Z</time></trkpt>
<trkpt lat="46.40744702" lon="7.02354452"><ele></ele><time>2014-5-10T1:18:23Z</time></trkpt>
<trkpt lat="46.40813467" lon="7.02426628"><ele></ele><time>2014-5-10T1:18:26Z</time></trkpt>
<trkpt lat="46.40821857" lon="7.02435069"><ele></ele><time>2014-5-10T1:18:29Z</time></trkpt>
<trkpt lat="46.40848185" lon="7.02476769"><ele></ele><time>2014-5-10T1:18:32Z</time></trkpt>
<trkpt lat="46.40859308" lon="7.02529030"><ele></ele><time>2014-5-10T1:18:35Z</time></trkpt>
<trkpt lat="46.40860272" lon="7.02542458"><ele></ele><time>2014-5-10T1:18:38Z</time></trkpt>
<trkpt lat="46.40864303" lon="7.02648866"><ele></ele><time>2014-5-10T1:18:41Z</time></trkpt>
<trkpt lat="46.40865435" lon="7.02661933"><ele></ele><time>2014-5-10T1:18:44Z</time></trkpt>
<trkpt lat="46.40882509" lon="7.02720523"><ele></ele><time>2014-5-10T1:18:47Z</time></trkpt>
<trkpt lat="46.40888074" lon="7.02730699"><ele></ele><time>2014-5-10T1:18:50Z</time></trkpt>
<trkpt lat="46.40919473" lon="7.02776757"><ele></ele><time>2014-5-10T1:18:53Z</time></trkpt>
<trkpt lat="46.40972958" lon="7.02850208"><ele></ele><time>2014-5-10T1:18:56Z</time></trkpt>
<trkpt lat="46.41026527" lon="7.02924639"><ele></ele><time>2014-5-10T1:18:59Z</time></trkpt>
<trkpt lat="46.41065067" lon="7.02977923"><ele></ele><time>2014-5-10T1:19:2Z</time></trkpt>
<trkpt lat="46.41089885" lon="7.03014837"><ele></ele><time>2014-5-10T1:19:5Z</time></trkpt>
<trkpt lat="46.41106138" lon="7.03061080"><ele></ele><time>2014-5-10T1:19:8Z</time></trkpt>
<trkpt lat="46.41123153" lon="7.03151889"><ele></ele><time>2014-5-10T1:19:11Z</time></trkpt>
<trkpt lat="46.41146547" lon="7.03253268"><ele></ele><time>2014-5-10T1:19:14Z</time></trkpt>
<trkpt lat="46.41183109" lon="7.03358738"><ele></ele><time>2014-5-10T1:19:17Z</time></trkpt>
<trkpt lat="46.41207693" lon="7.03423178"><ele></ele><time>2014-5-10T1:19:20Z</time></trkpt>
<trkpt lat="46.41250533" lon="7.03481013"><ele></ele><time>2014-5-10T1:19:23Z</time></trkpt>
<trkpt lat="46.41269275" lon="7.03505354"><ele></ele><time>2014-5-10T1:19:26Z</time></trkpt>
<trkpt lat="46.41290423" lon="7.03557800"><ele></ele><time>2014-5-10T1:19:29Z</time></trkpt>
<trkpt lat="46.41292719" lon="7.03569719"><ele></ele><time>2014-5-10T1:19:32Z</time></trkpt>
<trkpt lat="46.41308712" lon="7.03675758"><ele></ele><time>2014-5-10T1:19:35Z</time></trkpt>
<trkpt lat="46.41318133" lon="7.03739394"><ele></ele><time>2014-5-10T1:19:38Z</time></trkpt>
<trkpt lat="46.41328233" lon="7.03779157"><ele></ele><time>2014-5-10T1:19:41Z</time></trkpt>
<trkpt lat="46.41338375" lon="7.03802736"><ele></ele><time>2014-5-10T1:19:44Z</time></trkpt>
<trkpt lat="46.41366296" lon="7.03838836"><ele></ele><time>2014-5-10T1:19:47Z</time></trkpt>
<trkpt lat="46.41396537" lon="7.03876052"><ele></ele><time>2014-5-10T1:19:50Z</time></trkpt>
<trkpt lat="46.41424139" lon="7.03919579"><ele></ele><time>2014-5-10T1:19:53Z</time></trkpt>
<trkpt lat="46.41451254" lon="7.03962386"><ele></ele><time>2014-5-10T1:19:56Z</time></trkpt>
<trkpt lat="46.41454096" lon="7.03966577"><ele></ele><time>2014-5-10T1:19:59Z</time></trkpt>
<trkpt lat="46.41459553" lon="7.03975042"><ele></ele><time>2014-5-10T1:20:2Z</time></trkpt>
<trkpt lat="46.41483567" lon="7.04007162"><ele></ele><time>2014-5-10T1:20:5Z</time></trkpt>
<trkpt lat="46.41510540" lon="7.04042500"><ele></ele><time>2014-5-10T1:20:8Z</time></trkpt>
<trkpt lat="46.41532182" lon="7.04073924"><ele></ele><time>2014-5-10T1:20:11Z</time></trkpt>
<trkpt lat="46.41544897" lon="7.04115808"><ele></ele><time>2014-5-10T1:20:14Z</time></trkpt>
<trkpt lat="46.41547328" lon="7.04155278"><ele></ele><time>2014-5-10T1:20:17Z</time></trkpt>
<trkpt lat="46.41540312" lon="7.04197649"><ele></ele><time>2014-5-10T1:20:20Z</time></trkpt>
<trkpt lat="46.41527496" lon="7.04229542"><ele></ele><time>2014-5-10T1:20:23Z</time></trkpt>
<trkpt lat="46.41500632" lon="7.04259566"><ele></ele><time>2014-5-10T1:20:26Z</time></trkpt>
<trkpt lat="46.41478395" lon="7.04269675"><ele></ele><time>2014-5-10T1:20:29Z</time></trkpt>
<trkpt lat="46.41472947" lon="7.04268694"><ele></ele><time>2014-5-10T1:20:32Z</time></trkpt>
<trkpt lat="46.41472352" lon="7.04255652"><ele></ele><time>2014-5-10T1:20:35Z</time></trkpt>
<trkpt lat="46.41474875" lon="7.04252852"><ele></ele><time>2014-5-10T1:20:38Z</time></trkpt>
<trkpt lat="46.41500825" lon="7.04231713"><ele></ele><time>2014-5-10T1:20:41Z</time></trkpt>
<trkpt lat="46.41513029" lon="7.04216005"><ele></ele><time>2014-5-10T1:20:44Z</time></trkpt>
<trkpt lat="46.41518938" lon="7.04193936"><ele></ele><time>2014-5-10T1:20:47Z</time></trkpt>
<trkpt lat="46.41514027" lon="7.04176518"><ele></ele><time>2014-5-10T1:20:50Z</time></trkpt>
<trkpt lat="46.41508712" lon="7.04173023"><ele></ele><time>2014-5-10T1:20:53Z</time></trkpt>
<trkpt lat="46.41496659" lon="7.04177650"><ele></ele><time>2014-5-10T1:20:56Z</time></trkpt>
<trkpt lat="46.41488906" lon="7.04185562"><ele></ele><time>2014-5-10T1:20:59Z</time></trkpt>
<trkpt lat="46.41478102" lon="7.04186979"><ele></ele><time>2014-5-10T1:21:2Z</time></trkpt>
<trkpt lat="46.41470717" lon="7.04177088"><ele></ele><time>2014-5-10T1:21:5Z</time></trkpt>
<trkpt lat="46.41467842" lon="7.04162763"><ele></ele><time>2014-5-10T1:21:8Z</time></trkpt>
<trkpt lat="46.41461355" lon="7.04146888"><ele></ele><time>2014-5-10T1:21:11Z</time></trkpt>
<trkpt lat="46.41458966" lon="7.04144717"><ele></ele><time>2014-5-10T1:21:14Z</time></trkpt>
<trkpt lat="46.41447382" lon="7.04142664"><ele></ele><time>2014-5-10T1:21:17Z</time></trkpt>
<trkpt lat="46.41438589" lon="7.04148489"><ele></ele><time>2014-5-10T1:21:20Z</time></trkpt>
<trkpt lat="46.41427685" lon="7.04152026"><ele></ele><time>2014-5-10T1:21:23Z</time></trkpt>
<trkpt lat="46.41413695" lon="7.04161305"><ele></ele><time>2014-5-10T1:21:26Z</time></trkpt>
<trkpt lat="46.41405447" lon="7.04163216"><ele></ele><time>2014-5-10T1:21:29Z</time></trkpt>
<trkpt lat="46.41396554" lon="7.04171045"><ele></ele><time>2014-5-10T1:21:32Z</time></trkpt>
<trkpt lat="46.41392489" lon="7.04170835"><ele></ele><time>2014-5-10T1:21:35Z</time></trkpt>
<trkpt lat="46.41388013" lon="7.04174322"><ele></ele><time>2014-5-10T1:21:38Z</time></trkpt>
<trkpt lat="46.41376203" lon="7.04179837"><ele></ele><time>2014-5-10T1:21:41Z</time></trkpt>
<trkpt lat="46.41367813" lon="7.04181304"><ele></ele><time>2014-5-10T1:21:44Z</time></trkpt>
<trkpt lat="46.41357830" lon="7.04185696"><ele></ele><time>2014-5-10T1:21:47Z</time></trkpt>
<trkpt lat="46.41345802" lon="7.04189007"><ele></ele><time>2014-5-10T1:21:50Z</time></trkpt>
<trkpt lat="46.41337479" lon="7.04190072"><ele></ele><time>2014-5-10T1:21:53Z</time></trkpt>
<trkpt lat="46.41325174" lon="7.04194212"><ele></ele><time>2014-5-10T1:21:56Z</time></trkpt>
<trkpt lat="46.41310858" lon="7.04198722"><ele></ele><time>2014-5-10T1:21:59Z</time></trkpt>
<trkpt lat="46.41289232" lon="7.04205662"><ele></ele><time>2014-5-10T1:22:2Z</time></trkpt>
<trkpt lat="46.41274204" lon="7.04208110"><ele></ele><time>2014-5-10T1:22:5Z</time></trkpt>
<trkpt lat="46.41260273" lon="7.04210138"><ele></ele><time>2014-5-10T1:22:8Z</time></trkpt>
<trkpt lat="46.41243769" lon="7.04210607"><ele></ele><time>2014-5-10T1:22:11Z</time></trkpt>
<trkpt lat="46.41227625" lon="7.04211286"><ele></ele><time>2014-5-10T1:22:14Z</time></trkpt>
<trkpt lat="46.41213343" lon="7.04212057"><ele></ele><time>2014-5-10T1:22:17Z</time></trkpt>
<trkpt lat="46.41197283" lon="7.04212267"><ele></ele><time>2014-5-10T1:22:20Z</time></trkpt>
<trkpt lat="46.41178583" lon="7.04219006"><ele></ele><time>2014-5-10T1:22:23Z</time></trkpt>
<trkpt lat="46.41163898" lon="7.04219677"><ele></ele><time>2014-5-10T1:22:26Z</time></trkpt>
<trkpt lat="46.41144242" lon="7.04215402"><ele></ele><time>2014-5-10T1:22:29Z</time></trkpt>
<trkpt lat="46.41129934" lon="7.04207179"><ele></ele><time>2014-5-10T1:22:32Z</time></trkpt>
<trkpt lat="46.41117403" lon="7.04194665"><ele></ele><time>2014-5-10T1:22:35Z</time></trkpt>
<trkpt lat="46.41102869" lon="7.04174398"><ele></ele><time>2014-5-10T1:22:38Z</time></trkpt>
<trkpt lat="46.41088109" lon="7.04169318"><ele></ele><time>2014-5-10T1:22:41Z</time></trkpt>
<trkpt lat="46.41078545" lon="7.04167508"><ele></ele><time>2014-5-10T1:22:44Z</time></trkpt>
<trkpt lat="46.41065276" lon="7.04166116"><ele></ele><time>2014-5-10T1:22:47Z</time></trkpt>
<trkpt lat="46.41046132" lon="7.04164675"><ele></ele><time>2014-5-10T1:22:50Z</time></trkpt>
<trkpt lat="46.41029083" lon="7.04167776"><ele></ele><time>2014-5-10T1:22:53Z</time></trkpt>
<trkpt lat="46.41019519" lon="7.04174062"><ele></ele><time>2014-5-10T1:22:56Z</time></trkpt>
<trkpt lat="46.41006754" lon="7.04184975"><ele></ele><time>2014-5-10T1:22:59Z</time></trkpt>
<trkpt lat="46.40995547" lon="7.04192167"><ele></ele><time>2014-5-10T1:23:2Z</time></trkpt>
<trkpt lat="46.40978130" lon="7.04209208"><ele></ele><time>2014-5-10T1:23:5Z</time></trkpt>
<trkpt lat="46.40965456" lon="7.04224018"><ele></ele><time>2014-5-10T1:23:8Z</time></trkpt>
<trkpt lat="46.40957275" lon="7.04237446"><ele></ele><time>2014-5-10T1:23:11Z</time></trkpt>
<trkpt lat="46.40947343" lon="7.04258652"><ele></ele><time>2014-5-10T1:23:14Z</time></trkpt>
<trkpt lat="46.40935533" lon="7.04276020"><ele></ele><time>2014-5-10T1:23:17Z</time></trkpt>
<trkpt lat="46.40925667" lon="7.04283312"><ele></ele><time>2014-5-10T1:23:20Z</time></trkpt>
<trkpt lat="46.40917453" lon="7.04289439"><ele></ele><time>2014-5-10T1:23:23Z</time></trkpt>
<trkpt lat="46.40909197" lon="7.04295273"><ele></ele><time>2014-5-10T1:23:26Z</time></trkpt>
<trkpt lat="46.40903765" lon="7.04303118"><ele></ele><time>2014-5-10T1:23:29Z</time></trkpt>
<trkpt lat="46.40902835" lon="7.04304744"><ele></ele><time>2014-5-10T1:23:32Z</time></trkpt>
<trkpt lat="46.40901703" lon="7.04308374"><ele></ele><time>2014-5-10T1:23:35Z</time></trkpt>
<trkpt lat="46.40898895" lon="7.04313545"><ele></ele><time>2014-5-10T1:23:38Z</time></trkpt>
<trkpt lat="46.40895526" lon="7.04322489"><ele></ele><time>2014-5-10T1:23:41Z</time></trkpt>
<trkpt lat="46.40892089" lon="7.04323235"><ele></ele><time>2014-5-10T1:23:44Z</time></trkpt>
<trkpt lat="46.40892626" lon="7.04322472"><ele></ele><time>2014-5-10T1:23:47Z</time></trkpt>
<trkpt lat="46.40894864" lon="7.04320368"><ele></ele><time>2014-5-10T1:23:50Z</time></trkpt>
<trkpt lat="46.40897026" lon="7.04318114"><ele></ele><time>2014-5-10T1:23:53Z</time></trkpt>
<trkpt lat="46.40897663" lon="7.04316244"><ele></ele><time>2014-5-10T1:23:56Z</time></trkpt>
<trkpt lat="46.40897848" lon="7.04316027"><ele></ele><time>2014-5-10T1:23:59Z</time></trkpt>
<trkpt lat="46.40897965" lon="7.04315926"><ele></ele><time>2014-5-10T1:24:2Z</time></trkpt>
<trkpt lat="46.40911703" lon="7.04303093"><ele></ele><time>2014-5-10T1:24:5Z</time></trkpt>
<trkpt lat="46.40916036" lon="7.04298198"><ele></ele><time>2014-5-10T1:24:8Z</time></trkpt>
<trkpt lat="46.40911552" lon="7.04304636"><ele></ele><time>2014-5-10T1:24:11Z</time></trkpt>
<trkpt lat="46.40907018" lon="7.04314183"><ele></ele><time>2014-5-10T1:24:14Z</time></trkpt>
<trkpt lat="46.40905827" lon="7.04317493"><ele></ele><time>2014-5-10T1:24:17Z</time></trkpt>
<trkpt lat="46.40895685" lon="7.04334157"><ele></ele><time>2014-5-10T1:24:20Z</time></trkpt>
<trkpt lat="46.40890446" lon="7.04345757"><ele></ele><time>2014-5-10T1:24:23Z</time></trkpt>
<trkpt lat="46.40881268" lon="7.04359009"><ele></ele><time>2014-5-10T1:24:26Z</time></trkpt>
<trkpt lat="46.40876533" lon="7.04362772"><ele></ele><time>2014-5-10T1:24:29Z</time></trkpt>
<trkpt lat="46.40872853" lon="7.04366066"><ele></ele><time>2014-5-10T1:24:32Z</time></trkpt>
<trkpt lat="46.40869358" lon="7.04367307"><ele></ele><time>2014-5-10T1:24:35Z</time></trkpt>
<trkpt lat="46.40865728" lon="7.04370383"><ele></ele><time>2014-5-10T1:24:38Z</time></trkpt>
<trkpt lat="46.40865628" lon="7.04370132"><ele></ele><time>2014-5-10T1:24:41Z</time></trkpt>
<trkpt lat="46.40865418" lon="7.04369763"><ele></ele><time>2014-5-10T1:24:44Z</time></trkpt>
<trkpt lat="46.40861034" lon="7.04372319"><ele></ele><time>2014-5-10T1:24:47Z</time></trkpt>
<trkpt lat="46.40853742" lon="7.04377885"><ele></ele><time>2014-5-10T1:24:50Z</time></trkpt>
<trkpt lat="46.40845092" lon="7.04379796"><ele></ele><time>2014-5-10T1:24:53Z</time></trkpt>
<trkpt lat="46.40830893" lon="7.04385974"><ele></ele><time>2014-5-10T1:24:56Z</time></trkpt>
<trkpt lat="46.40816124" lon="7.04392084"><ele></ele><time>2014-5-10T1:24:59Z</time></trkpt>
<trkpt lat="46.40800827" lon="7.04394464"><ele></ele><time>2014-5-10T1:25:2Z</time></trkpt>
<trkpt lat="46.40784147" lon="7.04395805"><ele></ele><time>2014-5-10T1:25:5Z</time></trkpt>
<trkpt lat="46.40767124" lon="7.04401832"><ele></ele><time>2014-5-10T1:25:8Z</time></trkpt>
<trkpt lat="46.40749404" lon="7.04419493"><ele></ele><time>2014-5-10T1:25:11Z</time></trkpt>
<trkpt lat="46.40728625" lon="7.04446097"><ele></ele><time>2014-5-10T1:25:14Z</time></trkpt>
<trkpt lat="46.40709423" lon="7.04461922"><ele></ele><time>2014-5-10T1:25:17Z</time></trkpt>
<trkpt lat="46.40684646" lon="7.04473916"><ele></ele><time>2014-5-10T1:25:20Z</time></trkpt>
<trkpt lat="46.40659777" lon="7.04474025"><ele></ele><time>2014-5-10T1:25:23Z</time></trkpt>
<trkpt lat="46.40644094" lon="7.04480773"><ele></ele><time>2014-5-10T1:25:26Z</time></trkpt>
<trkpt lat="46.40620138" lon="7.04480848"><ele></ele><time>2014-5-10T1:25:29Z</time></trkpt>
<trkpt lat="46.40599946" lon="7.04479557"><ele></ele><time>2014-5-10T1:25:32Z</time></trkpt>
<trkpt lat="46.40576603" lon="7.04474394"><ele></ele><time>2014-5-10T1:25:35Z</time></trkpt>
<trkpt lat="46.40555447" lon="7.04468527"><ele></ele><time>2014-5-10T1:25:38Z</time></trkpt>
<trkpt lat="46.40533763" lon="7.04459793"><ele></ele><time>2014-5-10T1:25:41Z</time></trkpt>
<trkpt lat="46.40511258" lon="7.04451419"><ele></ele><time>2014-5-10T1:25:44Z</time></trkpt>
<trkpt lat="46.40492474" lon="7.04449039"><ele></ele><time>2014-5-10T1:25:47Z</time></trkpt>
<trkpt lat="46.40476707" lon="7.04450229"><ele></ele><time>2014-5-10T1:25:50Z</time></trkpt>
<trkpt lat="46.40467244" lon="7.04452459"><ele></ele><time>2014-5-10T1:25:53Z</time></trkpt>
<trkpt lat="46.40453515" lon="7.04457287"><ele></ele><time>2014-5-10T1:25:56Z</time></trkpt>
<trkpt lat="46.40451796" lon="7.04457672"><ele></ele><time>2014-5-10T1:25:59Z</time></trkpt>
<trkpt lat="46.40443197" lon="7.04458368"><ele></ele><time>2014-5-10T1:26:2Z</time></trkpt>
<trkpt lat="46.40429199" lon="7.04455392"><ele></ele><time>2014-5-10T1:26:5Z</time></trkpt>
<trkpt lat="46.40412284" lon="7.04441763"><ele></ele><time>2014-5-10T1:26:8Z</time></trkpt>
<trkpt lat="46.40392193" lon="7.04431839"><ele></ele><time>2014-5-10T1:26:11Z</time></trkpt>
<trkpt lat="46.40372554" lon="7.04423516"><ele></ele><time>2014-5-10T1:26:14Z</time></trkpt>
<trkpt lat="46.40355455" lon="7.04414690"><ele></ele><time>2014-5-10T1:26:17Z</time></trkpt>
<trkpt lat="46.40351247" lon="7.04412335"><ele></ele><time>2014-5-10T1:26:20Z</time></trkpt>
<trkpt lat="46.40325909" lon="7.04412946"><ele></ele><time>2014-5-10T1:26:23Z</time></trkpt>
<trkpt lat="46.40307569" lon="7.04418252"><ele></ele><time>2014-5-10T1:26:26Z</time></trkpt>
<trkpt lat="46.40293722" lon="7.04412469"><ele></ele><time>2014-5-10T1:26:29Z</time></trkpt>
<trkpt lat="46.40279439" lon="7.04394205"><ele></ele><time>2014-5-10T1:26:32Z</time></trkpt>
<trkpt lat="46.40265198" lon="7.04365756"><ele></ele><time>2014-5-10T1:26:35Z</time></trkpt>
<trkpt lat="46.40260077" lon="7.04354424"><ele></ele><time>2014-5-10T1:26:38Z</time></trkpt>
<trkpt lat="46.40246607" lon="7.04336495"><ele></ele><time>2014-5-10T1:26:41Z</time></trkpt>
<trkpt lat="46.40229332" lon="7.04322003"><ele></ele><time>2014-5-10T1:26:44Z</time></trkpt>
<trkpt lat="46.40214555" lon="7.04306882"><ele></ele><time>2014-5-10T1:26:47Z</time></trkpt>
<trkpt lat="46.40197917" lon="7.04288785"><ele></ele><time>2014-5-10T1:26:50Z</time></trkpt>
<trkpt lat="46.40174313" lon="7.04291308"><ele></ele><time>2014-5-10T1:26:53Z</time></trkpt>
<trkpt lat="46.40160525" lon="7.04306530"><ele></ele><time>2014-5-10T1:26:56Z</time></trkpt>
<trkpt lat="46.40149972" lon="7.04331424"><ele></ele><time>2014-5-10T1:26:59Z</time></trkpt>
<trkpt lat="46.40138296" lon="7.04367206"><ele></ele><time>2014-5-10T1:27:2Z</time></trkpt>
<trkpt lat="46.40136788" lon="7.04372655"><ele></ele><time>2014-5-10T1:27:5Z</time></trkpt>
<trkpt lat="46.40135262" lon="7.04402335"><ele></ele><time>2014-5-10T1:27:8Z</time></trkpt>
<trkpt lat="46.40129169" lon="7.04436709"><ele></ele><time>2014-5-10T1:27:11Z</time></trkpt>
<trkpt lat="46.40117057" lon="7.04461285"><ele></ele><time>2014-5-10T1:27:14Z</time></trkpt>
<trkpt lat="46.40115615" lon="7.04464378"><ele></ele><time>2014-5-10T1:27:17Z</time></trkpt>
<trkpt lat="46.40103042" lon="7.04488099"><ele></ele><time>2014-5-10T1:27:20Z</time></trkpt>
<trkpt lat="46.40092992" lon="7.04505726"><ele></ele><time>2014-5-10T1:27:23Z</time></trkpt>
<trkpt lat="46.40082632" lon="7.04532984"><ele></ele><time>2014-5-10T1:27:26Z</time></trkpt>
<trkpt lat="46.40071359" lon="7.04563620"><ele></ele><time>2014-5-10T1:27:29Z</time></trkpt>
<trkpt lat="46.40052633" lon="7.04590475"><ele></ele><time>2014-5-10T1:27:32Z</time></trkpt>
<trkpt lat="46.40036632" lon="7.04607549"><ele></ele><time>2014-5-10T1:27:35Z</time></trkpt>
<trkpt lat="46.40026825" lon="7.04619627"><ele></ele><time>2014-5-10T1:27:38Z</time></trkpt>
<trkpt lat="46.40021285" lon="7.04631672"><ele></ele><time>2014-5-10T1:27:41Z</time></trkpt>
<trkpt lat="46.40017094" lon="7.04644329"><ele></ele><time>2014-5-10T1:27:44Z</time></trkpt>
<trkpt lat="46.40009525" lon="7.04657815"><ele></ele><time>2014-5-10T1:27:47Z</time></trkpt>
<trkpt lat="46.40008620" lon="7.04659592"><ele></ele><time>2014-5-10T1:27:50Z</time></trkpt>
<trkpt lat="46.40003876" lon="7.04663767"><ele></ele><time>2014-5-10T1:27:53Z</time></trkpt>
<trkpt lat="46.39996609" lon="7.04667740"><ele></ele><time>2014-5-10T1:27:56Z</time></trkpt>
<trkpt lat="46.39992284" lon="7.04668712"><ele></ele><time>2014-5-10T1:27:59Z</time></trkpt>
<trkpt lat="46.39976509" lon="7.04670640"><ele></ele><time>2014-5-10T1:28:2Z</time></trkpt>
<trkpt lat="46.39966048" lon="7.04671922"><ele></ele><time>2014-5-10T1:28:5Z</time></trkpt>
<trkpt lat="46.39954347" lon="7.04673087"><ele></ele><time>2014-5-10T1:28:8Z</time></trkpt>
<trkpt lat="46.39942026" lon="7.04673439"><ele></ele><time>2014-5-10T1:28:11Z</time></trkpt>
<trkpt lat="46.39930744" lon="7.04673800"><ele></ele><time>2014-5-10T1:28:14Z</time></trkpt>
<trkpt lat="46.39922027" lon="7.04678678"><ele></ele><time>2014-5-10T1:28:17Z</time></trkpt>
<trkpt lat="46.39907350" lon="7.04688124"><ele></ele><time>2014-5-10T1:28:20Z</time></trkpt>
<trkpt lat="46.39897384" lon="7.04693304"><ele></ele><time>2014-5-10T1:28:23Z</time></trkpt>
<trkpt lat="46.39888264" lon="7.04695827"><ele></ele><time>2014-5-10T1:28:26Z</time></trkpt>
<trkpt lat="46.39878734" lon="7.04698015"><ele></ele><time>2014-5-10T1:28:29Z</time></trkpt>
<trkpt lat="46.39870947" lon="7.04700119"><ele></ele><time>2014-5-10T1:28:32Z</time></trkpt>
<trkpt lat="46.39858852" lon="7.04702600"><ele></ele><time>2014-5-10T1:28:35Z</time></trkpt>
<trkpt lat="46.39846698" lon="7.04705047"><ele></ele><time>2014-5-10T1:28:38Z</time></trkpt>
<trkpt lat="46.39838794" lon="7.04706565"><ele></ele><time>2014-5-10T1:28:41Z</time></trkpt>
<trkpt lat="46.39830865" lon="7.04708626"><ele></ele><time>2014-5-10T1:28:44Z</time></trkpt>
<trkpt lat="46.39820295" lon="7.04710755"><ele></ele><time>2014-5-10T1:28:47Z</time></trkpt>
<trkpt lat="46.39811436" lon="7.04711745"><ele></ele><time>2014-5-10T1:28:50Z</time></trkpt>
<trkpt lat="46.39803657" lon="7.04712155"><ele></ele><time>2014-5-10T1:28:53Z</time></trkpt>
<trkpt lat="46.39793716" lon="7.04713169"><ele></ele><time>2014-5-10T1:28:56Z</time></trkpt>
<trkpt lat="46.39783147" lon="7.04713622"><ele></ele><time>2014-5-10T1:28:59Z</time></trkpt>
<trkpt lat="46.39782074" lon="7.04714008"><ele></ele><time>2014-5-10T1:29:2Z</time></trkpt>
<trkpt lat="46.39781982" lon="7.04714360"><ele></ele><time>2014-5-10T1:29:5Z</time></trkpt>
<trkpt lat="46.39779040" lon="7.04714703"><ele></ele><time>2014-5-10T1:29:8Z</time></trkpt>
<trkpt lat="46.39769065" lon="7.04713848"><ele></ele><time>2014-5-10T1:29:11Z</time></trkpt>
<trkpt lat="46.39759200" lon="7.04710915"><ele></ele><time>2014-5-10T1:29:14Z</time></trkpt>
<trkpt lat="46.39750013" lon="7.04707017"><ele></ele><time>2014-5-10T1:29:17Z</time></trkpt>
<trkpt lat="46.39740525" lon="7.04704394"><ele></ele><time>2014-5-10T1:29:20Z</time></trkpt>
<trkpt lat="46.39739075" lon="7.04704586"><ele></ele><time>2014-5-10T1:29:23Z</time></trkpt>
<trkpt lat="46.39731372" lon="7.04706137"><ele></ele><time>2014-5-10T1:29:26Z</time></trkpt>
<trkpt lat="46.39724188" lon="7.04705894"><ele></ele><time>2014-5-10T1:29:29Z</time></trkpt>
<trkpt lat="46.39712169" lon="7.04706657"><ele></ele><time>2014-5-10T1:29:32Z</time></trkpt>
<trkpt lat="46.39701163" lon="7.04704603"><ele></ele><time>2014-5-10T1:29:35Z</time></trkpt>
<trkpt lat="46.39690954" lon="7.04700387"><ele></ele><time>2014-5-10T1:29:38Z</time></trkpt>
<trkpt lat="46.39687459" lon="7.04699297"><ele></ele><time>2014-5-10T1:29:41Z</time></trkpt>
<trkpt lat="46.39683972" lon="7.04698434"><ele></ele><time>2014-5-10T1:29:44Z</time></trkpt>
<trkpt lat="46.39682229" lon="7.04697596"><ele></ele><time>2014-5-10T1:29:47Z</time></trkpt>
<trkpt lat="46.39671072" lon="7.04692944"><ele></ele><time>2014-5-10T1:29:50Z</time></trkpt>
<trkpt lat="46.39668927" lon="7.04690974"><ele></ele><time>2014-5-10T1:29:53Z</time></trkpt>
<trkpt lat="46.39658189" lon="7.04684604"><ele></ele><time>2014-5-10T1:29:56Z</time></trkpt>
<trkpt lat="46.39647930" lon="7.04686456"><ele></ele><time>2014-5-10T1:29:59Z</time></trkpt>
<trkpt lat="46.39640084" lon="7.04700848"><ele></ele><time>2014-5-10T1:30:2Z</time></trkpt>
<trkpt lat="46.39630898" lon="7.04717084"><ele></ele><time>2014-5-10T1:30:5Z</time></trkpt>
<trkpt lat="46.39618820" lon="7.04728215"><ele></ele><time>2014-5-10T1:30:8Z</time></trkpt>
<trkpt lat="46.39606959" lon="7.04735197"><ele></ele><time>2014-5-10T1:30:11Z</time></trkpt>
<trkpt lat="46.39595132" lon="7.04738835"><ele></ele><time>2014-5-10T1:30:14Z</time></trkpt>
<trkpt lat="46.39582794" lon="7.04740754"><ele></ele><time>2014-5-10T1:30:17Z</time></trkpt>
<trkpt lat="46.39573356" lon="7.04739757"><ele></ele><time>2014-5-10T1:30:20Z</time></trkpt>
<trkpt lat="46.39561244" lon="7.04743537"><ele></ele><time>2014-5-10T1:30:23Z</time></trkpt>
<trkpt lat="46.39552636" lon="7.04753369"><ele></ele><time>2014-5-10T1:30:26Z</time></trkpt>
<trkpt lat="46.39546635" lon="7.04765875"><ele></ele><time>2014-5-10T1:30:29Z</time></trkpt>
<trkpt lat="46.39541714" lon="7.04784089"><ele></ele><time>2014-5-10T1:30:32Z</time></trkpt>
<trkpt lat="46.39541966" lon="7.04804155"><ele></ele><time>2014-5-10T1:30:35Z</time></trkpt>
<trkpt lat="46.39547624" lon="7.04819544"><ele></ele><time>2014-5-10T1:30:38Z</time></trkpt>
<trkpt lat="46.39555226" lon="7.04827708"><ele></ele><time>2014-5-10T1:30:41Z</time></trkpt>
<trkpt lat="46.39563910" lon="7.04839787"><ele></ele><time>2014-5-10T1:30:44Z</time></trkpt>
<trkpt lat="46.39561906" lon="7.04853172"><ele></ele><time>2014-5-10T1:30:47Z</time></trkpt>
<trkpt lat="46.39553533" lon="7.04858537"><ele></ele><time>2014-5-10T1:30:50Z</time></trkpt>
<trkpt lat="46.39546928" lon="7.04862460"><ele></ele><time>2014-5-10T1:30:53Z</time></trkpt>
<trkpt lat="46.39542435" lon="7.04864496"><ele></ele><time>2014-5-10T1:30:56Z</time></trkpt>
<trkpt lat="46.39532293" lon="7.04868553"><ele></ele><time>2014-5-10T1:30:59Z</time></trkpt>
<trkpt lat="46.39526099" lon="7.04870867"><ele></ele><time>2014-5-10T1:31:2Z</time></trkpt>
<trkpt lat="46.39516477" lon="7.04872342"><ele></ele><time>2014-5-10T1:31:5Z</time></trkpt>
<trkpt lat="46.39508204" lon="7.04871353"><ele></ele><time>2014-5-10T1:31:8Z</time></trkpt>
<trkpt lat="46.39498883" lon="7.04866793"><ele></ele><time>2014-5-10T1:31:11Z</time></trkpt>
<trkpt lat="46.39490216" lon="7.04859082"><ele></ele><time>2014-5-10T1:31:14Z</time></trkpt>
<trkpt lat="46.39483267" lon="7.04849786"><ele></ele><time>2014-5-10T1:31:17Z</time></trkpt>
<trkpt lat="46.39476285" lon="7.04837775"><ele></ele><time>2014-5-10T1:31:20Z</time></trkpt>
<trkpt lat="46.39470376" lon="7.04827708"><ele></ele><time>2014-5-10T1:31:23Z</time></trkpt>
<trkpt lat="46.39463964" lon="7.04814498"><ele></ele><time>2014-5-10T1:31:26Z</time></trkpt>
<trkpt lat="46.39459362" lon="7.04804725"><ele></ele><time>2014-5-10T1:31:29Z</time></trkpt>
<trkpt lat="46.39457015" lon="7.04799646"><ele></ele><time>2014-5-10T1:31:32Z</time></trkpt>
<trkpt lat="46.39453914" lon="7.04787827"><ele></ele><time>2014-5-10T1:31:35Z</time></trkpt>
<trkpt lat="46.39450570" lon="7.04778045"><ele></ele><time>2014-5-10T1:31:38Z</time></trkpt>
<trkpt lat="46.39446789" lon="7.04767585"><ele></ele><time>2014-5-10T1:31:41Z</time></trkpt>
<trkpt lat="46.39444962" lon="7.04762899"><ele></ele><time>2014-5-10T1:31:44Z</time></trkpt>
<trkpt lat="46.39439774" lon="7.04752355"><ele></ele><time>2014-5-10T1:31:47Z</time></trkpt>
<trkpt lat="46.39431073" lon="7.04746127"><ele></ele><time>2014-5-10T1:31:50Z</time></trkpt>
<trkpt lat="46.39423387" lon="7.04744828"><ele></ele><time>2014-5-10T1:31:53Z</time></trkpt>
<trkpt lat="46.39416413" lon="7.04744669"><ele></ele><time>2014-5-10T1:31:56Z</time></trkpt>
<trkpt lat="46.39407428" lon="7.04740335"><ele></ele><time>2014-5-10T1:31:59Z</time></trkpt>
<trkpt lat="46.39396372" lon="7.04736915"><ele></ele><time>2014-5-10T1:32:2Z</time></trkpt>
<trkpt lat="46.39388946" lon="7.04735105"><ele></ele><time>2014-5-10T1:32:5Z</time></trkpt>
<trkpt lat="46.39379516" lon="7.04731283"><ele></ele><time>2014-5-10T1:32:8Z</time></trkpt>
<trkpt lat="46.39376474" lon="7.04730704"><ele></ele><time>2014-5-10T1:32:11Z</time></trkpt>
<trkpt lat="46.39365694" lon="7.04721962"><ele></ele><time>2014-5-10T1:32:14Z</time></trkpt>
<trkpt lat="46.39355368" lon="7.04715223"><ele></ele><time>2014-5-10T1:32:17Z</time></trkpt>
<trkpt lat="46.39346802" lon="7.04709465"><ele></ele><time>2014-5-10T1:32:20Z</time></trkpt>
<trkpt lat="46.39333399" lon="7.04703740"><ele></ele><time>2014-5-10T1:32:23Z</time></trkpt>
<trkpt lat="46.39319410" lon="7.04695660"><ele></ele><time>2014-5-10T1:32:26Z</time></trkpt>
<trkpt lat="46.39315914" lon="7.04694989"><ele></ele><time>2014-5-10T1:32:29Z</time></trkpt>
<trkpt lat="46.39311807" lon="7.04689600"><ele></ele><time>2014-5-10T1:32:32Z</time></trkpt>
<trkpt lat="46.39304976" lon="7.04685082"><ele></ele><time>2014-5-10T1:32:35Z</time></trkpt>
<trkpt lat="46.39302612" lon="7.04681628"><ele></ele><time>2014-5-10T1:32:38Z</time></trkpt>
<trkpt lat="46.39290433" lon="7.04677555"><ele></ele><time>2014-5-10T1:32:41Z</time></trkpt>
<trkpt lat="46.39281440" lon="7.04667589"><ele></ele><time>2014-5-10T1:32:44Z</time></trkpt>
<trkpt lat="46.39268674" lon="7.04657312"><ele></ele><time>2014-5-10T1:32:47Z</time></trkpt>
<trkpt lat="46.39258733" lon="7.04649484"><ele></ele><time>2014-5-10T1:32:50Z</time></trkpt>
<trkpt lat="46.39249312" lon="7.04643583"><ele></ele><time>2014-5-10T1:32:53Z</time></trkpt>
<trkpt lat="46.39239714" lon="7.04638772"><ele></ele><time>2014-5-10T1:32:56Z</time></trkpt>
<trkpt lat="46.39229874" lon="7.04634807"><ele></ele><time>2014-5-10T1:32:59Z</time></trkpt>
<trkpt lat="46.39219975" lon="7.04631924"><ele></ele><time>2014-5-10T1:33:2Z</time></trkpt>
<trkpt lat="46.39207578" lon="7.04628680"><ele></ele><time>2014-5-10T1:33:5Z</time></trkpt>
<trkpt lat="46.39197973" lon="7.04627297"><ele></ele><time>2014-5-10T1:33:8Z</time></trkpt>
<trkpt lat="46.39186414" lon="7.04625252"><ele></ele><time>2014-5-10T1:33:11Z</time></trkpt>
<trkpt lat="46.39173422" lon="7.04621924"><ele></ele><time>2014-5-10T1:33:14Z</time></trkpt>
<trkpt lat="46.39161444" lon="7.04620239"><ele></ele><time>2014-5-10T1:33:17Z</time></trkpt>
<trkpt lat="46.39154320" lon="7.04617624"><ele></ele><time>2014-5-10T1:33:20Z</time></trkpt>
<trkpt lat="46.39137397" lon="7.04607574"><ele></ele><time>2014-5-10T1:33:23Z</time></trkpt>
<trkpt lat="46.39104414" lon="7.04587399"><ele></ele><time>2014-5-10T1:33:26Z</time></trkpt>
<trkpt lat="46.39085672" lon="7.04577986"><ele></ele><time>2014-5-10T1:33:29Z</time></trkpt>
<trkpt lat="46.39065170" lon="7.04579704"><ele></ele><time>2014-5-10T1:33:32Z</time></trkpt>
<trkpt lat="46.39036336" lon="7.04587215"><ele></ele><time>2014-5-10T1:33:35Z</time></trkpt>
<trkpt lat="46.39009573" lon="7.04596225"><ele></ele><time>2014-5-10T1:33:38Z</time></trkpt>
<trkpt lat="46.38979213" lon="7.04598094"><ele></ele><time>2014-5-10T1:33:41Z</time></trkpt>
<trkpt lat="46.38945082" lon="7.04600902"><ele></ele><time>2014-5-10T1:33:44Z</time></trkpt>
<trkpt lat="46.38920624" lon="7.04600584"><ele></ele><time>2014-5-10T1:33:47Z</time></trkpt>
<trkpt lat="46.38912778" lon="7.04600324"><ele></ele><time>2014-5-10T1:33:50Z</time></trkpt>
<trkpt lat="46.38897465" lon="7.04603995"><ele></ele><time>2014-5-10T1:33:53Z</time></trkpt>
<trkpt lat="46.38882109" lon="7.04611606"><ele></ele><time>2014-5-10T1:33:56Z</time></trkpt>
<trkpt lat="46.38856058" lon="7.04615235"><ele></ele><time>2014-5-10T1:33:59Z</time></trkpt>
<trkpt lat="46.38836738" lon="7.04611447"><ele></ele><time>2014-5-10T1:34:2Z</time></trkpt>
<trkpt lat="46.38816487" lon="7.04607415"><ele></ele><time>2014-5-10T1:34:5Z</time></trkpt>
<trkpt lat="46.38771309" lon="7.04614632"><ele></ele><time>2014-5-10T1:34:8Z</time></trkpt>
<trkpt lat="46.38724236" lon="7.04642963"><ele></ele><time>2014-5-10T1:34:11Z</time></trkpt>
<trkpt lat="46.38685218" lon="7.04663113"><ele></ele><time>2014-5-10T1:34:14Z</time></trkpt>
<trkpt lat="46.38671514" lon="7.04669282"><ele></ele><time>2014-5-10T1:34:17Z</time></trkpt>
<trkpt lat="46.38657608" lon="7.04675635"><ele></ele><time>2014-5-10T1:34:20Z</time></trkpt>
<trkpt lat="46.38631457" lon="7.04687186"><ele></ele><time>2014-5-10T1:34:23Z</time></trkpt>
<trkpt lat="46.38608037" lon="7.04694562"><ele></ele><time>2014-5-10T1:34:26Z</time></trkpt>
<trkpt lat="46.38586479" lon="7.04700932"><ele></ele><time>2014-5-10T1:34:29Z</time></trkpt>
<trkpt lat="46.38575189" lon="7.04704570"><ele></ele><time>2014-5-10T1:34:32Z</time></trkpt>
<trkpt lat="46.38539465" lon="7.04723437"><ele></ele><time>2014-5-10T1:34:35Z</time></trkpt>
<trkpt lat="46.38514504" lon="7.04736345"><ele></ele><time>2014-5-10T1:34:38Z</time></trkpt>
<trkpt lat="46.38502887" lon="7.04741006"><ele></ele><time>2014-5-10T1:34:41Z</time></trkpt>
<trkpt lat="46.38471496" lon="7.04749882"><ele></ele><time>2014-5-10T1:34:44Z</time></trkpt>
<trkpt lat="46.38453165" lon="7.04754626"><ele></ele><time>2014-5-10T1:34:47Z</time></trkpt>
<trkpt lat="46.38445077" lon="7.04757208"><ele></ele><time>2014-5-10T1:34:50Z</time></trkpt>
<trkpt lat="46.38419989" lon="7.04772756"><ele></ele><time>2014-5-10T1:34:53Z</time></trkpt>
<trkpt lat="46.38416025" lon="7.04774383"><ele></ele><time>2014-5-10T1:34:56Z</time></trkpt>
<trkpt lat="46.38412454" lon="7.04761986"><ele></ele><time>2014-5-10T1:34:59Z</time></trkpt>
<trkpt lat="46.38422772" lon="7.04751592"><ele></ele><time>2014-5-10T1:35:2Z</time></trkpt>
<trkpt lat="46.38427726" lon="7.04748030"><ele></ele><time>2014-5-10T1:35:5Z</time></trkpt>
<trkpt lat="46.38458035" lon="7.04720085"><ele></ele><time>2014-5-10T1:35:8Z</time></trkpt>
<trkpt lat="46.38464363" lon="7.04713496"><ele></ele><time>2014-5-10T1:35:11Z</time></trkpt>
<trkpt lat="46.38473139" lon="7.04688745"><ele></ele><time>2014-5-10T1:35:14Z</time></trkpt>
<trkpt lat="46.38473097" lon="7.04679223"><ele></ele><time>2014-5-10T1:35:17Z</time></trkpt>
<trkpt lat="46.38470558" lon="7.04624682"><ele></ele><time>2014-5-10T1:35:20Z</time></trkpt>
<trkpt lat="46.38469644" lon="7.04611522"><ele></ele><time>2014-5-10T1:35:23Z</time></trkpt>
<trkpt lat="46.38453148" lon="7.04562656"><ele></ele><time>2014-5-10T1:35:26Z</time></trkpt>
<trkpt lat="46.38439469" lon="7.04532657"><ele></ele><time>2014-5-10T1:35:29Z</time></trkpt>
<trkpt lat="46.38425077" lon="7.04463514"><ele></ele><time>2014-5-10T1:35:32Z</time></trkpt>
<trkpt lat="46.38422739" lon="7.04454269"><ele></ele><time>2014-5-10T1:35:35Z</time></trkpt>
<trkpt lat="46.38405288" lon="7.04420473"><ele></ele><time>2014-5-10T1:35:38Z</time></trkpt>
<trkpt lat="46.38392539" lon="7.04397188"><ele></ele><time>2014-5-10T1:35:41Z</time></trkpt>
<trkpt lat="46.38387652" lon="7.04382026"><ele></ele><time>2014-5-10T1:35:44Z</time></trkpt>
<trkpt lat="46.38397794" lon="7.04352362"><ele></ele><time>2014-5-10T1:35:47Z</time></trkpt>
<trkpt lat="46.38408422" lon="7.04325238"><ele></ele><time>2014-5-10T1:35:50Z</time></trkpt>
<trkpt lat="46.38419730" lon="7.04289984"><ele></ele><time>2014-5-10T1:35:53Z</time></trkpt>
<trkpt lat="46.38438405" lon="7.04251813"><ele></ele><time>2014-5-10T1:35:56Z</time></trkpt>
<trkpt lat="46.38447675" lon="7.04241117"><ele></ele><time>2014-5-10T1:35:59Z</time></trkpt>
<trkpt lat="46.38492116" lon="7.04201513"><ele></ele><time>2014-5-10T1:36:2Z</time></trkpt>
<trkpt lat="46.38513632" lon="7.04184028"><ele></ele><time>2014-5-10T1:36:5Z</time></trkpt>
<trkpt lat="46.38556019" lon="7.04163853"><ele></ele><time>2014-5-10T1:36:8Z</time></trkpt>
<trkpt lat="46.38564133" lon="7.04160467"><ele></ele><time>2014-5-10T1:36:11Z</time></trkpt>
<trkpt lat="46.38583068" lon="7.04136235"><ele></ele><time>2014-5-10T1:36:14Z</time></trkpt>
<trkpt lat="46.38584166" lon="7.04121214"><ele></ele><time>2014-5-10T1:36:17Z</time></trkpt>
<trkpt lat="46.38577670" lon="7.04114945"><ele></ele><time>2014-5-10T1:36:20Z</time></trkpt>
<trkpt lat="46.38566799" lon="7.04119488"><ele></ele><time>2014-5-10T1:36:23Z</time></trkpt>
<trkpt lat="46.38543229" lon="7.04135505"><ele></ele><time>2014-5-10T1:36:26Z</time></trkpt>
<trkpt lat="46.38510506" lon="7.04128188"><ele></ele><time>2014-5-10T1:36:29Z</time></trkpt>
<trkpt lat="46.38485762" lon="7.04123964"><ele></ele><time>2014-5-10T1:36:32Z</time></trkpt>
<trkpt lat="46.38471312" lon="7.04114224"><ele></ele><time>2014-5-10T1:36:35Z</time></trkpt>
<trkpt lat="46.38478252" lon="7.04100964"><ele></ele><time>2014-5-10T1:36:38Z</time></trkpt>
<trkpt lat="46.38499383" lon="7.04082825"><ele></ele><time>2014-5-10T1:36:41Z</time></trkpt>
<trkpt lat="46.38512643" lon="7.04047462"><ele></ele><time>2014-5-10T1:36:44Z</time></trkpt>
<trkpt lat="46.38514403" lon="7.04023582"><ele></ele><time>2014-5-10T1:36:47Z</time></trkpt>
<trkpt lat="46.38513314" lon="7.03996148"><ele></ele><time>2014-5-10T1:36:50Z</time></trkpt>
<trkpt lat="46.38513464" lon="7.03982083"><ele></ele><time>2014-5-10T1:36:53Z</time></trkpt>
<trkpt lat="46.38511268" lon="7.03961983"><ele></ele><time>2014-5-10T1:36:56Z</time></trkpt>
<trkpt lat="46.38497237" lon="7.03919764"><ele></ele><time>2014-5-10T1:36:59Z</time></trkpt>
<trkpt lat="46.38466786" lon="7.03866589"><ele></ele><time>2014-5-10T1:37:2Z</time></trkpt>
<trkpt lat="46.38461622" lon="7.03860227"><ele></ele><time>2014-5-10T1:37:5Z</time></trkpt>
<trkpt lat="46.38443115" lon="7.03846657"><ele></ele><time>2014-5-10T1:37:8Z</time></trkpt>
<trkpt lat="46.38393913" lon="7.03824084"><ele></ele><time>2014-5-10T1:37:11Z</time></trkpt>
<trkpt lat="46.38382883" lon="7.03818695"><ele></ele><time>2014-5-10T1:37:14Z</time></trkpt>
<trkpt lat="46.38366270" lon="7.03813464"><ele></ele><time>2014-5-10T1:37:17Z</time></trkpt>
<trkpt lat="46.38362724" lon="7.03813372"><ele></ele><time>2014-5-10T1:37:20Z</time></trkpt>
<trkpt lat="46.38359338" lon="7.03813464"><ele></ele><time>2014-5-10T1:37:23Z</time></trkpt>
<trkpt lat="46.38353337" lon="7.03814286"><ele></ele><time>2014-5-10T1:37:26Z</time></trkpt>
<trkpt lat="46.38342935" lon="7.03815669"><ele></ele><time>2014-5-10T1:37:29Z</time></trkpt>
<trkpt lat="46.38329264" lon="7.03809709"><ele></ele><time>2014-5-10T1:37:32Z</time></trkpt>
<trkpt lat="46.38313154" lon="7.03805510"><ele></ele><time>2014-5-10T1:37:35Z</time></trkpt>
<trkpt lat="46.38304428" lon="7.03802283"><ele></ele><time>2014-5-10T1:37:38Z</time></trkpt>
<trkpt lat="46.38299667" lon="7.03800883"><ele></ele><time>2014-5-10T1:37:41Z</time></trkpt>
<trkpt lat="46.38290196" lon="7.03799173"><ele></ele><time>2014-5-10T1:37:44Z</time></trkpt>
<trkpt lat="46.38280196" lon="7.03805007"><ele></ele><time>2014-5-10T1:37:47Z</time></trkpt>
<trkpt lat="46.38270498" lon="7.03814378"><ele></ele><time>2014-5-10T1:37:50Z</time></trkpt>
<trkpt lat="46.38263273" lon="7.03821662"><ele></ele><time>2014-5-10T1:37:53Z</time></trkpt>
<trkpt lat="46.38259174" lon="7.03821964"><ele></ele><time>2014-5-10T1:37:56Z</time></trkpt>
<trkpt lat="46.38248253" lon="7.03827194"><ele></ele><time>2014-5-10T1:37:59Z</time></trkpt>
<trkpt lat="46.38239183" lon="7.03832567"><ele></ele><time>2014-5-10T1:38:2Z</time></trkpt>
<trkpt lat="46.38229938" lon="7.03835274"><ele></ele><time>2014-5-10T1:38:5Z</time></trkpt>
<trkpt lat="46.38224088" lon="7.03836489"><ele></ele><time>2014-5-10T1:38:8Z</time></trkpt>
<trkpt lat="46.38222202" lon="7.03836028"><ele></ele><time>2014-5-10T1:38:11Z</time></trkpt>
<trkpt lat="46.38215739" lon="7.03833153"><ele></ele><time>2014-5-10T1:38:14Z</time></trkpt>
<trkpt lat="46.38209076" lon="7.03830237"><ele></ele><time>2014-5-10T1:38:17Z</time></trkpt>
<trkpt lat="46.38201515" lon="7.03826238"><ele></ele><time>2014-5-10T1:38:20Z</time></trkpt>
<trkpt lat="46.38189378" lon="7.03818946"><ele></ele><time>2014-5-10T1:38:23Z</time></trkpt>
<trkpt lat="46.38186679" lon="7.03816473"><ele></ele><time>2014-5-10T1:38:26Z</time></trkpt>
<trkpt lat="46.38181516" lon="7.03809458"><ele></ele><time>2014-5-10T1:38:29Z</time></trkpt>
<trkpt lat="46.38179043" lon="7.03800908"><ele></ele><time>2014-5-10T1:38:32Z</time></trkpt>
<trkpt lat="46.38179203" lon="7.03793767"><ele></ele><time>2014-5-10T1:38:35Z</time></trkpt>
<trkpt lat="46.38181642" lon="7.03787447"><ele></ele><time>2014-5-10T1:38:38Z</time></trkpt>
<trkpt lat="46.38183419" lon="7.03783767"><ele></ele><time>2014-5-10T1:38:41Z</time></trkpt>
<trkpt lat="46.38185028" lon="7.03766618"><ele></ele><time>2014-5-10T1:38:44Z</time></trkpt>
<trkpt lat="46.38183452" lon="7.03762377"><ele></ele><time>2014-5-10T1:38:47Z</time></trkpt>
<trkpt lat="46.38175389" lon="7.03760876"><ele></ele><time>2014-5-10T1:38:50Z</time></trkpt>
<trkpt lat="46.38169144" lon="7.03762938"><ele></ele><time>2014-5-10T1:38:53Z</time></trkpt>
<trkpt lat="46.38165733" lon="7.03763743"><ele></ele><time>2014-5-10T1:38:56Z</time></trkpt>
<trkpt lat="46.38158374" lon="7.03767649"><ele></ele><time>2014-5-10T1:38:59Z</time></trkpt>
<trkpt lat="46.38145977" lon="7.03764095"><ele></ele><time>2014-5-10T1:39:2Z</time></trkpt>
<trkpt lat="46.38129657" lon="7.03759854"><ele></ele><time>2014-5-10T1:39:5Z</time></trkpt>
<trkpt lat="46.38098837" lon="7.03758462"><ele></ele><time>2014-5-10T1:39:8Z</time></trkpt>
<trkpt lat="46.38091369" lon="7.03756828"><ele></ele><time>2014-5-10T1:39:11Z</time></trkpt>
<trkpt lat="46.38080564" lon="7.03758035"><ele></ele><time>2014-5-10T1:39:14Z</time></trkpt>
<trkpt lat="46.38074236" lon="7.03758965"><ele></ele><time>2014-5-10T1:39:17Z</time></trkpt>
<trkpt lat="46.38066575" lon="7.03750818"><ele></ele><time>2014-5-10T1:39:20Z</time></trkpt>
<trkpt lat="46.38057422" lon="7.03744247"><ele></ele><time>2014-5-10T1:39:23Z</time></trkpt>
<trkpt lat="46.38055276" lon="7.03739829"><ele></ele><time>2014-5-10T1:39:26Z</time></trkpt>
<trkpt lat="46.38047707" lon="7.03736879"><ele></ele><time>2014-5-10T1:39:29Z</time></trkpt>
<trkpt lat="46.38040063" lon="7.03735186"><ele></ele><time>2014-5-10T1:39:32Z</time></trkpt>
<trkpt lat="46.38031547" lon="7.03731498"><ele></ele><time>2014-5-10T1:39:35Z</time></trkpt>
<trkpt lat="46.38021757" lon="7.03729914"><ele></ele><time>2014-5-10T1:39:38Z</time></trkpt>
<trkpt lat="46.38010684" lon="7.03728338"><ele></ele><time>2014-5-10T1:39:41Z</time></trkpt>
<trkpt lat="46.37999754" lon="7.03731799"><ele></ele><time>2014-5-10T1:39:44Z</time></trkpt>
<trkpt lat="46.37989017" lon="7.03731179"><ele></ele><time>2014-5-10T1:39:47Z</time></trkpt>
<trkpt lat="46.37982219" lon="7.03730232"><ele></ele><time>2014-5-10T1:39:50Z</time></trkpt>
<trkpt lat="46.37977123" lon="7.03729989"><ele></ele><time>2014-5-10T1:39:53Z</time></trkpt>
<trkpt lat="46.37970150" lon="7.03731255"><ele></ele><time>2014-5-10T1:39:56Z</time></trkpt>
<trkpt lat="46.37960862" lon="7.03731699"><ele></ele><time>2014-5-10T1:39:59Z</time></trkpt>
<trkpt lat="46.37954014" lon="7.03727433"><ele></ele><time>2014-5-10T1:40:2Z</time></trkpt>
<trkpt lat="46.37945532" lon="7.03721314"><ele></ele><time>2014-5-10T1:40:5Z</time></trkpt>
<trkpt lat="46.37944627" lon="7.03721347"><ele></ele><time>2014-5-10T1:40:8Z</time></trkpt>
<trkpt lat="46.37939153" lon="7.03723778"><ele></ele><time>2014-5-10T1:40:11Z</time></trkpt>
<trkpt lat="46.37934434" lon="7.03726963"><ele></ele><time>2014-5-10T1:40:14Z</time></trkpt>
<trkpt lat="46.37932464" lon="7.03730735"><ele></ele><time>2014-5-10T1:40:17Z</time></trkpt>
<trkpt lat="46.37929380" lon="7.03735152"><ele></ele><time>2014-5-10T1:40:20Z</time></trkpt>
<trkpt lat="46.37922817" lon="7.03738027"><ele></ele><time>2014-5-10T1:40:23Z</time></trkpt>
<trkpt lat="46.37917855" lon="7.03742939"><ele></ele><time>2014-5-10T1:40:26Z</time></trkpt>
<trkpt lat="46.37914594" lon="7.03746057"><ele></ele><time>2014-5-10T1:40:29Z</time></trkpt>
<trkpt lat="46.37908266" lon="7.03749368"><ele></ele><time>2014-5-10T1:40:32Z</time></trkpt>
<trkpt lat="46.37904067" lon="7.03751556"><ele></ele><time>2014-5-10T1:40:35Z</time></trkpt>
<trkpt lat="46.37900094" lon="7.03755956"><ele></ele><time>2014-5-10T1:40:38Z</time></trkpt>
<trkpt lat="46.37898526" lon="7.03761538"><ele></ele><time>2014-5-10T1:40:41Z</time></trkpt>
<trkpt lat="46.37895660" lon="7.03768915"><ele></ele><time>2014-5-10T1:40:44Z</time></trkpt>
<trkpt lat="46.37892776" lon="7.03777665"><ele></ele><time>2014-5-10T1:40:47Z</time></trkpt>
<trkpt lat="46.37889558" lon="7.03787254"><ele></ele><time>2014-5-10T1:40:50Z</time></trkpt>
<trkpt lat="46.37888216" lon="7.03791386"><ele></ele><time>2014-5-10T1:40:53Z</time></trkpt>
<trkpt lat="46.37885216" lon="7.03795569"><ele></ele><time>2014-5-10T1:40:56Z</time></trkpt>
<trkpt lat="46.37882005" lon="7.03804999"><ele></ele><time>2014-5-10T1:40:59Z</time></trkpt>
<trkpt lat="46.37878954" lon="7.03809676"><ele></ele><time>2014-5-10T1:41:2Z</time></trkpt>
<trkpt lat="46.37877219" lon="7.03816767"><ele></ele><time>2014-5-10T1:41:5Z</time></trkpt>
<trkpt lat="46.37874445" lon="7.03826808"><ele></ele><time>2014-5-10T1:41:8Z</time></trkpt>
<trkpt lat="46.37872056" lon="7.03833153"><ele></ele><time>2014-5-10T1:41:11Z</time></trkpt>
<trkpt lat="46.37868393" lon="7.03840018"><ele></ele><time>2014-5-10T1:41:14Z</time></trkpt>
<trkpt lat="46.37866792" lon="7.03849909"><ele></ele><time>2014-5-10T1:41:17Z</time></trkpt>
<trkpt lat="46.37865845" lon="7.03860546"><ele></ele><time>2014-5-10T1:41:20Z</time></trkpt>
<trkpt lat="46.37863087" lon="7.03867846"><ele></ele><time>2014-5-10T1:41:23Z</time></trkpt>
<trkpt lat="46.37862383" lon="7.03874292"><ele></ele><time>2014-5-10T1:41:26Z</time></trkpt>
<trkpt lat="46.37859768" lon="7.03880503"><ele></ele><time>2014-5-10T1:41:29Z</time></trkpt>
<trkpt lat="46.37858897" lon="7.03889539"><ele></ele><time>2014-5-10T1:41:32Z</time></trkpt>
<trkpt lat="46.37858377" lon="7.03899345"><ele></ele><time>2014-5-10T1:41:35Z</time></trkpt>
<trkpt lat="46.37855125" lon="7.03908792"><ele></ele><time>2014-5-10T1:41:38Z</time></trkpt>
<trkpt lat="46.37854094" lon="7.03915640"><ele></ele><time>2014-5-10T1:41:41Z</time></trkpt>
<trkpt lat="46.37853138" lon="7.03921834"><ele></ele><time>2014-5-10T1:41:44Z</time></trkpt>
<trkpt lat="46.37849609" lon="7.03929327"><ele></ele><time>2014-5-10T1:41:47Z</time></trkpt>
<trkpt lat="46.37848344" lon="7.03934818"><ele></ele><time>2014-5-10T1:41:50Z</time></trkpt>
<trkpt lat="46.37842409" lon="7.03941892"><ele></ele><time>2014-5-10T1:41:53Z</time></trkpt>
<trkpt lat="46.37832862" lon="7.03944876"><ele></ele><time>2014-5-10T1:41:56Z</time></trkpt>
<trkpt lat="46.37826668" lon="7.03948178"><ele></ele><time>2014-5-10T1:41:59Z</time></trkpt>
<trkpt lat="46.37819242" lon="7.03956594"><ele></ele><time>2014-5-10T1:42:2Z</time></trkpt>
<trkpt lat="46.37813173" lon="7.03966484"><ele></ele><time>2014-5-10T1:42:5Z</time></trkpt>
<trkpt lat="46.37806384" lon="7.03971103"><ele></ele><time>2014-5-10T1:42:8Z</time></trkpt>
<trkpt lat="46.37804473" lon="7.03971966"><ele></ele><time>2014-5-10T1:42:11Z</time></trkpt>
<trkpt lat="46.37800634" lon="7.03973467"><ele></ele><time>2014-5-10T1:42:14Z</time></trkpt>
<trkpt lat="46.37795278" lon="7.03983089"><ele></ele><time>2014-5-10T1:42:17Z</time></trkpt>
<trkpt lat="46.37792705" lon="7.03988336"><ele></ele><time>2014-5-10T1:42:20Z</time></trkpt>
<trkpt lat="46.37791422" lon="7.03996148"><ele></ele><time>2014-5-10T1:42:23Z</time></trkpt>
<trkpt lat="46.37786452" lon="7.04006064"><ele></ele><time>2014-5-10T1:42:26Z</time></trkpt>
<trkpt lat="46.37785857" lon="7.04006743"><ele></ele><time>2014-5-10T1:42:29Z</time></trkpt>
<trkpt lat="46.37779763" lon="7.04015292"><ele></ele><time>2014-5-10T1:42:32Z</time></trkpt>
<trkpt lat="46.37778413" lon="7.04017145"><ele></ele><time>2014-5-10T1:42:35Z</time></trkpt>
<trkpt lat="46.37773778" lon="7.04027572"><ele></ele><time>2014-5-10T1:42:38Z</time></trkpt>
<trkpt lat="46.37771616" lon="7.04031226"><ele></ele><time>2014-5-10T1:42:41Z</time></trkpt>
<trkpt lat="46.37763477" lon="7.04040874"><ele></ele><time>2014-5-10T1:42:44Z</time></trkpt>
<trkpt lat="46.37755489" lon="7.04047563"><ele></ele><time>2014-5-10T1:42:47Z</time></trkpt>
<trkpt lat="46.37747769" lon="7.04050194"><ele></ele><time>2014-5-10T1:42:50Z</time></trkpt>
<trkpt lat="46.37739069" lon="7.04050823"><ele></ele><time>2014-5-10T1:42:53Z</time></trkpt>
<trkpt lat="46.37728013" lon="7.04050086"><ele></ele><time>2014-5-10T1:42:56Z</time></trkpt>
<trkpt lat="46.37715340" lon="7.04047353"><ele></ele><time>2014-5-10T1:42:59Z</time></trkpt>
<trkpt lat="46.37706463" lon="7.04043070"><ele></ele><time>2014-5-10T1:43:2Z</time></trkpt>
<trkpt lat="46.37699079" lon="7.04038535"><ele></ele><time>2014-5-10T1:43:5Z</time></trkpt>
<trkpt lat="46.37689658" lon="7.04028955"><ele></ele><time>2014-5-10T1:43:8Z</time></trkpt>
<trkpt lat="46.37683229" lon="7.04017254"><ele></ele><time>2014-5-10T1:43:11Z</time></trkpt>
<trkpt lat="46.37677143" lon="7.04011579"><ele></ele><time>2014-5-10T1:43:14Z</time></trkpt>
<trkpt lat="46.37676029" lon="7.04009517"><ele></ele><time>2014-5-10T1:43:17Z</time></trkpt>
<trkpt lat="46.37668946" lon="7.03998738"><ele></ele><time>2014-5-10T1:43:20Z</time></trkpt>
<trkpt lat="46.37663037" lon="7.03990314"><ele></ele><time>2014-5-10T1:43:23Z</time></trkpt>
<trkpt lat="46.37657873" lon="7.03982083"><ele></ele><time>2014-5-10T1:43:26Z</time></trkpt>
<trkpt lat="46.37650807" lon="7.03971338"><ele></ele><time>2014-5-10T1:43:29Z</time></trkpt>
<trkpt lat="46.37642149" lon="7.03963987"><ele></ele><time>2014-5-10T1:43:32Z</time></trkpt>
<trkpt lat="46.37633407" lon="7.03954616"><ele></ele><time>2014-5-10T1:43:35Z</time></trkpt>
<trkpt lat="46.37626248" lon="7.03945538"><ele></ele><time>2014-5-10T1:43:38Z</time></trkpt>
<trkpt lat="46.37622435" lon="7.03939587"><ele></ele><time>2014-5-10T1:43:41Z</time></trkpt>
<trkpt lat="46.37617808" lon="7.03926628"><ele></ele><time>2014-5-10T1:43:44Z</time></trkpt>
<trkpt lat="46.37616199" lon="7.03919588"><ele></ele><time>2014-5-10T1:43:47Z</time></trkpt>
<trkpt lat="46.37614430" lon="7.03906336"><ele></ele><time>2014-5-10T1:43:50Z</time></trkpt>
<trkpt lat="46.37612536" lon="7.03883789"><ele></ele><time>2014-5-10T1:43:53Z</time></trkpt>
<trkpt lat="46.37611907" lon="7.03877309"><ele></ele><time>2014-5-10T1:43:56Z</time></trkpt>
<trkpt lat="46.37603994" lon="7.03848425"><ele></ele><time>2014-5-10T1:43:59Z</time></trkpt>
<trkpt lat="46.37595939" lon="7.03832122"><ele></ele><time>2014-5-10T1:44:2Z</time></trkpt>
<trkpt lat="46.37593794" lon="7.03828149"><ele></ele><time>2014-5-10T1:44:5Z</time></trkpt>
<trkpt lat="46.37586619" lon="7.03806977"><ele></ele><time>2014-5-10T1:44:8Z</time></trkpt>
<trkpt lat="46.37585060" lon="7.03796047"><ele></ele><time>2014-5-10T1:44:11Z</time></trkpt>
<trkpt lat="46.37583962" lon="7.03772519"><ele></ele><time>2014-5-10T1:44:14Z</time></trkpt>
<trkpt lat="46.37572487" lon="7.03740450"><ele></ele><time>2014-5-10T1:44:17Z</time></trkpt>
<trkpt lat="46.37562286" lon="7.03731045"><ele></ele><time>2014-5-10T1:44:20Z</time></trkpt>
<trkpt lat="46.37538599" lon="7.03720853"><ele></ele><time>2014-5-10T1:44:23Z</time></trkpt>
<trkpt lat="46.37497184" lon="7.03702077"><ele></ele><time>2014-5-10T1:44:26Z</time></trkpt>
<trkpt lat="46.37470236" lon="7.03689496"><ele></ele><time>2014-5-10T1:44:29Z</time></trkpt>
<trkpt lat="46.37458174" lon="7.03684785"><ele></ele><time>2014-5-10T1:44:32Z</time></trkpt>
<trkpt lat="46.37444177" lon="7.03670033"><ele></ele><time>2014-5-10T1:44:35Z</time></trkpt>
<trkpt lat="46.37435510" lon="7.03662733"><ele></ele><time>2014-5-10T1:44:38Z</time></trkpt>
<trkpt lat="46.37421805" lon="7.03654946"><ele></ele><time>2014-5-10T1:44:41Z</time></trkpt>
<trkpt lat="46.37408973" lon="7.03648483"><ele></ele><time>2014-5-10T1:44:44Z</time></trkpt>
<trkpt lat="46.37396274" lon="7.03643932"><ele></ele><time>2014-5-10T1:44:47Z</time></trkpt>
<trkpt lat="46.37386099" lon="7.03638526"><ele></ele><time>2014-5-10T1:44:50Z</time></trkpt>
<trkpt lat="46.37378069" lon="7.03630320"><ele></ele><time>2014-5-10T1:44:53Z</time></trkpt>
<trkpt lat="46.37375403" lon="7.03627017"><ele></ele><time>2014-5-10T1:44:56Z</time></trkpt>
<trkpt lat="46.37367155" lon="7.03618526"><ele></ele><time>2014-5-10T1:44:59Z</time></trkpt>
<trkpt lat="46.37359293" lon="7.03611343"><ele></ele><time>2014-5-10T1:45:2Z</time></trkpt>
<trkpt lat="46.37351708" lon="7.03605392"><ele></ele><time>2014-5-10T1:45:5Z</time></trkpt>
<trkpt lat="46.37338246" lon="7.03600815"><ele></ele><time>2014-5-10T1:45:8Z</time></trkpt>
<trkpt lat="46.37325313" lon="7.03608208"><ele></ele><time>2014-5-10T1:45:11Z</time></trkpt>
<trkpt lat="46.37321675" lon="7.03610958"><ele></ele><time>2014-5-10T1:45:14Z</time></trkpt>
<trkpt lat="46.37308767" lon="7.03617370"><ele></ele><time>2014-5-10T1:45:17Z</time></trkpt>
<trkpt lat="46.37285884" lon="7.03625634"><ele></ele><time>2014-5-10T1:45:20Z</time></trkpt>
<trkpt lat="46.37273203" lon="7.03629113"><ele></ele><time>2014-5-10T1:45:23Z</time></trkpt>
<trkpt lat="46.37264796" lon="7.03632952"><ele></ele><time>2014-5-10T1:45:26Z</time></trkpt>
<trkpt lat="46.37244402" lon="7.03633765"><ele></ele><time>2014-5-10T1:45:29Z</time></trkpt>
<trkpt lat="46.37234797" lon="7.03632474"><ele></ele><time>2014-5-10T1:45:32Z</time></trkpt>
<trkpt lat="46.37229466" lon="7.03631736"><ele></ele><time>2014-5-10T1:45:35Z</time></trkpt>
<trkpt lat="46.37207899" lon="7.03621628"><ele></ele><time>2014-5-10T1:45:38Z</time></trkpt>
<trkpt lat="46.37197967" lon="7.03618250"><ele></ele><time>2014-5-10T1:45:41Z</time></trkpt>
<trkpt lat="46.37185788" lon="7.03628115"><ele></ele><time>2014-5-10T1:45:44Z</time></trkpt>
<trkpt lat="46.37166719" lon="7.03638517"><ele></ele><time>2014-5-10T1:45:47Z</time></trkpt>
<trkpt lat="46.37118406" lon="7.03656077"><ele></ele><time>2014-5-10T1:45:50Z</time></trkpt>
<trkpt lat="46.37095649" lon="7.03681374"><ele></ele><time>2014-5-10T1:45:53Z</time></trkpt>
<trkpt lat="46.37089287" lon="7.03688289"><ele></ele><time>2014-5-10T1:45:56Z</time></trkpt>
<trkpt lat="46.37076957" lon="7.03701415"><ele></ele><time>2014-5-10T1:45:59Z</time></trkpt>
<trkpt lat="46.37055977" lon="7.03737524"><ele></ele><time>2014-5-10T1:46:2Z</time></trkpt>
<trkpt lat="46.37047478" lon="7.03753140"><ele></ele><time>2014-5-10T1:46:5Z</time></trkpt>
<trkpt lat="46.37043966" lon="7.03760625"><ele></ele><time>2014-5-10T1:46:8Z</time></trkpt>
<trkpt lat="46.37038736" lon="7.03772016"><ele></ele><time>2014-5-10T1:46:11Z</time></trkpt>
<trkpt lat="46.37033044" lon="7.03779610"><ele></ele><time>2014-5-10T1:46:14Z</time></trkpt>
<trkpt lat="46.37026917" lon="7.03787036"><ele></ele><time>2014-5-10T1:46:17Z</time></trkpt>
<trkpt lat="46.37021813" lon="7.03797036"><ele></ele><time>2014-5-10T1:46:20Z</time></trkpt>
<trkpt lat="46.37018242" lon="7.03803289"><ele></ele><time>2014-5-10T1:46:23Z</time></trkpt>
<trkpt lat="46.37014068" lon="7.03810589"><ele></ele><time>2014-5-10T1:46:26Z</time></trkpt>
<trkpt lat="46.37009064" lon="7.03819013"><ele></ele><time>2014-5-10T1:46:29Z</time></trkpt>
<trkpt lat="46.37000816" lon="7.03826766"><ele></ele><time>2014-5-10T1:46:32Z</time></trkpt>
<trkpt lat="46.36987547" lon="7.03836313"><ele></ele><time>2014-5-10T1:46:35Z</time></trkpt>
<trkpt lat="46.36977095" lon="7.03841963"><ele></ele><time>2014-5-10T1:46:38Z</time></trkpt>
<trkpt lat="46.36965402" lon="7.03844880"><ele></ele><time>2014-5-10T1:46:41Z</time></trkpt>
<trkpt lat="46.36953433" lon="7.03844486"><ele></ele><time>2014-5-10T1:46:44Z</time></trkpt>
<trkpt lat="46.36940869" lon="7.03840144"><ele></ele><time>2014-5-10T1:46:47Z</time></trkpt>
<trkpt lat="46.36928455" lon="7.03832223"><ele></ele><time>2014-5-10T1:46:50Z</time></trkpt>
<trkpt lat="46.36918564" lon="7.03822458"><ele></ele><time>2014-5-10T1:46:53Z</time></trkpt>
<trkpt lat="46.36909219" lon="7.03813506"><ele></ele><time>2014-5-10T1:46:56Z</time></trkpt>
<trkpt lat="46.36901390" lon="7.03801512"><ele></ele><time>2014-5-10T1:46:59Z</time></trkpt>
<trkpt lat="46.36888649" lon="7.03785745"><ele></ele><time>2014-5-10T1:47:2Z</time></trkpt>
<trkpt lat="46.36875037" lon="7.03772083"><ele></ele><time>2014-5-10T1:47:5Z</time></trkpt>
<trkpt lat="46.36863504" lon="7.03760005"><ele></ele><time>2014-5-10T1:47:8Z</time></trkpt>
<trkpt lat="46.36858969" lon="7.03754506"><ele></ele><time>2014-5-10T1:47:11Z</time></trkpt>
<trkpt lat="46.36853395" lon="7.03748337"><ele></ele><time>2014-5-10T1:47:14Z</time></trkpt>
<trkpt lat="46.36837042" lon="7.03724993"><ele></ele><time>2014-5-10T1:47:17Z</time></trkpt>
<trkpt lat="46.36830806" lon="7.03714499"><ele></ele><time>2014-5-10T1:47:20Z</time></trkpt>
<trkpt lat="46.36821410" lon="7.03702480"><ele></ele><time>2014-5-10T1:47:23Z</time></trkpt>
<trkpt lat="46.36805082" lon="7.03686177"><ele></ele><time>2014-5-10T1:47:26Z</time></trkpt>
<trkpt lat="46.36791604" lon="7.03672330"><ele></ele><time>2014-5-10T1:47:29Z</time></trkpt>
<trkpt lat="46.36775644" lon="7.03652414"><ele></ele><time>2014-5-10T1:47:32Z</time></trkpt>
<trkpt lat="46.36762963" lon="7.03629700"><ele></ele><time>2014-5-10T1:47:35Z</time></trkpt>
<trkpt lat="46.36754665" lon="7.03592274"><ele></ele><time>2014-5-10T1:47:38Z</time></trkpt>
<trkpt lat="46.36758730" lon="7.03555293"><ele></ele><time>2014-5-10T1:47:41Z</time></trkpt>
<trkpt lat="46.36768277" lon="7.03528438"><ele></ele><time>2014-5-10T1:47:44Z</time></trkpt>
<trkpt lat="46.36785175" lon="7.03485380"><ele></ele><time>2014-5-10T1:47:47Z</time></trkpt>
<trkpt lat="46.36797488" lon="7.03417336"><ele></ele><time>2014-5-10T1:47:50Z</time></trkpt>
<trkpt lat="46.36814176" lon="7.03351538"><ele></ele><time>2014-5-10T1:47:53Z</time></trkpt>
<trkpt lat="46.36822826" lon="7.03306669"><ele></ele><time>2014-5-10T1:47:56Z</time></trkpt>
<trkpt lat="46.36828199" lon="7.03270988"><ele></ele><time>2014-5-10T1:47:59Z</time></trkpt>
<trkpt lat="46.36829305" lon="7.03253612"><ele></ele><time>2014-5-10T1:48:2Z</time></trkpt>
<trkpt lat="46.36823338" lon="7.03248709"><ele></ele><time>2014-5-10T1:48:5Z</time></trkpt>
<trkpt lat="46.36814545" lon="7.03265330"><ele></ele><time>2014-5-10T1:48:8Z</time></trkpt>
<trkpt lat="46.36813589" lon="7.03273695"><ele></ele><time>2014-5-10T1:48:11Z</time></trkpt>
<trkpt lat="46.36811846" lon="7.03292085"><ele></ele><time>2014-5-10T1:48:14Z</time></trkpt>
<trkpt lat="46.36797119" lon="7.03314356"><ele></ele><time>2014-5-10T1:48:17Z</time></trkpt>
<trkpt lat="46.36785979" lon="7.03301137"><ele></ele><time>2014-5-10T1:48:20Z</time></trkpt>
<trkpt lat="46.36785669" lon="7.03282965"><ele></ele><time>2014-5-10T1:48:23Z</time></trkpt>
<trkpt lat="46.36785460" lon="7.03235582"><ele></ele><time>2014-5-10T1:48:26Z</time></trkpt>
<trkpt lat="46.36786038" lon="7.03221166"><ele></ele><time>2014-5-10T1:48:29Z</time></trkpt>
<trkpt lat="46.36787756" lon="7.03191670"><ele></ele><time>2014-5-10T1:48:32Z</time></trkpt>
<trkpt lat="46.36778612" lon="7.03135528"><ele></ele><time>2014-5-10T1:48:35Z</time></trkpt>
<trkpt lat="46.36759157" lon="7.03116492"><ele></ele><time>2014-5-10T1:48:38Z</time></trkpt>
<trkpt lat="46.36746543" lon="7.03107599"><ele></ele><time>2014-5-10T1:48:41Z</time></trkpt>
<trkpt lat="46.36744992" lon="7.03105747"><ele></ele><time>2014-5-10T1:48:44Z</time></trkpt>
<trkpt lat="46.36741824" lon="7.03100240"><ele></ele><time>2014-5-10T1:48:47Z</time></trkpt>
<trkpt lat="46.36734649" lon="7.03088799"><ele></ele><time>2014-5-10T1:48:50Z</time></trkpt>
<trkpt lat="46.36732184" lon="7.03081515"><ele></ele><time>2014-5-10T1:48:53Z</time></trkpt>
<trkpt lat="46.36730592" lon="7.03069269"><ele></ele><time>2014-5-10T1:48:56Z</time></trkpt>
<trkpt lat="46.36730617" lon="7.03059998"><ele></ele><time>2014-5-10T1:48:59Z</time></trkpt>
<trkpt lat="46.36734146" lon="7.03049504"><ele></ele><time>2014-5-10T1:49:2Z</time></trkpt>
<trkpt lat="46.36739435" lon="7.03027342"><ele></ele><time>2014-5-10T1:49:5Z</time></trkpt>
<trkpt lat="46.36742125" lon="7.03012272"><ele></ele><time>2014-5-10T1:49:8Z</time></trkpt>
<trkpt lat="46.36753986" lon="7.02971427"><ele></ele><time>2014-5-10T1:49:11Z</time></trkpt>
<trkpt lat="46.36762418" lon="7.02947614"><ele></ele><time>2014-5-10T1:49:14Z</time></trkpt>
<trkpt lat="46.36776642" lon="7.02918512"><ele></ele><time>2014-5-10T1:49:17Z</time></trkpt>
<trkpt lat="46.36785099" lon="7.02882176"><ele></ele><time>2014-5-10T1:49:20Z</time></trkpt>
<trkpt lat="46.36779358" lon="7.02863879"><ele></ele><time>2014-5-10T1:49:23Z</time></trkpt>
<trkpt lat="46.36758420" lon="7.02843427"><ele></ele><time>2014-5-10T1:49:26Z</time></trkpt>
<trkpt lat="46.36726518" lon="7.02821005"><ele></ele><time>2014-5-10T1:49:29Z</time></trkpt>
<trkpt lat="46.36708028" lon="7.02783949"><ele></ele><time>2014-5-10T1:49:32Z</time></trkpt>
<trkpt lat="46.36685673" lon="7.02761686"><ele></ele><time>2014-5-10T1:49:35Z</time></trkpt>
<trkpt lat="46.36667753" lon="7.02758434"><ele></ele><time>2014-5-10T1:49:38Z</time></trkpt>
<trkpt lat="46.36644878" lon="7.02748443"><ele></ele><time>2014-5-10T1:49:41Z</time></trkpt>
<trkpt lat="46.36632297" lon="7.02743875"><ele></ele><time>2014-5-10T1:49:44Z</time></trkpt>
<trkpt lat="46.36629556" lon="7.02744395"><ele></ele><time>2014-5-10T1:49:47Z</time></trkpt>
<trkpt lat="46.36620269" lon="7.02739994"><ele></ele><time>2014-5-10T1:49:50Z</time></trkpt>
<trkpt lat="46.36612264" lon="7.02736666"><ele></ele><time>2014-5-10T1:49:53Z</time></trkpt>
<trkpt lat="46.36611007" lon="7.02736650"><ele></ele><time>2014-5-10T1:49:56Z</time></trkpt>
<trkpt lat="46.36606984" lon="7.02732878"><ele></ele><time>2014-5-10T1:49:59Z</time></trkpt>
<trkpt lat="46.36597722" lon="7.02728016"><ele></ele><time>2014-5-10T1:50:2Z</time></trkpt>
<trkpt lat="46.36589407" lon="7.02727932"><ele></ele><time>2014-5-10T1:50:5Z</time></trkpt>
<trkpt lat="46.36588217" lon="7.02727606"><ele></ele><time>2014-5-10T1:50:8Z</time></trkpt>
<trkpt lat="46.36579332" lon="7.02728804"><ele></ele><time>2014-5-10T1:50:11Z</time></trkpt>
<trkpt lat="46.36573339" lon="7.02725963"><ele></ele><time>2014-5-10T1:50:14Z</time></trkpt>
<trkpt lat="46.36570590" lon="7.02723674"><ele></ele><time>2014-5-10T1:50:17Z</time></trkpt>
<trkpt lat="46.36565804" lon="7.02710984"><ele></ele><time>2014-5-10T1:50:20Z</time></trkpt>
<trkpt lat="46.36564278" lon="7.02705125"><ele></ele><time>2014-5-10T1:50:23Z</time></trkpt>
<trkpt lat="46.36563859" lon="7.02686065"><ele></ele><time>2014-5-10T1:50:26Z</time></trkpt>
<trkpt lat="46.36563515" lon="7.02669519"><ele></ele><time>2014-5-10T1:50:29Z</time></trkpt>
<trkpt lat="46.36560825" lon="7.02645765"><ele></ele><time>2014-5-10T1:50:32Z</time></trkpt>
<trkpt lat="46.36556357" lon="7.02630166"><ele></ele><time>2014-5-10T1:50:35Z</time></trkpt>
<trkpt lat="46.36547397" lon="7.02610225"><ele></ele><time>2014-5-10T1:50:38Z</time></trkpt>
<trkpt lat="46.36536509" lon="7.02586739"><ele></ele><time>2014-5-10T1:50:41Z</time></trkpt>
<trkpt lat="46.36519804" lon="7.02555567"><ele></ele><time>2014-5-10T1:50:44Z</time></trkpt>
<trkpt lat="46.36475924" lon="7.02505569"><ele></ele><time>2014-5-10T1:50:47Z</time></trkpt>
<trkpt lat="46.36460728" lon="7.02488788"><ele></ele><time>2014-5-10T1:50:50Z</time></trkpt>
<trkpt lat="46.36455196" lon="7.02482745"><ele></ele><time>2014-5-10T1:50:53Z</time></trkpt>
<trkpt lat="46.36445045" lon="7.02472737"><ele></ele><time>2014-5-10T1:50:56Z</time></trkpt>
<trkpt lat="46.36425993" lon="7.02463643"><ele></ele><time>2014-5-10T1:50:59Z</time></trkpt>
<trkpt lat="46.36401879" lon="7.02453123"><ele></ele><time>2014-5-10T1:51:2Z</time></trkpt>
<trkpt lat="46.36381938" lon="7.02451288"><ele></ele><time>2014-5-10T1:51:5Z</time></trkpt>
<trkpt lat="46.36375300" lon="7.02452595"><ele></ele><time>2014-5-10T1:51:8Z</time></trkpt>
<trkpt lat="46.36348402" lon="7.02463492"><ele></ele><time>2014-5-10T1:51:11Z</time></trkpt>
<trkpt lat="46.36328973" lon="7.02470818"><ele></ele><time>2014-5-10T1:51:14Z</time></trkpt>
<trkpt lat="46.36312142" lon="7.02466937"><ele></ele><time>2014-5-10T1:51:17Z</time></trkpt>
<trkpt lat="46.36292797" lon="7.02456024"><ele></ele><time>2014-5-10T1:51:20Z</time></trkpt>
<trkpt lat="46.36266536" lon="7.02440752"><ele></ele><time>2014-5-10T1:51:23Z</time></trkpt>
<trkpt lat="46.36256235" lon="7.02435588"><ele></ele><time>2014-5-10T1:51:26Z</time></trkpt>
<trkpt lat="46.36232690" lon="7.02413888"><ele></ele><time>2014-5-10T1:51:29Z</time></trkpt>
<trkpt lat="46.36211232" lon="7.02392497"><ele></ele><time>2014-5-10T1:51:32Z</time></trkpt>
<trkpt lat="46.36191174" lon="7.02367427"><ele></ele><time>2014-5-10T1:51:35Z</time></trkpt>
<trkpt lat="46.36147077" lon="7.02329532"><ele></ele><time>2014-5-10T1:51:38Z</time></trkpt>
<trkpt lat="46.36123985" lon="7.02297027"><ele></ele><time>2014-5-10T1:51:41Z</time></trkpt>
<trkpt lat="46.36115997" lon="7.02281286"><ele></ele><time>2014-5-10T1:51:44Z</time></trkpt>
<trkpt lat="46.36111236" lon="7.02262636"><ele></ele><time>2014-5-10T1:51:47Z</time></trkpt>
<trkpt lat="46.36107833" lon="7.02248823"><ele></ele><time>2014-5-10T1:51:50Z</time></trkpt>
<trkpt lat="46.36097758" lon="7.02237784"><ele></ele><time>2014-5-10T1:51:53Z</time></trkpt>
<trkpt lat="46.36067566" lon="7.02223853"><ele></ele><time>2014-5-10T1:51:56Z</time></trkpt>
<trkpt lat="46.36058715" lon="7.02220752"><ele></ele><time>2014-5-10T1:51:59Z</time></trkpt>
<trkpt lat="46.36041666" lon="7.02210995"><ele></ele><time>2014-5-10T1:52:2Z</time></trkpt>
<trkpt lat="46.36011760" lon="7.02198490"><ele></ele><time>2014-5-10T1:52:5Z</time></trkpt>
<trkpt lat="46.35991124" lon="7.02205245"><ele></ele><time>2014-5-10T1:52:8Z</time></trkpt>
<trkpt lat="46.35977763" lon="7.02198272"><ele></ele><time>2014-5-10T1:52:11Z</time></trkpt>
<trkpt lat="46.35961234" lon="7.02177233"><ele></ele><time>2014-5-10T1:52:14Z</time></trkpt>
<trkpt lat="46.35944378" lon="7.02169983"><ele></ele><time>2014-5-10T1:52:17Z</time></trkpt>
<trkpt lat="46.35927522" lon="7.02177878"><ele></ele><time>2014-5-10T1:52:20Z</time></trkpt>
<trkpt lat="46.35918846" lon="7.02181759"><ele></ele><time>2014-5-10T1:52:23Z</time></trkpt>
<trkpt lat="46.35898788" lon="7.02199495"><ele></ele><time>2014-5-10T1:52:26Z</time></trkpt>
<trkpt lat="46.35889476" lon="7.02212295"><ele></ele><time>2014-5-10T1:52:29Z</time></trkpt>
<trkpt lat="46.35871765" lon="7.02214574"><ele></ele><time>2014-5-10T1:52:32Z</time></trkpt>
<trkpt lat="46.35866770" lon="7.02210266"><ele></ele><time>2014-5-10T1:52:35Z</time></trkpt>
<trkpt lat="46.35850777" lon="7.02196168"><ele></ele><time>2014-5-10T1:52:38Z</time></trkpt>
<trkpt lat="46.35824709" lon="7.02188557"><ele></ele><time>2014-5-10T1:52:41Z</time></trkpt>
<trkpt lat="46.35792908" lon="7.02179974"><ele></ele><time>2014-5-10T1:52:44Z</time></trkpt>
<trkpt lat="46.35769858" lon="7.02171592"><ele></ele><time>2014-5-10T1:52:47Z</time></trkpt>
<trkpt lat="46.35727697" lon="7.02154250"><ele></ele><time>2014-5-10T1:52:50Z</time></trkpt>
<trkpt lat="46.35721243" lon="7.02151786"><ele></ele><time>2014-5-10T1:52:53Z</time></trkpt>
<trkpt lat="46.35702342" lon="7.02148936"><ele></ele><time>2014-5-10T1:52:56Z</time></trkpt>
<trkpt lat="46.35696776" lon="7.02136614"><ele></ele><time>2014-5-10T1:52:59Z</time></trkpt>
<trkpt lat="46.35696868" lon="7.02129423"><ele></ele><time>2014-5-10T1:53:2Z</time></trkpt>
<trkpt lat="46.35702375" lon="7.02116422"><ele></ele><time>2014-5-10T1:53:5Z</time></trkpt>
<trkpt lat="46.35715577" lon="7.02092919"><ele></ele><time>2014-5-10T1:53:8Z</time></trkpt>
<trkpt lat="46.35727555" lon="7.02072325"><ele></ele><time>2014-5-10T1:53:11Z</time></trkpt>
<trkpt lat="46.35725367" lon="7.02055712"><ele></ele><time>2014-5-10T1:53:14Z</time></trkpt>
<trkpt lat="46.35720153" lon="7.02045377"><ele></ele><time>2014-5-10T1:53:17Z</time></trkpt>
<trkpt lat="46.35713372" lon="7.02035495"><ele></ele><time>2014-5-10T1:53:20Z</time></trkpt>
<trkpt lat="46.35696164" lon="7.02020978"><ele></ele><time>2014-5-10T1:53:23Z</time></trkpt>
<trkpt lat="46.35679635" lon="7.02013534"><ele></ele><time>2014-5-10T1:53:26Z</time></trkpt>
<trkpt lat="46.35667532" lon="7.02001079"><ele></ele><time>2014-5-10T1:53:29Z</time></trkpt>
<trkpt lat="46.35646082" lon="7.01961022"><ele></ele><time>2014-5-10T1:53:32Z</time></trkpt>
<trkpt lat="46.35629319" lon="7.01927704"><ele></ele><time>2014-5-10T1:53:35Z</time></trkpt>
<trkpt lat="46.35614349" lon="7.01904209"><ele></ele><time>2014-5-10T1:53:38Z</time></trkpt>
<trkpt lat="46.35594944" lon="7.01918475"><ele></ele><time>2014-5-10T1:53:41Z</time></trkpt>
<trkpt lat="46.35589555" lon="7.01928282"><ele></ele><time>2014-5-10T1:53:44Z</time></trkpt>
<trkpt lat="46.35567997" lon="7.01953998"><ele></ele><time>2014-5-10T1:53:47Z</time></trkpt>
<trkpt lat="46.35531787" lon="7.01984567"><ele></ele><time>2014-5-10T1:53:50Z</time></trkpt>
<trkpt lat="46.35522324" lon="7.01991700"><ele></ele><time>2014-5-10T1:53:53Z</time></trkpt>
<trkpt lat="46.35485074" lon="7.01996326"><ele></ele><time>2014-5-10T1:53:56Z</time></trkpt>
<trkpt lat="46.35475553" lon="7.01991985"><ele></ele><time>2014-5-10T1:53:59Z</time></trkpt>
<trkpt lat="46.35446065" lon="7.01973989"><ele></ele><time>2014-5-10T1:54:2Z</time></trkpt>
<trkpt lat="46.35397442" lon="7.01931995"><ele></ele><time>2014-5-10T1:54:5Z</time></trkpt>
<trkpt lat="46.35371483" lon="7.01908057"><ele></ele><time>2014-5-10T1:54:8Z</time></trkpt>
<trkpt lat="46.35343236" lon="7.01881989"><ele></ele><time>2014-5-10T1:54:11Z</time></trkpt>
<trkpt lat="46.35337746" lon="7.01876407"><ele></ele><time>2014-5-10T1:54:14Z</time></trkpt>
<trkpt lat="46.35327763" lon="7.01868368"><ele></ele><time>2014-5-10T1:54:17Z</time></trkpt>
<trkpt lat="46.35308468" lon="7.01843818"><ele></ele><time>2014-5-10T1:54:20Z</time></trkpt>
<trkpt lat="46.35295996" lon="7.01836039"><ele></ele><time>2014-5-10T1:54:23Z</time></trkpt>
<trkpt lat="46.35254924" lon="7.01815847"><ele></ele><time>2014-5-10T1:54:26Z</time></trkpt>
<trkpt lat="46.35234774" lon="7.01810307"><ele></ele><time>2014-5-10T1:54:29Z</time></trkpt>
<trkpt lat="46.35193862" lon="7.01806535"><ele></ele><time>2014-5-10T1:54:32Z</time></trkpt>
<trkpt lat="46.35173293" lon="7.01803819"><ele></ele><time>2014-5-10T1:54:35Z</time></trkpt>
<trkpt lat="46.35129883" lon="7.01802227"><ele></ele><time>2014-5-10T1:54:38Z</time></trkpt>
<trkpt lat="46.35113312" lon="7.01802897"><ele></ele><time>2014-5-10T1:54:41Z</time></trkpt>
<trkpt lat="46.35098929" lon="7.01803233"><ele></ele><time>2014-5-10T1:54:44Z</time></trkpt>
<trkpt lat="46.35081352" lon="7.01805873"><ele></ele><time>2014-5-10T1:54:47Z</time></trkpt>
<trkpt lat="46.35057664" lon="7.01804414"><ele></ele><time>2014-5-10T1:54:50Z</time></trkpt>
<trkpt lat="46.35046609" lon="7.01804104"><ele></ele><time>2014-5-10T1:54:53Z</time></trkpt>
<trkpt lat="46.35025319" lon="7.01805227"><ele></ele><time>2014-5-10T1:54:56Z</time></trkpt>
<trkpt lat="46.35010935" lon="7.01804264"><ele></ele><time>2014-5-10T1:54:59Z</time></trkpt>
<trkpt lat="46.34973275" lon="7.01789897"><ele></ele><time>2014-5-10T1:55:2Z</time></trkpt>
<trkpt lat="46.34956713" lon="7.01779084"><ele></ele><time>2014-5-10T1:55:5Z</time></trkpt>
<trkpt lat="46.34948406" lon="7.01772748"><ele></ele><time>2014-5-10T1:55:8Z</time></trkpt>
<trkpt lat="46.34914996" lon="7.01757928"><ele></ele><time>2014-5-10T1:55:11Z</time></trkpt>
<trkpt lat="46.34908123" lon="7.01757853"><ele></ele><time>2014-5-10T1:55:14Z</time></trkpt>
<trkpt lat="46.34902474" lon="7.01758465"><ele></ele><time>2014-5-10T1:55:17Z</time></trkpt>
<trkpt lat="46.34893178" lon="7.01759286"><ele></ele><time>2014-5-10T1:55:20Z</time></trkpt>
<trkpt lat="46.34876884" lon="7.01758708"><ele></ele><time>2014-5-10T1:55:23Z</time></trkpt>
<trkpt lat="46.34860296" lon="7.01757266"><ele></ele><time>2014-5-10T1:55:26Z</time></trkpt>
<trkpt lat="46.34847086" lon="7.01757325"><ele></ele><time>2014-5-10T1:55:29Z</time></trkpt>
<trkpt lat="46.34829769" lon="7.01756445"><ele></ele><time>2014-5-10T1:55:32Z</time></trkpt>
<trkpt lat="46.34823675" lon="7.01755146"><ele></ele><time>2014-5-10T1:55:35Z</time></trkpt>
<trkpt lat="46.34821404" lon="7.01754215"><ele></ele><time>2014-5-10T1:55:38Z</time></trkpt>
<trkpt lat="46.34804757" lon="7.01742816"><ele></ele><time>2014-5-10T1:55:41Z</time></trkpt>
<trkpt lat="46.34791346" lon="7.01734618"><ele></ele><time>2014-5-10T1:55:44Z</time></trkpt>
<trkpt lat="46.34780919" lon="7.01726044"><ele></ele><time>2014-5-10T1:55:47Z</time></trkpt>
<trkpt lat="46.34771909" lon="7.01712599"><ele></ele><time>2014-5-10T1:55:50Z</time></trkpt>
<trkpt lat="46.34757718" lon="7.01704552"><ele></ele><time>2014-5-10T1:55:53Z</time></trkpt>
<trkpt lat="46.34748758" lon="7.01705734"><ele></ele><time>2014-5-10T1:55:56Z</time></trkpt>
<trkpt lat="46.34746118" lon="7.01717569"><ele></ele><time>2014-5-10T1:55:59Z</time></trkpt>
<trkpt lat="46.34735682" lon="7.01718207"><ele></ele><time>2014-5-10T1:56:2Z</time></trkpt>
<trkpt lat="46.34725079" lon="7.01699984"><ele></ele><time>2014-5-10T1:56:5Z</time></trkpt>
<trkpt lat="46.34719614" lon="7.01701468"><ele></ele><time>2014-5-10T1:56:8Z</time></trkpt>
<trkpt lat="46.34720335" lon="7.01710068"><ele></ele><time>2014-5-10T1:56:11Z</time></trkpt>
<trkpt lat="46.34727778" lon="7.01726245"><ele></ele><time>2014-5-10T1:56:14Z</time></trkpt>
<trkpt lat="46.34731399" lon="7.01736923"><ele></ele><time>2014-5-10T1:56:17Z</time></trkpt>
<trkpt lat="46.34731684" lon="7.01748155"><ele></ele><time>2014-5-10T1:56:20Z</time></trkpt>
<trkpt lat="46.34727275" lon="7.01772236"><ele></ele><time>2014-5-10T1:56:23Z</time></trkpt>
<trkpt lat="46.34712053" lon="7.01774013"><ele></ele><time>2014-5-10T1:56:26Z</time></trkpt>
<trkpt lat="46.34705164" lon="7.01768632"><ele></ele><time>2014-5-10T1:56:29Z</time></trkpt>
<trkpt lat="46.34663363" lon="7.01725700"><ele></ele><time>2014-5-10T1:56:32Z</time></trkpt>
<trkpt lat="46.34624563" lon="7.01686288"><ele></ele><time>2014-5-10T1:56:35Z</time></trkpt>
<trkpt lat="46.34586476" lon="7.01639274"><ele></ele><time>2014-5-10T1:56:38Z</time></trkpt>
<trkpt lat="46.34566770" lon="7.01613424"><ele></ele><time>2014-5-10T1:56:41Z</time></trkpt>
<trkpt lat="46.34533175" lon="7.01572663"><ele></ele><time>2014-5-10T1:56:44Z</time></trkpt>
<trkpt lat="46.34525992" lon="7.01563753"><ele></ele><time>2014-5-10T1:56:47Z</time></trkpt>
<trkpt lat="46.34503964" lon="7.01535037"><ele></ele><time>2014-5-10T1:56:50Z</time></trkpt>
<trkpt lat="46.34481467" lon="7.01503202"><ele></ele><time>2014-5-10T1:56:53Z</time></trkpt>
<trkpt lat="46.34473722" lon="7.01492549"><ele></ele><time>2014-5-10T1:56:56Z</time></trkpt>
<trkpt lat="46.34437320" lon="7.01431043"><ele></ele><time>2014-5-10T1:56:59Z</time></trkpt>
<trkpt lat="46.34410137" lon="7.01388303"><ele></ele><time>2014-5-10T1:57:2Z</time></trkpt>
<trkpt lat="46.34393658" lon="7.01366393"><ele></ele><time>2014-5-10T1:57:5Z</time></trkpt>
<trkpt lat="46.34381622" lon="7.01351884"><ele></ele><time>2014-5-10T1:57:8Z</time></trkpt>
<trkpt lat="46.34371832" lon="7.01353963"><ele></ele><time>2014-5-10T1:57:11Z</time></trkpt>
<trkpt lat="46.34360064" lon="7.01357190"><ele></ele><time>2014-5-10T1:57:14Z</time></trkpt>
<trkpt lat="46.34346527" lon="7.01358145"><ele></ele><time>2014-5-10T1:57:17Z</time></trkpt>
<trkpt lat="46.34340844" lon="7.01356972"><ele></ele><time>2014-5-10T1:57:20Z</time></trkpt>
<trkpt lat="46.34323569" lon="7.01362479"><ele></ele><time>2014-5-10T1:57:23Z</time></trkpt>
<trkpt lat="46.34322328" lon="7.01370517"><ele></ele><time>2014-5-10T1:57:26Z</time></trkpt>
<trkpt lat="46.34327509" lon="7.01394388"><ele></ele><time>2014-5-10T1:57:29Z</time></trkpt>
<trkpt lat="46.34335773" lon="7.01413549"><ele></ele><time>2014-5-10T1:57:32Z</time></trkpt>
</trkseg></trk></gpx>